<?xml version="1.0" encoding="UTF-8" standalone="no" ?>
<gpx xmlns="http://www.topografix.com/GPX/1/1" xmlns:xsi="http://www.w3.org/2001/XMLSchema-instance" xsi:schemaLocation="http://www.topografix.com/GPX/1/1 http://www.topografix.com/GPX/1/1/gpx.xsd" version="1.1" creator="VisuGPX - https://www.visugpx.com">
  <metadata>
    <name>test ogeu</name>
  </metadata>
  <trk>
    <name><![CDATA[ogeu chemin des 4 chenes]]></name>
    <trkseg>
      <trkpt lat="43.14361" lon="-0.5101">
        <ele>349.58</ele>
        <time>2012-03-04T09:15:09Z</time>
      </trkpt>
      <trkpt lat="43.14359" lon="-0.51005">
        <ele>349.58</ele>
        <time>2012-03-04T09:15:10Z</time>
      </trkpt>
      <trkpt lat="43.14356" lon="-0.51002">
        <ele>351.02</ele>
        <time>2012-03-04T09:15:11Z</time>
      </trkpt>
      <trkpt lat="43.14353" lon="-0.50999">
        <ele>351.02</ele>
        <time>2012-03-04T09:15:12Z</time>
      </trkpt>
      <trkpt lat="43.1435" lon="-0.50997">
        <ele>351.5</ele>
        <time>2012-03-04T09:15:13Z</time>
      </trkpt>
      <trkpt lat="43.14333" lon="-0.50975">
        <ele>352.94</ele>
        <time>2012-03-04T09:15:20Z</time>
      </trkpt>
      <trkpt lat="43.1432" lon="-0.50942">
        <ele>354.86</ele>
        <time>2012-03-04T09:15:28Z</time>
      </trkpt>
      <trkpt lat="43.14303" lon="-0.50908">
        <ele>356.31</ele>
        <time>2012-03-04T09:15:36Z</time>
      </trkpt>
      <trkpt lat="43.14287" lon="-0.50866">
        <ele>357.27</ele>
        <time>2012-03-04T09:15:45Z</time>
      </trkpt>
      <trkpt lat="43.14278" lon="-0.50822">
        <ele>357.75</ele>
        <time>2012-03-04T09:15:53Z</time>
      </trkpt>
      <trkpt lat="43.14261" lon="-0.5076">
        <ele>357.75</ele>
        <time>2012-03-04T09:16:03Z</time>
      </trkpt>
      <trkpt lat="43.14246" lon="-0.50717">
        <ele>358.23</ele>
        <time>2012-03-04T09:16:10Z</time>
      </trkpt>
      <trkpt lat="43.14229" lon="-0.5066">
        <ele>358.71</ele>
        <time>2012-03-04T09:16:19Z</time>
      </trkpt>
      <trkpt lat="43.14216" lon="-0.50622">
        <ele>359.19</ele>
        <time>2012-03-04T09:16:25Z</time>
      </trkpt>
      <trkpt lat="43.14213" lon="-0.50615">
        <ele>359.67</ele>
        <time>2012-03-04T09:16:26Z</time>
      </trkpt>
      <trkpt lat="43.14211" lon="-0.50608">
        <ele>359.19</ele>
        <time>2012-03-04T09:16:27Z</time>
      </trkpt>
      <trkpt lat="43.14209" lon="-0.50602">
        <ele>359.19</ele>
        <time>2012-03-04T09:16:28Z</time>
      </trkpt>
      <trkpt lat="43.14207" lon="-0.50595">
        <ele>359.67</ele>
        <time>2012-03-04T09:16:29Z</time>
      </trkpt>
      <trkpt lat="43.14205" lon="-0.50588">
        <ele>359.19</ele>
        <time>2012-03-04T09:16:30Z</time>
      </trkpt>
      <trkpt lat="43.14184" lon="-0.50522">
        <ele>358.23</ele>
        <time>2012-03-04T09:16:39Z</time>
      </trkpt>
      <trkpt lat="43.14164" lon="-0.50457">
        <ele>357.75</ele>
        <time>2012-03-04T09:16:47Z</time>
      </trkpt>
      <trkpt lat="43.14143" lon="-0.50387">
        <ele>356.31</ele>
        <time>2012-03-04T09:16:55Z</time>
      </trkpt>
      <trkpt lat="43.14118" lon="-0.50303">
        <ele>354.86</ele>
        <time>2012-03-04T09:17:04Z</time>
      </trkpt>
      <trkpt lat="43.14104" lon="-0.50265">
        <ele>353.42</ele>
        <time>2012-03-04T09:17:08Z</time>
      </trkpt>
      <trkpt lat="43.14064" lon="-0.50197">
        <ele>351.5</ele>
        <time>2012-03-04T09:17:16Z</time>
      </trkpt>
      <trkpt lat="43.14048" lon="-0.50169">
        <ele>350.54</ele>
        <time>2012-03-04T09:17:19Z</time>
      </trkpt>
      <trkpt lat="43.14011" lon="-0.5012">
        <ele>348.62</ele>
        <time>2012-03-04T09:17:25Z</time>
      </trkpt>
      <trkpt lat="43.13999" lon="-0.50107">
        <ele>347.17</ele>
        <time>2012-03-04T09:17:27Z</time>
      </trkpt>
      <trkpt lat="43.13991" lon="-0.50102">
        <ele>346.69</ele>
        <time>2012-03-04T09:17:28Z</time>
      </trkpt>
      <trkpt lat="43.13983" lon="-0.501">
        <ele>347.17</ele>
        <time>2012-03-04T09:17:29Z</time>
      </trkpt>
      <trkpt lat="43.13975" lon="-0.50099">
        <ele>346.69</ele>
        <time>2012-03-04T09:17:30Z</time>
      </trkpt>
      <trkpt lat="43.13968" lon="-0.50099">
        <ele>346.69</ele>
        <time>2012-03-04T09:17:31Z</time>
      </trkpt>
      <trkpt lat="43.1396" lon="-0.501">
        <ele>346.21</ele>
        <time>2012-03-04T09:17:32Z</time>
      </trkpt>
      <trkpt lat="43.13898" lon="-0.50103">
        <ele>343.81</ele>
        <time>2012-03-04T09:17:40Z</time>
      </trkpt>
      <trkpt lat="43.1389" lon="-0.50101">
        <ele>343.33</ele>
        <time>2012-03-04T09:17:41Z</time>
      </trkpt>
      <trkpt lat="43.13882" lon="-0.50098">
        <ele>343.33</ele>
        <time>2012-03-04T09:17:42Z</time>
      </trkpt>
      <trkpt lat="43.13875" lon="-0.50094">
        <ele>342.85</ele>
        <time>2012-03-04T09:17:43Z</time>
      </trkpt>
      <trkpt lat="43.13869" lon="-0.50089">
        <ele>342.85</ele>
        <time>2012-03-04T09:17:44Z</time>
      </trkpt>
      <trkpt lat="43.13864" lon="-0.50083">
        <ele>342.37</ele>
        <time>2012-03-04T09:17:45Z</time>
      </trkpt>
      <trkpt lat="43.13859" lon="-0.50076">
        <ele>342.37</ele>
        <time>2012-03-04T09:17:46Z</time>
      </trkpt>
      <trkpt lat="43.13855" lon="-0.5007">
        <ele>341.89</ele>
        <time>2012-03-04T09:17:47Z</time>
      </trkpt>
      <trkpt lat="43.13831" lon="-0.50035">
        <ele>340.92</ele>
        <time>2012-03-04T09:17:53Z</time>
      </trkpt>
      <trkpt lat="43.13827" lon="-0.50033">
        <ele>340.92</ele>
        <time>2012-03-04T09:17:54Z</time>
      </trkpt>
      <trkpt lat="43.13822" lon="-0.50033">
        <ele>340.92</ele>
        <time>2012-03-04T09:17:55Z</time>
      </trkpt>
      <trkpt lat="43.13818" lon="-0.50035">
        <ele>340.44</ele>
        <time>2012-03-04T09:17:56Z</time>
      </trkpt>
      <trkpt lat="43.13813" lon="-0.50036">
        <ele>340.44</ele>
        <time>2012-03-04T09:17:57Z</time>
      </trkpt>
      <trkpt lat="43.13809" lon="-0.50038">
        <ele>340.92</ele>
        <time>2012-03-04T09:17:58Z</time>
      </trkpt>
      <trkpt lat="43.13805" lon="-0.50039">
        <ele>340.92</ele>
        <time>2012-03-04T09:17:59Z</time>
      </trkpt>
      <trkpt lat="43.138" lon="-0.50041">
        <ele>340.92</ele>
        <time>2012-03-04T09:18:00Z</time>
      </trkpt>
      <trkpt lat="43.13782" lon="-0.50044">
        <ele>342.37</ele>
        <time>2012-03-04T09:18:04Z</time>
      </trkpt>
      <trkpt lat="43.13777" lon="-0.50044">
        <ele>342.37</ele>
        <time>2012-03-04T09:18:05Z</time>
      </trkpt>
      <trkpt lat="43.13773" lon="-0.50043">
        <ele>342.37</ele>
        <time>2012-03-04T09:18:06Z</time>
      </trkpt>
      <trkpt lat="43.13769" lon="-0.50042">
        <ele>342.85</ele>
        <time>2012-03-04T09:18:07Z</time>
      </trkpt>
      <trkpt lat="43.13765" lon="-0.5004">
        <ele>342.85</ele>
        <time>2012-03-04T09:18:08Z</time>
      </trkpt>
      <trkpt lat="43.13762" lon="-0.50037">
        <ele>342.85</ele>
        <time>2012-03-04T09:18:09Z</time>
      </trkpt>
      <trkpt lat="43.13758" lon="-0.50034">
        <ele>343.33</ele>
        <time>2012-03-04T09:18:10Z</time>
      </trkpt>
      <trkpt lat="43.13734" lon="-0.50013">
        <ele>344.77</ele>
        <time>2012-03-04T09:18:17Z</time>
      </trkpt>
      <trkpt lat="43.13718" lon="-0.50004">
        <ele>343.33</ele>
        <time>2012-03-04T09:18:20Z</time>
      </trkpt>
      <trkpt lat="43.13712" lon="-0.50003">
        <ele>342.85</ele>
        <time>2012-03-04T09:18:21Z</time>
      </trkpt>
      <trkpt lat="43.13705" lon="-0.50004">
        <ele>342.85</ele>
        <time>2012-03-04T09:18:22Z</time>
      </trkpt>
      <trkpt lat="43.137" lon="-0.50007">
        <ele>342.85</ele>
        <time>2012-03-04T09:18:23Z</time>
      </trkpt>
      <trkpt lat="43.13695" lon="-0.50011">
        <ele>342.85</ele>
        <time>2012-03-04T09:18:24Z</time>
      </trkpt>
      <trkpt lat="43.13691" lon="-0.50017">
        <ele>342.85</ele>
        <time>2012-03-04T09:18:25Z</time>
      </trkpt>
      <trkpt lat="43.13687" lon="-0.50024">
        <ele>342.85</ele>
        <time>2012-03-04T09:18:26Z</time>
      </trkpt>
      <trkpt lat="43.13684" lon="-0.50031">
        <ele>342.37</ele>
        <time>2012-03-04T09:18:27Z</time>
      </trkpt>
      <trkpt lat="43.1368" lon="-0.50045">
        <ele>342.37</ele>
        <time>2012-03-04T09:18:29Z</time>
      </trkpt>
      <trkpt lat="43.13674" lon="-0.50066">
        <ele>342.85</ele>
        <time>2012-03-04T09:18:32Z</time>
      </trkpt>
      <trkpt lat="43.13657" lon="-0.5011">
        <ele>344.77</ele>
        <time>2012-03-04T09:18:40Z</time>
      </trkpt>
      <trkpt lat="43.13652" lon="-0.50122">
        <ele>346.21</ele>
        <time>2012-03-04T09:18:43Z</time>
      </trkpt>
      <trkpt lat="43.13638" lon="-0.50153">
        <ele>349.1</ele>
        <time>2012-03-04T09:18:52Z</time>
      </trkpt>
      <trkpt lat="43.13618" lon="-0.50174">
        <ele>350.54</ele>
        <time>2012-03-04T09:19:00Z</time>
      </trkpt>
      <trkpt lat="43.13602" lon="-0.50188">
        <ele>351.98</ele>
        <time>2012-03-04T09:19:07Z</time>
      </trkpt>
      <trkpt lat="43.1359" lon="-0.50199">
        <ele>352.94</ele>
        <time>2012-03-04T09:19:13Z</time>
      </trkpt>
      <trkpt lat="43.13581" lon="-0.50196">
        <ele>354.38</ele>
        <time>2012-03-04T09:19:19Z</time>
      </trkpt>
      <trkpt lat="43.13573" lon="-0.50191">
        <ele>356.79</ele>
        <time>2012-03-04T09:19:26Z</time>
      </trkpt>
      <trkpt lat="43.13564" lon="-0.5018">
        <ele>358.23</ele>
        <time>2012-03-04T09:19:33Z</time>
      </trkpt>
      <trkpt lat="43.13557" lon="-0.50167">
        <ele>360.15</ele>
        <time>2012-03-04T09:19:40Z</time>
      </trkpt>
      <trkpt lat="43.13549" lon="-0.50154">
        <ele>360.63</ele>
        <time>2012-03-04T09:19:47Z</time>
      </trkpt>
      <trkpt lat="43.13534" lon="-0.50129">
        <ele>363.04</ele>
        <time>2012-03-04T09:19:59Z</time>
      </trkpt>
      <trkpt lat="43.13524" lon="-0.50107">
        <ele>364.48</ele>
        <time>2012-03-04T09:20:08Z</time>
      </trkpt>
      <trkpt lat="43.13513" lon="-0.50088">
        <ele>365.92</ele>
        <time>2012-03-04T09:20:17Z</time>
      </trkpt>
      <trkpt lat="43.13503" lon="-0.50068">
        <ele>367.36</ele>
        <time>2012-03-04T09:20:25Z</time>
      </trkpt>
      <trkpt lat="43.13487" lon="-0.50041">
        <ele>368.8</ele>
        <time>2012-03-04T09:20:34Z</time>
      </trkpt>
      <trkpt lat="43.13473" lon="-0.50022">
        <ele>370.24</ele>
        <time>2012-03-04T09:20:42Z</time>
      </trkpt>
      <trkpt lat="43.1346" lon="-0.5001">
        <ele>372.17</ele>
        <time>2012-03-04T09:20:49Z</time>
      </trkpt>
      <trkpt lat="43.13438" lon="-0.49992">
        <ele>375.05</ele>
        <time>2012-03-04T09:21:01Z</time>
      </trkpt>
      <trkpt lat="43.13422" lon="-0.49986">
        <ele>376.01</ele>
        <time>2012-03-04T09:21:09Z</time>
      </trkpt>
      <trkpt lat="43.13408" lon="-0.49991">
        <ele>376.97</ele>
        <time>2012-03-04T09:21:16Z</time>
      </trkpt>
      <trkpt lat="43.13392" lon="-0.49997">
        <ele>378.9</ele>
        <time>2012-03-04T09:21:24Z</time>
      </trkpt>
      <trkpt lat="43.13376" lon="-0.50004">
        <ele>379.86</ele>
        <time>2012-03-04T09:21:31Z</time>
      </trkpt>
      <trkpt lat="43.13359" lon="-0.50012">
        <ele>380.82</ele>
        <time>2012-03-04T09:21:39Z</time>
      </trkpt>
      <trkpt lat="43.13345" lon="-0.50019">
        <ele>379.38</ele>
        <time>2012-03-04T09:21:44Z</time>
      </trkpt>
      <trkpt lat="43.13338" lon="-0.50026">
        <ele>378.42</ele>
        <time>2012-03-04T09:21:46Z</time>
      </trkpt>
      <trkpt lat="43.13317" lon="-0.50058">
        <ele>375.53</ele>
        <time>2012-03-04T09:21:51Z</time>
      </trkpt>
      <trkpt lat="43.13305" lon="-0.50072">
        <ele>373.13</ele>
        <time>2012-03-04T09:21:53Z</time>
      </trkpt>
      <trkpt lat="43.13285" lon="-0.50092">
        <ele>367.36</ele>
        <time>2012-03-04T09:21:57Z</time>
      </trkpt>
      <trkpt lat="43.13278" lon="-0.50092">
        <ele>365.44</ele>
        <time>2012-03-04T09:21:59Z</time>
      </trkpt>
      <trkpt lat="43.13265" lon="-0.50074">
        <ele>363.04</ele>
        <time>2012-03-04T09:22:03Z</time>
      </trkpt>
      <trkpt lat="43.13262" lon="-0.50067">
        <ele>362.55</ele>
        <time>2012-03-04T09:22:04Z</time>
      </trkpt>
      <trkpt lat="43.13257" lon="-0.50052">
        <ele>362.07</ele>
        <time>2012-03-04T09:22:06Z</time>
      </trkpt>
      <trkpt lat="43.13236" lon="-0.49992">
        <ele>360.63</ele>
        <time>2012-03-04T09:22:14Z</time>
      </trkpt>
      <trkpt lat="43.13221" lon="-0.49955">
        <ele>361.59</ele>
        <time>2012-03-04T09:22:20Z</time>
      </trkpt>
      <trkpt lat="43.13211" lon="-0.49924">
        <ele>363.52</ele>
        <time>2012-03-04T09:22:27Z</time>
      </trkpt>
      <trkpt lat="43.13219" lon="-0.49909">
        <ele>364</ele>
        <time>2012-03-04T09:22:31Z</time>
      </trkpt>
      <trkpt lat="43.13249" lon="-0.49879">
        <ele>366.4</ele>
        <time>2012-03-04T09:22:42Z</time>
      </trkpt>
      <trkpt lat="43.13273" lon="-0.49855">
        <ele>367.84</ele>
        <time>2012-03-04T09:22:51Z</time>
      </trkpt>
      <trkpt lat="43.13288" lon="-0.49843">
        <ele>367.84</ele>
        <time>2012-03-04T09:22:55Z</time>
      </trkpt>
      <trkpt lat="43.13322" lon="-0.49815">
        <ele>366.88</ele>
        <time>2012-03-04T09:23:02Z</time>
      </trkpt>
      <trkpt lat="43.13349" lon="-0.49789">
        <ele>362.07</ele>
        <time>2012-03-04T09:23:06Z</time>
      </trkpt>
      <trkpt lat="43.13371" lon="-0.49767">
        <ele>358.23</ele>
        <time>2012-03-04T09:23:09Z</time>
      </trkpt>
      <trkpt lat="43.13378" lon="-0.49762">
        <ele>356.79</ele>
        <time>2012-03-04T09:23:10Z</time>
      </trkpt>
      <trkpt lat="43.13387" lon="-0.4976">
        <ele>355.83</ele>
        <time>2012-03-04T09:23:11Z</time>
      </trkpt>
      <trkpt lat="43.13396" lon="-0.4976">
        <ele>355.34</ele>
        <time>2012-03-04T09:23:12Z</time>
      </trkpt>
      <trkpt lat="43.13406" lon="-0.49762">
        <ele>354.86</ele>
        <time>2012-03-04T09:23:13Z</time>
      </trkpt>
      <trkpt lat="43.13415" lon="-0.49765">
        <ele>354.38</ele>
        <time>2012-03-04T09:23:14Z</time>
      </trkpt>
      <trkpt lat="43.13454" lon="-0.49779">
        <ele>350.06</ele>
        <time>2012-03-04T09:23:19Z</time>
      </trkpt>
      <trkpt lat="43.13459" lon="-0.49779">
        <ele>350.06</ele>
        <time>2012-03-04T09:23:20Z</time>
      </trkpt>
      <trkpt lat="43.13462" lon="-0.49778">
        <ele>349.58</ele>
        <time>2012-03-04T09:23:21Z</time>
      </trkpt>
      <trkpt lat="43.13461" lon="-0.49774">
        <ele>349.1</ele>
        <time>2012-03-04T09:23:23Z</time>
      </trkpt>
      <trkpt lat="43.13448" lon="-0.49762">
        <ele>348.62</ele>
        <time>2012-03-04T09:23:28Z</time>
      </trkpt>
      <trkpt lat="43.13431" lon="-0.49746">
        <ele>349.58</ele>
        <time>2012-03-04T09:23:33Z</time>
      </trkpt>
      <trkpt lat="43.13423" lon="-0.49735">
        <ele>351.5</ele>
        <time>2012-03-04T09:23:36Z</time>
      </trkpt>
      <trkpt lat="43.13406" lon="-0.49714">
        <ele>352.46</ele>
        <time>2012-03-04T09:23:42Z</time>
      </trkpt>
      <trkpt lat="43.13379" lon="-0.49688">
        <ele>351.5</ele>
        <time>2012-03-04T09:23:50Z</time>
      </trkpt>
      <trkpt lat="43.1335" lon="-0.49653">
        <ele>351.5</ele>
        <time>2012-03-04T09:23:57Z</time>
      </trkpt>
      <trkpt lat="43.13347" lon="-0.49649">
        <ele>351.5</ele>
        <time>2012-03-04T09:23:58Z</time>
      </trkpt>
      <trkpt lat="43.13343" lon="-0.49644">
        <ele>351.02</ele>
        <time>2012-03-04T09:23:59Z</time>
      </trkpt>
      <trkpt lat="43.1332" lon="-0.4961">
        <ele>350.54</ele>
        <time>2012-03-04T09:24:05Z</time>
      </trkpt>
      <trkpt lat="43.13317" lon="-0.49605">
        <ele>350.54</ele>
        <time>2012-03-04T09:24:06Z</time>
      </trkpt>
      <trkpt lat="43.13311" lon="-0.49593">
        <ele>351.02</ele>
        <time>2012-03-04T09:24:09Z</time>
      </trkpt>
      <trkpt lat="43.13311" lon="-0.49589">
        <ele>351.5</ele>
        <time>2012-03-04T09:24:10Z</time>
      </trkpt>
      <trkpt lat="43.13311" lon="-0.49585">
        <ele>351.5</ele>
        <time>2012-03-04T09:24:11Z</time>
      </trkpt>
      <trkpt lat="43.13311" lon="-0.49582">
        <ele>351.98</ele>
        <time>2012-03-04T09:24:12Z</time>
      </trkpt>
      <trkpt lat="43.13311" lon="-0.49577">
        <ele>351.98</ele>
        <time>2012-03-04T09:24:13Z</time>
      </trkpt>
      <trkpt lat="43.1331" lon="-0.49573">
        <ele>351.98</ele>
        <time>2012-03-04T09:24:14Z</time>
      </trkpt>
      <trkpt lat="43.13309" lon="-0.49568">
        <ele>352.46</ele>
        <time>2012-03-04T09:24:15Z</time>
      </trkpt>
      <trkpt lat="43.13308" lon="-0.49564">
        <ele>352.46</ele>
        <time>2012-03-04T09:24:16Z</time>
      </trkpt>
      <trkpt lat="43.13308" lon="-0.49558">
        <ele>352.94</ele>
        <time>2012-03-04T09:24:17Z</time>
      </trkpt>
      <trkpt lat="43.13309" lon="-0.49553">
        <ele>352.94</ele>
        <time>2012-03-04T09:24:18Z</time>
      </trkpt>
      <trkpt lat="43.13309" lon="-0.49548">
        <ele>353.42</ele>
        <time>2012-03-04T09:24:19Z</time>
      </trkpt>
      <trkpt lat="43.13307" lon="-0.49515">
        <ele>354.38</ele>
        <time>2012-03-04T09:24:26Z</time>
      </trkpt>
      <trkpt lat="43.13293" lon="-0.49485">
        <ele>353.9</ele>
        <time>2012-03-04T09:24:33Z</time>
      </trkpt>
      <trkpt lat="43.13275" lon="-0.49454">
        <ele>353.9</ele>
        <time>2012-03-04T09:24:41Z</time>
      </trkpt>
      <trkpt lat="43.13255" lon="-0.4944">
        <ele>354.38</ele>
        <time>2012-03-04T09:24:47Z</time>
      </trkpt>
      <trkpt lat="43.13253" lon="-0.49436">
        <ele>354.38</ele>
        <time>2012-03-04T09:24:48Z</time>
      </trkpt>
      <trkpt lat="43.13241" lon="-0.49398">
        <ele>354.86</ele>
        <time>2012-03-04T09:24:57Z</time>
      </trkpt>
      <trkpt lat="43.13237" lon="-0.49367">
        <ele>354.86</ele>
        <time>2012-03-04T09:25:02Z</time>
      </trkpt>
      <trkpt lat="43.13236" lon="-0.49361">
        <ele>354.86</ele>
        <time>2012-03-04T09:25:03Z</time>
      </trkpt>
      <trkpt lat="43.13232" lon="-0.4935">
        <ele>354.86</ele>
        <time>2012-03-04T09:25:05Z</time>
      </trkpt>
      <trkpt lat="43.1323" lon="-0.49345">
        <ele>355.34</ele>
        <time>2012-03-04T09:25:06Z</time>
      </trkpt>
      <trkpt lat="43.13228" lon="-0.4934">
        <ele>355.34</ele>
        <time>2012-03-04T09:25:07Z</time>
      </trkpt>
      <trkpt lat="43.13225" lon="-0.49335">
        <ele>355.34</ele>
        <time>2012-03-04T09:25:08Z</time>
      </trkpt>
      <trkpt lat="43.13223" lon="-0.4933">
        <ele>354.86</ele>
        <time>2012-03-04T09:25:09Z</time>
      </trkpt>
      <trkpt lat="43.13209" lon="-0.49304">
        <ele>355.83</ele>
        <time>2012-03-04T09:25:15Z</time>
      </trkpt>
      <trkpt lat="43.13207" lon="-0.49299">
        <ele>355.34</ele>
        <time>2012-03-04T09:25:16Z</time>
      </trkpt>
      <trkpt lat="43.13196" lon="-0.4928">
        <ele>353.42</ele>
        <time>2012-03-04T09:25:19Z</time>
      </trkpt>
      <trkpt lat="43.13189" lon="-0.49265">
        <ele>353.42</ele>
        <time>2012-03-04T09:25:21Z</time>
      </trkpt>
      <trkpt lat="43.13179" lon="-0.49238">
        <ele>354.86</ele>
        <time>2012-03-04T09:25:27Z</time>
      </trkpt>
      <trkpt lat="43.13161" lon="-0.49205">
        <ele>356.31</ele>
        <time>2012-03-04T09:25:36Z</time>
      </trkpt>
      <trkpt lat="43.13143" lon="-0.49196">
        <ele>356.79</ele>
        <time>2012-03-04T09:25:42Z</time>
      </trkpt>
      <trkpt lat="43.1312" lon="-0.49203">
        <ele>358.23</ele>
        <time>2012-03-04T09:25:50Z</time>
      </trkpt>
      <trkpt lat="43.13099" lon="-0.49205">
        <ele>360.15</ele>
        <time>2012-03-04T09:25:58Z</time>
      </trkpt>
      <trkpt lat="43.13083" lon="-0.49205">
        <ele>361.59</ele>
        <time>2012-03-04T09:26:05Z</time>
      </trkpt>
      <trkpt lat="43.13065" lon="-0.49205">
        <ele>363.04</ele>
        <time>2012-03-04T09:26:13Z</time>
      </trkpt>
      <trkpt lat="43.13041" lon="-0.49205">
        <ele>365.44</ele>
        <time>2012-03-04T09:26:24Z</time>
      </trkpt>
      <trkpt lat="43.13021" lon="-0.49204">
        <ele>366.88</ele>
        <time>2012-03-04T09:26:33Z</time>
      </trkpt>
      <trkpt lat="43.13001" lon="-0.49201">
        <ele>368.32</ele>
        <time>2012-03-04T09:26:42Z</time>
      </trkpt>
      <trkpt lat="43.12982" lon="-0.49206">
        <ele>369.28</ele>
        <time>2012-03-04T09:26:50Z</time>
      </trkpt>
      <trkpt lat="43.12955" lon="-0.49215">
        <ele>370.24</ele>
        <time>2012-03-04T09:27:00Z</time>
      </trkpt>
      <trkpt lat="43.12934" lon="-0.49222">
        <ele>371.21</ele>
        <time>2012-03-04T09:27:08Z</time>
      </trkpt>
      <trkpt lat="43.12904" lon="-0.49232">
        <ele>371.69</ele>
        <time>2012-03-04T09:27:17Z</time>
      </trkpt>
      <trkpt lat="43.12887" lon="-0.49237">
        <ele>371.21</ele>
        <time>2012-03-04T09:27:21Z</time>
      </trkpt>
      <trkpt lat="43.12882" lon="-0.49238">
        <ele>371.69</ele>
        <time>2012-03-04T09:27:22Z</time>
      </trkpt>
      <trkpt lat="43.12855" lon="-0.49247">
        <ele>370.24</ele>
        <time>2012-03-04T09:27:28Z</time>
      </trkpt>
      <trkpt lat="43.12851" lon="-0.49247">
        <ele>370.24</ele>
        <time>2012-03-04T09:27:29Z</time>
      </trkpt>
      <trkpt lat="43.12846" lon="-0.49245">
        <ele>369.76</ele>
        <time>2012-03-04T09:27:30Z</time>
      </trkpt>
      <trkpt lat="43.12842" lon="-0.49241">
        <ele>369.76</ele>
        <time>2012-03-04T09:27:31Z</time>
      </trkpt>
      <trkpt lat="43.1284" lon="-0.49236">
        <ele>369.76</ele>
        <time>2012-03-04T09:27:32Z</time>
      </trkpt>
      <trkpt lat="43.12838" lon="-0.49231">
        <ele>370.24</ele>
        <time>2012-03-04T09:27:33Z</time>
      </trkpt>
      <trkpt lat="43.12836" lon="-0.49225">
        <ele>370.24</ele>
        <time>2012-03-04T09:27:34Z</time>
      </trkpt>
      <trkpt lat="43.12835" lon="-0.4922">
        <ele>370.24</ele>
        <time>2012-03-04T09:27:35Z</time>
      </trkpt>
      <trkpt lat="43.12819" lon="-0.49173">
        <ele>372.17</ele>
        <time>2012-03-04T09:27:45Z</time>
      </trkpt>
      <trkpt lat="43.12805" lon="-0.49127">
        <ele>373.61</ele>
        <time>2012-03-04T09:27:55Z</time>
      </trkpt>
      <trkpt lat="43.12792" lon="-0.49082">
        <ele>376.01</ele>
        <time>2012-03-04T09:28:05Z</time>
      </trkpt>
      <trkpt lat="43.12785" lon="-0.49045">
        <ele>376.97</ele>
        <time>2012-03-04T09:28:13Z</time>
      </trkpt>
      <trkpt lat="43.1278" lon="-0.49002">
        <ele>379.38</ele>
        <time>2012-03-04T09:28:23Z</time>
      </trkpt>
      <trkpt lat="43.12766" lon="-0.48974">
        <ele>380.82</ele>
        <time>2012-03-04T09:28:31Z</time>
      </trkpt>
      <trkpt lat="43.12747" lon="-0.48937">
        <ele>382.26</ele>
        <time>2012-03-04T09:28:41Z</time>
      </trkpt>
      <trkpt lat="43.12728" lon="-0.48907">
        <ele>382.26</ele>
        <time>2012-03-04T09:28:49Z</time>
      </trkpt>
      <trkpt lat="43.12707" lon="-0.48878">
        <ele>383.7</ele>
        <time>2012-03-04T09:28:57Z</time>
      </trkpt>
      <trkpt lat="43.12682" lon="-0.4884">
        <ele>385.15</ele>
        <time>2012-03-04T09:29:07Z</time>
      </trkpt>
      <trkpt lat="43.12657" lon="-0.48806">
        <ele>385.63</ele>
        <time>2012-03-04T09:29:16Z</time>
      </trkpt>
      <trkpt lat="43.12655" lon="-0.48802">
        <ele>385.63</ele>
        <time>2012-03-04T09:29:17Z</time>
      </trkpt>
      <trkpt lat="43.12653" lon="-0.48796">
        <ele>385.63</ele>
        <time>2012-03-04T09:29:18Z</time>
      </trkpt>
      <trkpt lat="43.12652" lon="-0.48789">
        <ele>384.66</ele>
        <time>2012-03-04T09:29:19Z</time>
      </trkpt>
      <trkpt lat="43.12652" lon="-0.48782">
        <ele>384.66</ele>
        <time>2012-03-04T09:29:20Z</time>
      </trkpt>
      <trkpt lat="43.12652" lon="-0.48774">
        <ele>383.7</ele>
        <time>2012-03-04T09:29:21Z</time>
      </trkpt>
      <trkpt lat="43.12653" lon="-0.48766">
        <ele>384.18</ele>
        <time>2012-03-04T09:29:22Z</time>
      </trkpt>
      <trkpt lat="43.12654" lon="-0.48759">
        <ele>384.18</ele>
        <time>2012-03-04T09:29:23Z</time>
      </trkpt>
      <trkpt lat="43.12655" lon="-0.48752">
        <ele>384.18</ele>
        <time>2012-03-04T09:29:24Z</time>
      </trkpt>
      <trkpt lat="43.12654" lon="-0.48745">
        <ele>383.7</ele>
        <time>2012-03-04T09:29:25Z</time>
      </trkpt>
      <trkpt lat="43.12653" lon="-0.48741">
        <ele>383.22</ele>
        <time>2012-03-04T09:29:26Z</time>
      </trkpt>
      <trkpt lat="43.1265" lon="-0.48739">
        <ele>383.22</ele>
        <time>2012-03-04T09:29:27Z</time>
      </trkpt>
      <trkpt lat="43.12648" lon="-0.48739">
        <ele>383.22</ele>
        <time>2012-03-04T09:29:28Z</time>
      </trkpt>
      <trkpt lat="43.12646" lon="-0.4874">
        <ele>383.7</ele>
        <time>2012-03-04T09:29:29Z</time>
      </trkpt>
      <trkpt lat="43.12645" lon="-0.48742">
        <ele>384.18</ele>
        <time>2012-03-04T09:29:30Z</time>
      </trkpt>
      <trkpt lat="43.12643" lon="-0.48743">
        <ele>384.66</ele>
        <time>2012-03-04T09:29:31Z</time>
      </trkpt>
      <trkpt lat="43.12632" lon="-0.48757">
        <ele>386.11</ele>
        <time>2012-03-04T09:29:37Z</time>
      </trkpt>
      <trkpt lat="43.12619" lon="-0.48775">
        <ele>387.07</ele>
        <time>2012-03-04T09:29:43Z</time>
      </trkpt>
      <trkpt lat="43.12601" lon="-0.488">
        <ele>387.55</ele>
        <time>2012-03-04T09:29:50Z</time>
      </trkpt>
      <trkpt lat="43.12589" lon="-0.48816">
        <ele>386.59</ele>
        <time>2012-03-04T09:29:54Z</time>
      </trkpt>
      <trkpt lat="43.12585" lon="-0.4882">
        <ele>387.07</ele>
        <time>2012-03-04T09:29:55Z</time>
      </trkpt>
      <trkpt lat="43.12582" lon="-0.48824">
        <ele>386.11</ele>
        <time>2012-03-04T09:29:56Z</time>
      </trkpt>
      <trkpt lat="43.12578" lon="-0.48829">
        <ele>386.59</ele>
        <time>2012-03-04T09:29:57Z</time>
      </trkpt>
      <trkpt lat="43.12574" lon="-0.48833">
        <ele>386.11</ele>
        <time>2012-03-04T09:29:58Z</time>
      </trkpt>
      <trkpt lat="43.12551" lon="-0.48859">
        <ele>384.66</ele>
        <time>2012-03-04T09:30:05Z</time>
      </trkpt>
      <trkpt lat="43.12544" lon="-0.4887">
        <ele>382.74</ele>
        <time>2012-03-04T09:30:10Z</time>
      </trkpt>
      <trkpt lat="43.12544" lon="-0.48869">
        <ele>382.74</ele>
        <time>2012-03-04T09:30:16Z</time>
      </trkpt>
      <trkpt lat="43.12545" lon="-0.48869">
        <ele>382.74</ele>
        <time>2012-03-04T09:30:17Z</time>
      </trkpt>
      <trkpt lat="43.12547" lon="-0.48871">
        <ele>383.22</ele>
        <time>2012-03-04T09:30:24Z</time>
      </trkpt>
      <trkpt lat="43.12547" lon="-0.4887">
        <ele>383.22</ele>
        <time>2012-03-04T09:30:29Z</time>
      </trkpt>
      <trkpt lat="43.12547" lon="-0.4887">
        <ele>383.22</ele>
        <time>2012-03-04T09:30:40Z</time>
      </trkpt>
      <trkpt lat="43.12547" lon="-0.48873">
        <ele>383.22</ele>
        <time>2012-03-04T09:30:48Z</time>
      </trkpt>
      <trkpt lat="43.12548" lon="-0.48877">
        <ele>383.22</ele>
        <time>2012-03-04T09:30:53Z</time>
      </trkpt>
      <trkpt lat="43.12548" lon="-0.48877">
        <ele>383.7</ele>
        <time>2012-03-04T09:31:01Z</time>
      </trkpt>
      <trkpt lat="43.12548" lon="-0.48878">
        <ele>383.7</ele>
        <time>2012-03-04T09:31:09Z</time>
      </trkpt>
      <trkpt lat="43.12548" lon="-0.48878">
        <ele>383.22</ele>
        <time>2012-03-04T09:31:20Z</time>
      </trkpt>
      <trkpt lat="43.12548" lon="-0.48878">
        <ele>383.22</ele>
        <time>2012-03-04T09:31:28Z</time>
      </trkpt>
      <trkpt lat="43.12549" lon="-0.48878">
        <ele>383.22</ele>
        <time>2012-03-04T09:31:41Z</time>
      </trkpt>
      <trkpt lat="43.12549" lon="-0.48878">
        <ele>383.22</ele>
        <time>2012-03-04T09:31:52Z</time>
      </trkpt>
      <trkpt lat="43.1255" lon="-0.48878">
        <ele>384.18</ele>
        <time>2012-03-04T09:31:58Z</time>
      </trkpt>
      <trkpt lat="43.1255" lon="-0.48879">
        <ele>383.7</ele>
        <time>2012-03-04T09:32:11Z</time>
      </trkpt>
      <trkpt lat="43.1255" lon="-0.48879">
        <ele>383.22</ele>
        <time>2012-03-04T09:32:19Z</time>
      </trkpt>
      <trkpt lat="43.1255" lon="-0.48878">
        <ele>383.22</ele>
        <time>2012-03-04T09:32:32Z</time>
      </trkpt>
      <trkpt lat="43.1255" lon="-0.48878">
        <ele>382.74</ele>
        <time>2012-03-04T09:32:44Z</time>
      </trkpt>
      <trkpt lat="43.1255" lon="-0.48878">
        <ele>383.7</ele>
        <time>2012-03-04T09:32:52Z</time>
      </trkpt>
      <trkpt lat="43.12547" lon="-0.48876">
        <ele>383.22</ele>
        <time>2012-03-04T09:32:59Z</time>
      </trkpt>
      <trkpt lat="43.12542" lon="-0.48873">
        <ele>382.26</ele>
        <time>2012-03-04T09:33:06Z</time>
      </trkpt>
      <trkpt lat="43.12542" lon="-0.48873">
        <ele>382.26</ele>
        <time>2012-03-04T09:33:07Z</time>
      </trkpt>
      <trkpt lat="43.12541" lon="-0.48879">
        <ele>382.74</ele>
        <time>2012-03-04T09:33:11Z</time>
      </trkpt>
      <trkpt lat="43.12535" lon="-0.48889">
        <ele>382.74</ele>
        <time>2012-03-04T09:33:14Z</time>
      </trkpt>
      <trkpt lat="43.12531" lon="-0.48893">
        <ele>382.26</ele>
        <time>2012-03-04T09:33:15Z</time>
      </trkpt>
      <trkpt lat="43.12526" lon="-0.48895">
        <ele>381.3</ele>
        <time>2012-03-04T09:33:16Z</time>
      </trkpt>
      <trkpt lat="43.12521" lon="-0.48897">
        <ele>380.34</ele>
        <time>2012-03-04T09:33:17Z</time>
      </trkpt>
      <trkpt lat="43.12516" lon="-0.48898">
        <ele>378.9</ele>
        <time>2012-03-04T09:33:18Z</time>
      </trkpt>
      <trkpt lat="43.1251" lon="-0.48897">
        <ele>377.94</ele>
        <time>2012-03-04T09:33:19Z</time>
      </trkpt>
      <trkpt lat="43.12504" lon="-0.48895">
        <ele>376.97</ele>
        <time>2012-03-04T09:33:20Z</time>
      </trkpt>
      <trkpt lat="43.12488" lon="-0.48891">
        <ele>374.09</ele>
        <time>2012-03-04T09:33:23Z</time>
      </trkpt>
      <trkpt lat="43.12484" lon="-0.48889">
        <ele>372.65</ele>
        <time>2012-03-04T09:33:24Z</time>
      </trkpt>
      <trkpt lat="43.12479" lon="-0.48884">
        <ele>371.69</ele>
        <time>2012-03-04T09:33:25Z</time>
      </trkpt>
      <trkpt lat="43.12476" lon="-0.48878">
        <ele>371.21</ele>
        <time>2012-03-04T09:33:26Z</time>
      </trkpt>
      <trkpt lat="43.12471" lon="-0.48875">
        <ele>370.24</ele>
        <time>2012-03-04T09:33:27Z</time>
      </trkpt>
      <trkpt lat="43.12467" lon="-0.48875">
        <ele>369.76</ele>
        <time>2012-03-04T09:33:28Z</time>
      </trkpt>
      <trkpt lat="43.12462" lon="-0.48878">
        <ele>368.8</ele>
        <time>2012-03-04T09:33:29Z</time>
      </trkpt>
      <trkpt lat="43.12457" lon="-0.48882">
        <ele>368.32</ele>
        <time>2012-03-04T09:33:30Z</time>
      </trkpt>
      <trkpt lat="43.12453" lon="-0.48887">
        <ele>367.84</ele>
        <time>2012-03-04T09:33:31Z</time>
      </trkpt>
      <trkpt lat="43.12425" lon="-0.4892">
        <ele>364</ele>
        <time>2012-03-04T09:33:36Z</time>
      </trkpt>
      <trkpt lat="43.12412" lon="-0.48937">
        <ele>362.55</ele>
        <time>2012-03-04T09:33:38Z</time>
      </trkpt>
      <trkpt lat="43.12407" lon="-0.48947">
        <ele>361.11</ele>
        <time>2012-03-04T09:33:39Z</time>
      </trkpt>
      <trkpt lat="43.12396" lon="-0.4897">
        <ele>357.27</ele>
        <time>2012-03-04T09:33:41Z</time>
      </trkpt>
      <trkpt lat="43.12381" lon="-0.49003">
        <ele>352.94</ele>
        <time>2012-03-04T09:33:44Z</time>
      </trkpt>
      <trkpt lat="43.1236" lon="-0.49055">
        <ele>350.54</ele>
        <time>2012-03-04T09:33:49Z</time>
      </trkpt>
      <trkpt lat="43.12355" lon="-0.49061">
        <ele>350.06</ele>
        <time>2012-03-04T09:33:50Z</time>
      </trkpt>
      <trkpt lat="43.12352" lon="-0.49067">
        <ele>349.1</ele>
        <time>2012-03-04T09:33:51Z</time>
      </trkpt>
      <trkpt lat="43.12347" lon="-0.49074">
        <ele>348.13</ele>
        <time>2012-03-04T09:33:52Z</time>
      </trkpt>
      <trkpt lat="43.12342" lon="-0.49081">
        <ele>348.13</ele>
        <time>2012-03-04T09:33:53Z</time>
      </trkpt>
      <trkpt lat="43.12337" lon="-0.49089">
        <ele>345.73</ele>
        <time>2012-03-04T09:33:54Z</time>
      </trkpt>
      <trkpt lat="43.12333" lon="-0.49095">
        <ele>344.77</ele>
        <time>2012-03-04T09:33:55Z</time>
      </trkpt>
      <trkpt lat="43.12329" lon="-0.49098">
        <ele>344.29</ele>
        <time>2012-03-04T09:33:56Z</time>
      </trkpt>
      <trkpt lat="43.12325" lon="-0.491">
        <ele>344.29</ele>
        <time>2012-03-04T09:33:57Z</time>
      </trkpt>
      <trkpt lat="43.12307" lon="-0.49107">
        <ele>340.92</ele>
        <time>2012-03-04T09:34:02Z</time>
      </trkpt>
      <trkpt lat="43.12303" lon="-0.49109">
        <ele>340.44</ele>
        <time>2012-03-04T09:34:03Z</time>
      </trkpt>
      <trkpt lat="43.123" lon="-0.4911">
        <ele>339.48</ele>
        <time>2012-03-04T09:34:04Z</time>
      </trkpt>
      <trkpt lat="43.12297" lon="-0.4911">
        <ele>338.52</ele>
        <time>2012-03-04T09:34:05Z</time>
      </trkpt>
      <trkpt lat="43.12293" lon="-0.49112">
        <ele>337.56</ele>
        <time>2012-03-04T09:34:06Z</time>
      </trkpt>
      <trkpt lat="43.1229" lon="-0.49115">
        <ele>336.12</ele>
        <time>2012-03-04T09:34:07Z</time>
      </trkpt>
      <trkpt lat="43.12287" lon="-0.4912">
        <ele>335.16</ele>
        <time>2012-03-04T09:34:08Z</time>
      </trkpt>
      <trkpt lat="43.12285" lon="-0.49125">
        <ele>333.71</ele>
        <time>2012-03-04T09:34:09Z</time>
      </trkpt>
      <trkpt lat="43.12279" lon="-0.49135">
        <ele>330.35</ele>
        <time>2012-03-04T09:34:11Z</time>
      </trkpt>
      <trkpt lat="43.12271" lon="-0.49147">
        <ele>326.5</ele>
        <time>2012-03-04T09:34:14Z</time>
      </trkpt>
      <trkpt lat="43.12265" lon="-0.49162">
        <ele>323.14</ele>
        <time>2012-03-04T09:34:18Z</time>
      </trkpt>
      <trkpt lat="43.12265" lon="-0.49167">
        <ele>321.22</ele>
        <time>2012-03-04T09:34:19Z</time>
      </trkpt>
      <trkpt lat="43.12267" lon="-0.49172">
        <ele>320.74</ele>
        <time>2012-03-04T09:34:20Z</time>
      </trkpt>
      <trkpt lat="43.1227" lon="-0.4918">
        <ele>319.3</ele>
        <time>2012-03-04T09:34:22Z</time>
      </trkpt>
      <trkpt lat="43.12271" lon="-0.49191">
        <ele>316.41</ele>
        <time>2012-03-04T09:34:26Z</time>
      </trkpt>
      <trkpt lat="43.12271" lon="-0.49193">
        <ele>316.41</ele>
        <time>2012-03-04T09:34:27Z</time>
      </trkpt>
      <trkpt lat="43.12264" lon="-0.49203">
        <ele>312.57</ele>
        <time>2012-03-04T09:34:32Z</time>
      </trkpt>
      <trkpt lat="43.12262" lon="-0.49205">
        <ele>311.6</ele>
        <time>2012-03-04T09:34:36Z</time>
      </trkpt>
      <trkpt lat="43.12263" lon="-0.49207">
        <ele>311.12</ele>
        <time>2012-03-04T09:34:44Z</time>
      </trkpt>
      <trkpt lat="43.1226" lon="-0.49209">
        <ele>311.12</ele>
        <time>2012-03-04T09:34:49Z</time>
      </trkpt>
      <trkpt lat="43.1225" lon="-0.49207">
        <ele>309.2</ele>
        <time>2012-03-04T09:34:53Z</time>
      </trkpt>
      <trkpt lat="43.12246" lon="-0.49218">
        <ele>306.8</ele>
        <time>2012-03-04T09:34:59Z</time>
      </trkpt>
      <trkpt lat="43.12246" lon="-0.49219">
        <ele>306.8</ele>
        <time>2012-03-04T09:35:01Z</time>
      </trkpt>
      <trkpt lat="43.12247" lon="-0.49221">
        <ele>307.28</ele>
        <time>2012-03-04T09:35:03Z</time>
      </trkpt>
      <trkpt lat="43.12248" lon="-0.49239">
        <ele>307.28</ele>
        <time>2012-03-04T09:35:09Z</time>
      </trkpt>
      <trkpt lat="43.12247" lon="-0.49264">
        <ele>307.28</ele>
        <time>2012-03-04T09:35:15Z</time>
      </trkpt>
      <trkpt lat="43.1225" lon="-0.49279">
        <ele>305.84</ele>
        <time>2012-03-04T09:35:20Z</time>
      </trkpt>
      <trkpt lat="43.12248" lon="-0.49282">
        <ele>305.84</ele>
        <time>2012-03-04T09:35:23Z</time>
      </trkpt>
      <trkpt lat="43.12244" lon="-0.49289">
        <ele>305.84</ele>
        <time>2012-03-04T09:35:27Z</time>
      </trkpt>
      <trkpt lat="43.12248" lon="-0.49315">
        <ele>305.36</ele>
        <time>2012-03-04T09:35:33Z</time>
      </trkpt>
      <trkpt lat="43.12251" lon="-0.49349">
        <ele>305.84</ele>
        <time>2012-03-04T09:35:39Z</time>
      </trkpt>
      <trkpt lat="43.12253" lon="-0.49372">
        <ele>305.84</ele>
        <time>2012-03-04T09:35:43Z</time>
      </trkpt>
      <trkpt lat="43.12262" lon="-0.49419">
        <ele>304.88</ele>
        <time>2012-03-04T09:35:50Z</time>
      </trkpt>
      <trkpt lat="43.12266" lon="-0.49444">
        <ele>304.88</ele>
        <time>2012-03-04T09:35:54Z</time>
      </trkpt>
      <trkpt lat="43.12269" lon="-0.49457">
        <ele>304.88</ele>
        <time>2012-03-04T09:35:56Z</time>
      </trkpt>
      <trkpt lat="43.12271" lon="-0.49464">
        <ele>304.88</ele>
        <time>2012-03-04T09:35:57Z</time>
      </trkpt>
      <trkpt lat="43.12276" lon="-0.49479">
        <ele>304.39</ele>
        <time>2012-03-04T09:35:59Z</time>
      </trkpt>
      <trkpt lat="43.12278" lon="-0.49486">
        <ele>304.39</ele>
        <time>2012-03-04T09:36:00Z</time>
      </trkpt>
      <trkpt lat="43.12282" lon="-0.495">
        <ele>304.88</ele>
        <time>2012-03-04T09:36:02Z</time>
      </trkpt>
      <trkpt lat="43.12285" lon="-0.49507">
        <ele>303.91</ele>
        <time>2012-03-04T09:36:03Z</time>
      </trkpt>
      <trkpt lat="43.12291" lon="-0.49526">
        <ele>304.39</ele>
        <time>2012-03-04T09:36:06Z</time>
      </trkpt>
      <trkpt lat="43.12291" lon="-0.49532">
        <ele>303.91</ele>
        <time>2012-03-04T09:36:07Z</time>
      </trkpt>
      <trkpt lat="43.12293" lon="-0.49553">
        <ele>302.95</ele>
        <time>2012-03-04T09:36:11Z</time>
      </trkpt>
      <trkpt lat="43.12298" lon="-0.49586">
        <ele>300.07</ele>
        <time>2012-03-04T09:36:17Z</time>
      </trkpt>
      <trkpt lat="43.12303" lon="-0.49601">
        <ele>298.63</ele>
        <time>2012-03-04T09:36:20Z</time>
      </trkpt>
      <trkpt lat="43.12298" lon="-0.49624">
        <ele>299.11</ele>
        <time>2012-03-04T09:36:25Z</time>
      </trkpt>
      <trkpt lat="43.12289" lon="-0.49647">
        <ele>299.11</ele>
        <time>2012-03-04T09:36:31Z</time>
      </trkpt>
      <trkpt lat="43.1228" lon="-0.49645">
        <ele>300.07</ele>
        <time>2012-03-04T09:36:37Z</time>
      </trkpt>
      <trkpt lat="43.12273" lon="-0.49636">
        <ele>301.99</ele>
        <time>2012-03-04T09:36:43Z</time>
      </trkpt>
      <trkpt lat="43.12266" lon="-0.4963">
        <ele>303.91</ele>
        <time>2012-03-04T09:36:47Z</time>
      </trkpt>
      <trkpt lat="43.12263" lon="-0.49626">
        <ele>303.91</ele>
        <time>2012-03-04T09:36:49Z</time>
      </trkpt>
      <trkpt lat="43.12261" lon="-0.49624">
        <ele>303.91</ele>
        <time>2012-03-04T09:36:51Z</time>
      </trkpt>
      <trkpt lat="43.12252" lon="-0.49617">
        <ele>305.36</ele>
        <time>2012-03-04T09:36:58Z</time>
      </trkpt>
      <trkpt lat="43.12241" lon="-0.49604">
        <ele>307.76</ele>
        <time>2012-03-04T09:37:06Z</time>
      </trkpt>
      <trkpt lat="43.12231" lon="-0.49595">
        <ele>311.12</ele>
        <time>2012-03-04T09:37:13Z</time>
      </trkpt>
      <trkpt lat="43.12231" lon="-0.49594">
        <ele>311.6</ele>
        <time>2012-03-04T09:37:14Z</time>
      </trkpt>
      <trkpt lat="43.12222" lon="-0.49589">
        <ele>312.57</ele>
        <time>2012-03-04T09:37:20Z</time>
      </trkpt>
      <trkpt lat="43.12214" lon="-0.49584">
        <ele>314.01</ele>
        <time>2012-03-04T09:37:25Z</time>
      </trkpt>
      <trkpt lat="43.12202" lon="-0.49582">
        <ele>316.41</ele>
        <time>2012-03-04T09:37:32Z</time>
      </trkpt>
      <trkpt lat="43.122" lon="-0.49589">
        <ele>317.85</ele>
        <time>2012-03-04T09:37:37Z</time>
      </trkpt>
      <trkpt lat="43.12197" lon="-0.49604">
        <ele>319.78</ele>
        <time>2012-03-04T09:37:45Z</time>
      </trkpt>
      <trkpt lat="43.12196" lon="-0.49605">
        <ele>319.78</ele>
        <time>2012-03-04T09:37:46Z</time>
      </trkpt>
      <trkpt lat="43.12185" lon="-0.49618">
        <ele>321.7</ele>
        <time>2012-03-04T09:37:56Z</time>
      </trkpt>
      <trkpt lat="43.12178" lon="-0.49627">
        <ele>324.1</ele>
        <time>2012-03-04T09:38:05Z</time>
      </trkpt>
      <trkpt lat="43.12175" lon="-0.49629">
        <ele>324.58</ele>
        <time>2012-03-04T09:38:12Z</time>
      </trkpt>
      <trkpt lat="43.12174" lon="-0.49628">
        <ele>324.1</ele>
        <time>2012-03-04T09:38:16Z</time>
      </trkpt>
      <trkpt lat="43.12171" lon="-0.49634">
        <ele>325.54</ele>
        <time>2012-03-04T09:38:25Z</time>
      </trkpt>
      <trkpt lat="43.1217" lon="-0.49634">
        <ele>325.06</ele>
        <time>2012-03-04T09:38:30Z</time>
      </trkpt>
      <trkpt lat="43.1217" lon="-0.49634">
        <ele>325.54</ele>
        <time>2012-03-04T09:38:38Z</time>
      </trkpt>
      <trkpt lat="43.1217" lon="-0.49634">
        <ele>325.06</ele>
        <time>2012-03-04T09:38:43Z</time>
      </trkpt>
      <trkpt lat="43.12169" lon="-0.49634">
        <ele>325.06</ele>
        <time>2012-03-04T09:38:44Z</time>
      </trkpt>
      <trkpt lat="43.12148" lon="-0.49637">
        <ele>325.54</ele>
        <time>2012-03-04T09:38:52Z</time>
      </trkpt>
      <trkpt lat="43.12118" lon="-0.49648">
        <ele>326.02</ele>
        <time>2012-03-04T09:39:01Z</time>
      </trkpt>
      <trkpt lat="43.1211" lon="-0.49652">
        <ele>326.02</ele>
        <time>2012-03-04T09:39:03Z</time>
      </trkpt>
      <trkpt lat="43.12106" lon="-0.49654">
        <ele>326.02</ele>
        <time>2012-03-04T09:39:04Z</time>
      </trkpt>
      <trkpt lat="43.12101" lon="-0.49654">
        <ele>326.02</ele>
        <time>2012-03-04T09:39:05Z</time>
      </trkpt>
      <trkpt lat="43.12096" lon="-0.49654">
        <ele>326.5</ele>
        <time>2012-03-04T09:39:06Z</time>
      </trkpt>
      <trkpt lat="43.12092" lon="-0.49653">
        <ele>326.5</ele>
        <time>2012-03-04T09:39:07Z</time>
      </trkpt>
      <trkpt lat="43.12087" lon="-0.4965">
        <ele>326.02</ele>
        <time>2012-03-04T09:39:08Z</time>
      </trkpt>
      <trkpt lat="43.12083" lon="-0.49646">
        <ele>326.5</ele>
        <time>2012-03-04T09:39:09Z</time>
      </trkpt>
      <trkpt lat="43.12079" lon="-0.49641">
        <ele>325.54</ele>
        <time>2012-03-04T09:39:10Z</time>
      </trkpt>
      <trkpt lat="43.12077" lon="-0.49635">
        <ele>326.02</ele>
        <time>2012-03-04T09:39:11Z</time>
      </trkpt>
      <trkpt lat="43.12075" lon="-0.49628">
        <ele>326.02</ele>
        <time>2012-03-04T09:39:12Z</time>
      </trkpt>
      <trkpt lat="43.12075" lon="-0.49621">
        <ele>326.02</ele>
        <time>2012-03-04T09:39:13Z</time>
      </trkpt>
      <trkpt lat="43.12075" lon="-0.49613">
        <ele>326.02</ele>
        <time>2012-03-04T09:39:14Z</time>
      </trkpt>
      <trkpt lat="43.12076" lon="-0.49607">
        <ele>326.02</ele>
        <time>2012-03-04T09:39:15Z</time>
      </trkpt>
      <trkpt lat="43.12077" lon="-0.496">
        <ele>326.02</ele>
        <time>2012-03-04T09:39:16Z</time>
      </trkpt>
      <trkpt lat="43.12079" lon="-0.49593">
        <ele>326.02</ele>
        <time>2012-03-04T09:39:17Z</time>
      </trkpt>
      <trkpt lat="43.12081" lon="-0.49587">
        <ele>326.02</ele>
        <time>2012-03-04T09:39:18Z</time>
      </trkpt>
      <trkpt lat="43.12093" lon="-0.49556">
        <ele>326.5</ele>
        <time>2012-03-04T09:39:23Z</time>
      </trkpt>
      <trkpt lat="43.12094" lon="-0.49549">
        <ele>326.02</ele>
        <time>2012-03-04T09:39:24Z</time>
      </trkpt>
      <trkpt lat="43.12095" lon="-0.49542">
        <ele>326.5</ele>
        <time>2012-03-04T09:39:25Z</time>
      </trkpt>
      <trkpt lat="43.12094" lon="-0.49535">
        <ele>326.5</ele>
        <time>2012-03-04T09:39:26Z</time>
      </trkpt>
      <trkpt lat="43.12091" lon="-0.49528">
        <ele>326.5</ele>
        <time>2012-03-04T09:39:27Z</time>
      </trkpt>
      <trkpt lat="43.12088" lon="-0.49522">
        <ele>326.5</ele>
        <time>2012-03-04T09:39:28Z</time>
      </trkpt>
      <trkpt lat="43.12085" lon="-0.49517">
        <ele>326.99</ele>
        <time>2012-03-04T09:39:29Z</time>
      </trkpt>
      <trkpt lat="43.12082" lon="-0.49511">
        <ele>327.47</ele>
        <time>2012-03-04T09:39:30Z</time>
      </trkpt>
      <trkpt lat="43.12078" lon="-0.49507">
        <ele>327.47</ele>
        <time>2012-03-04T09:39:31Z</time>
      </trkpt>
      <trkpt lat="43.12073" lon="-0.49502">
        <ele>327.95</ele>
        <time>2012-03-04T09:39:32Z</time>
      </trkpt>
      <trkpt lat="43.12069" lon="-0.49496">
        <ele>327.47</ele>
        <time>2012-03-04T09:39:33Z</time>
      </trkpt>
      <trkpt lat="43.12066" lon="-0.49489">
        <ele>327.95</ele>
        <time>2012-03-04T09:39:34Z</time>
      </trkpt>
      <trkpt lat="43.12064" lon="-0.49482">
        <ele>327.95</ele>
        <time>2012-03-04T09:39:35Z</time>
      </trkpt>
      <trkpt lat="43.12062" lon="-0.49474">
        <ele>327.95</ele>
        <time>2012-03-04T09:39:36Z</time>
      </trkpt>
      <trkpt lat="43.12061" lon="-0.49466">
        <ele>327.95</ele>
        <time>2012-03-04T09:39:37Z</time>
      </trkpt>
      <trkpt lat="43.12062" lon="-0.49459">
        <ele>327.95</ele>
        <time>2012-03-04T09:39:38Z</time>
      </trkpt>
      <trkpt lat="43.12064" lon="-0.49451">
        <ele>328.43</ele>
        <time>2012-03-04T09:39:39Z</time>
      </trkpt>
      <trkpt lat="43.12066" lon="-0.49444">
        <ele>328.43</ele>
        <time>2012-03-04T09:39:40Z</time>
      </trkpt>
      <trkpt lat="43.12069" lon="-0.49438">
        <ele>328.43</ele>
        <time>2012-03-04T09:39:41Z</time>
      </trkpt>
      <trkpt lat="43.12078" lon="-0.49411">
        <ele>328.91</ele>
        <time>2012-03-04T09:39:45Z</time>
      </trkpt>
      <trkpt lat="43.12078" lon="-0.49403">
        <ele>328.91</ele>
        <time>2012-03-04T09:39:46Z</time>
      </trkpt>
      <trkpt lat="43.12078" lon="-0.49395">
        <ele>328.91</ele>
        <time>2012-03-04T09:39:47Z</time>
      </trkpt>
      <trkpt lat="43.12077" lon="-0.49388">
        <ele>328.91</ele>
        <time>2012-03-04T09:39:48Z</time>
      </trkpt>
      <trkpt lat="43.12076" lon="-0.4938">
        <ele>328.91</ele>
        <time>2012-03-04T09:39:49Z</time>
      </trkpt>
      <trkpt lat="43.12075" lon="-0.49373">
        <ele>329.39</ele>
        <time>2012-03-04T09:39:50Z</time>
      </trkpt>
      <trkpt lat="43.1206" lon="-0.49301">
        <ele>331.31</ele>
        <time>2012-03-04T09:40:01Z</time>
      </trkpt>
      <trkpt lat="43.12058" lon="-0.49295">
        <ele>331.31</ele>
        <time>2012-03-04T09:40:02Z</time>
      </trkpt>
      <trkpt lat="43.12054" lon="-0.49284">
        <ele>331.31</ele>
        <time>2012-03-04T09:40:04Z</time>
      </trkpt>
      <trkpt lat="43.12052" lon="-0.49279">
        <ele>332.27</ele>
        <time>2012-03-04T09:40:05Z</time>
      </trkpt>
      <trkpt lat="43.12049" lon="-0.49273">
        <ele>331.79</ele>
        <time>2012-03-04T09:40:06Z</time>
      </trkpt>
      <trkpt lat="43.1204" lon="-0.49258">
        <ele>332.27</ele>
        <time>2012-03-04T09:40:09Z</time>
      </trkpt>
      <trkpt lat="43.1203" lon="-0.4923">
        <ele>333.71</ele>
        <time>2012-03-04T09:40:14Z</time>
      </trkpt>
      <trkpt lat="43.12029" lon="-0.49218">
        <ele>333.71</ele>
        <time>2012-03-04T09:40:16Z</time>
      </trkpt>
      <trkpt lat="43.12026" lon="-0.49193">
        <ele>334.2</ele>
        <time>2012-03-04T09:40:20Z</time>
      </trkpt>
      <trkpt lat="43.1202" lon="-0.49169">
        <ele>334.2</ele>
        <time>2012-03-04T09:40:24Z</time>
      </trkpt>
      <trkpt lat="43.12018" lon="-0.49163">
        <ele>334.2</ele>
        <time>2012-03-04T09:40:25Z</time>
      </trkpt>
      <trkpt lat="43.12012" lon="-0.49154">
        <ele>335.16</ele>
        <time>2012-03-04T09:40:27Z</time>
      </trkpt>
      <trkpt lat="43.12005" lon="-0.49146">
        <ele>335.64</ele>
        <time>2012-03-04T09:40:29Z</time>
      </trkpt>
      <trkpt lat="43.12001" lon="-0.49143">
        <ele>335.64</ele>
        <time>2012-03-04T09:40:30Z</time>
      </trkpt>
      <trkpt lat="43.11998" lon="-0.49141">
        <ele>335.64</ele>
        <time>2012-03-04T09:40:31Z</time>
      </trkpt>
      <trkpt lat="43.11994" lon="-0.49139">
        <ele>335.64</ele>
        <time>2012-03-04T09:40:32Z</time>
      </trkpt>
      <trkpt lat="43.1199" lon="-0.49137">
        <ele>335.64</ele>
        <time>2012-03-04T09:40:33Z</time>
      </trkpt>
      <trkpt lat="43.11985" lon="-0.49136">
        <ele>336.12</ele>
        <time>2012-03-04T09:40:34Z</time>
      </trkpt>
      <trkpt lat="43.11981" lon="-0.49136">
        <ele>336.12</ele>
        <time>2012-03-04T09:40:35Z</time>
      </trkpt>
      <trkpt lat="43.11977" lon="-0.49136">
        <ele>336.12</ele>
        <time>2012-03-04T09:40:36Z</time>
      </trkpt>
      <trkpt lat="43.11973" lon="-0.49136">
        <ele>336.6</ele>
        <time>2012-03-04T09:40:37Z</time>
      </trkpt>
      <trkpt lat="43.11965" lon="-0.49139">
        <ele>336.6</ele>
        <time>2012-03-04T09:40:39Z</time>
      </trkpt>
      <trkpt lat="43.11943" lon="-0.49151">
        <ele>337.56</ele>
        <time>2012-03-04T09:40:45Z</time>
      </trkpt>
      <trkpt lat="43.11914" lon="-0.49165">
        <ele>338.04</ele>
        <time>2012-03-04T09:40:53Z</time>
      </trkpt>
      <trkpt lat="43.1191" lon="-0.49165">
        <ele>338.04</ele>
        <time>2012-03-04T09:40:54Z</time>
      </trkpt>
      <trkpt lat="43.11906" lon="-0.49164">
        <ele>338.04</ele>
        <time>2012-03-04T09:40:55Z</time>
      </trkpt>
      <trkpt lat="43.11902" lon="-0.49162">
        <ele>338.52</ele>
        <time>2012-03-04T09:40:56Z</time>
      </trkpt>
      <trkpt lat="43.11898" lon="-0.4916">
        <ele>339</ele>
        <time>2012-03-04T09:40:57Z</time>
      </trkpt>
      <trkpt lat="43.11887" lon="-0.49158">
        <ele>339</ele>
        <time>2012-03-04T09:41:00Z</time>
      </trkpt>
      <trkpt lat="43.11885" lon="-0.4916">
        <ele>339</ele>
        <time>2012-03-04T09:41:01Z</time>
      </trkpt>
      <trkpt lat="43.11883" lon="-0.49163">
        <ele>339</ele>
        <time>2012-03-04T09:41:02Z</time>
      </trkpt>
      <trkpt lat="43.11881" lon="-0.49167">
        <ele>339.48</ele>
        <time>2012-03-04T09:41:03Z</time>
      </trkpt>
      <trkpt lat="43.1188" lon="-0.4917">
        <ele>339.96</ele>
        <time>2012-03-04T09:41:04Z</time>
      </trkpt>
      <trkpt lat="43.1187" lon="-0.49185">
        <ele>341.89</ele>
        <time>2012-03-04T09:41:10Z</time>
      </trkpt>
      <trkpt lat="43.11856" lon="-0.49201">
        <ele>343.33</ele>
        <time>2012-03-04T09:41:17Z</time>
      </trkpt>
      <trkpt lat="43.11843" lon="-0.49217">
        <ele>345.73</ele>
        <time>2012-03-04T09:41:26Z</time>
      </trkpt>
      <trkpt lat="43.1183" lon="-0.49233">
        <ele>347.65</ele>
        <time>2012-03-04T09:41:36Z</time>
      </trkpt>
      <trkpt lat="43.11818" lon="-0.49246">
        <ele>349.58</ele>
        <time>2012-03-04T09:41:45Z</time>
      </trkpt>
      <trkpt lat="43.11808" lon="-0.49259">
        <ele>351.98</ele>
        <time>2012-03-04T09:41:54Z</time>
      </trkpt>
      <trkpt lat="43.11797" lon="-0.49273">
        <ele>354.86</ele>
        <time>2012-03-04T09:42:04Z</time>
      </trkpt>
      <trkpt lat="43.11785" lon="-0.49289">
        <ele>357.75</ele>
        <time>2012-03-04T09:42:15Z</time>
      </trkpt>
      <trkpt lat="43.11774" lon="-0.493">
        <ele>360.63</ele>
        <time>2012-03-04T09:42:25Z</time>
      </trkpt>
      <trkpt lat="43.11762" lon="-0.49308">
        <ele>363.04</ele>
        <time>2012-03-04T09:42:35Z</time>
      </trkpt>
      <trkpt lat="43.1175" lon="-0.49308">
        <ele>365.92</ele>
        <time>2012-03-04T09:42:44Z</time>
      </trkpt>
      <trkpt lat="43.11736" lon="-0.493">
        <ele>369.28</ele>
        <time>2012-03-04T09:42:56Z</time>
      </trkpt>
      <trkpt lat="43.11725" lon="-0.49293">
        <ele>371.69</ele>
        <time>2012-03-04T09:43:06Z</time>
      </trkpt>
      <trkpt lat="43.11716" lon="-0.49288">
        <ele>374.09</ele>
        <time>2012-03-04T09:43:15Z</time>
      </trkpt>
      <trkpt lat="43.11704" lon="-0.4928">
        <ele>376.97</ele>
        <time>2012-03-04T09:43:26Z</time>
      </trkpt>
      <trkpt lat="43.11691" lon="-0.49271">
        <ele>379.86</ele>
        <time>2012-03-04T09:43:37Z</time>
      </trkpt>
      <trkpt lat="43.11679" lon="-0.49263">
        <ele>381.78</ele>
        <time>2012-03-04T09:43:47Z</time>
      </trkpt>
      <trkpt lat="43.11664" lon="-0.49257">
        <ele>382.74</ele>
        <time>2012-03-04T09:43:57Z</time>
      </trkpt>
      <trkpt lat="43.11648" lon="-0.4926">
        <ele>383.7</ele>
        <time>2012-03-04T09:44:04Z</time>
      </trkpt>
      <trkpt lat="43.11625" lon="-0.49269">
        <ele>384.18</ele>
        <time>2012-03-04T09:44:13Z</time>
      </trkpt>
      <trkpt lat="43.11608" lon="-0.49276">
        <ele>384.66</ele>
        <time>2012-03-04T09:44:20Z</time>
      </trkpt>
      <trkpt lat="43.1159" lon="-0.49281">
        <ele>386.11</ele>
        <time>2012-03-04T09:44:27Z</time>
      </trkpt>
      <trkpt lat="43.11574" lon="-0.49276">
        <ele>387.55</ele>
        <time>2012-03-04T09:44:34Z</time>
      </trkpt>
      <trkpt lat="43.11572" lon="-0.49273">
        <ele>387.55</ele>
        <time>2012-03-04T09:44:35Z</time>
      </trkpt>
      <trkpt lat="43.11571" lon="-0.4927">
        <ele>388.03</ele>
        <time>2012-03-04T09:44:36Z</time>
      </trkpt>
      <trkpt lat="43.11571" lon="-0.49268">
        <ele>387.55</ele>
        <time>2012-03-04T09:44:37Z</time>
      </trkpt>
      <trkpt lat="43.1157" lon="-0.49265">
        <ele>388.51</ele>
        <time>2012-03-04T09:44:38Z</time>
      </trkpt>
      <trkpt lat="43.1157" lon="-0.49263">
        <ele>388.51</ele>
        <time>2012-03-04T09:44:39Z</time>
      </trkpt>
      <trkpt lat="43.1156" lon="-0.49237">
        <ele>391.39</ele>
        <time>2012-03-04T09:44:49Z</time>
      </trkpt>
      <trkpt lat="43.11548" lon="-0.49228">
        <ele>393.8</ele>
        <time>2012-03-04T09:44:56Z</time>
      </trkpt>
      <trkpt lat="43.1153" lon="-0.49221">
        <ele>394.76</ele>
        <time>2012-03-04T09:45:05Z</time>
      </trkpt>
      <trkpt lat="43.11507" lon="-0.49221">
        <ele>395.24</ele>
        <time>2012-03-04T09:45:13Z</time>
      </trkpt>
      <trkpt lat="43.11475" lon="-0.4923">
        <ele>394.76</ele>
        <time>2012-03-04T09:45:21Z</time>
      </trkpt>
      <trkpt lat="43.11463" lon="-0.49234">
        <ele>393.8</ele>
        <time>2012-03-04T09:45:23Z</time>
      </trkpt>
      <trkpt lat="43.11458" lon="-0.49235">
        <ele>393.8</ele>
        <time>2012-03-04T09:45:24Z</time>
      </trkpt>
      <trkpt lat="43.11453" lon="-0.49234">
        <ele>393.32</ele>
        <time>2012-03-04T09:45:25Z</time>
      </trkpt>
      <trkpt lat="43.11448" lon="-0.49231">
        <ele>393.32</ele>
        <time>2012-03-04T09:45:26Z</time>
      </trkpt>
      <trkpt lat="43.11444" lon="-0.49227">
        <ele>393.8</ele>
        <time>2012-03-04T09:45:27Z</time>
      </trkpt>
      <trkpt lat="43.11442" lon="-0.49221">
        <ele>393.32</ele>
        <time>2012-03-04T09:45:28Z</time>
      </trkpt>
      <trkpt lat="43.11439" lon="-0.49214">
        <ele>393.8</ele>
        <time>2012-03-04T09:45:29Z</time>
      </trkpt>
      <trkpt lat="43.11437" lon="-0.49208">
        <ele>394.28</ele>
        <time>2012-03-04T09:45:30Z</time>
      </trkpt>
      <trkpt lat="43.11434" lon="-0.49203">
        <ele>394.28</ele>
        <time>2012-03-04T09:45:31Z</time>
      </trkpt>
      <trkpt lat="43.11429" lon="-0.49193">
        <ele>394.76</ele>
        <time>2012-03-04T09:45:33Z</time>
      </trkpt>
      <trkpt lat="43.11425" lon="-0.49191">
        <ele>394.76</ele>
        <time>2012-03-04T09:45:34Z</time>
      </trkpt>
      <trkpt lat="43.11414" lon="-0.49185">
        <ele>395.72</ele>
        <time>2012-03-04T09:45:37Z</time>
      </trkpt>
      <trkpt lat="43.1141" lon="-0.49183">
        <ele>396.2</ele>
        <time>2012-03-04T09:45:38Z</time>
      </trkpt>
      <trkpt lat="43.1138" lon="-0.49164">
        <ele>397.64</ele>
        <time>2012-03-04T09:45:46Z</time>
      </trkpt>
      <trkpt lat="43.11368" lon="-0.49154">
        <ele>397.64</ele>
        <time>2012-03-04T09:45:49Z</time>
      </trkpt>
      <trkpt lat="43.11364" lon="-0.49153">
        <ele>397.64</ele>
        <time>2012-03-04T09:45:50Z</time>
      </trkpt>
      <trkpt lat="43.1136" lon="-0.49151">
        <ele>397.64</ele>
        <time>2012-03-04T09:45:51Z</time>
      </trkpt>
      <trkpt lat="43.11355" lon="-0.49151">
        <ele>397.64</ele>
        <time>2012-03-04T09:45:52Z</time>
      </trkpt>
      <trkpt lat="43.11351" lon="-0.49151">
        <ele>397.64</ele>
        <time>2012-03-04T09:45:53Z</time>
      </trkpt>
      <trkpt lat="43.11346" lon="-0.49152">
        <ele>397.64</ele>
        <time>2012-03-04T09:45:54Z</time>
      </trkpt>
      <trkpt lat="43.11342" lon="-0.49154">
        <ele>397.16</ele>
        <time>2012-03-04T09:45:55Z</time>
      </trkpt>
      <trkpt lat="43.11338" lon="-0.49156">
        <ele>397.64</ele>
        <time>2012-03-04T09:45:56Z</time>
      </trkpt>
      <trkpt lat="43.1133" lon="-0.4916">
        <ele>397.64</ele>
        <time>2012-03-04T09:45:58Z</time>
      </trkpt>
      <trkpt lat="43.11308" lon="-0.49162">
        <ele>399.08</ele>
        <time>2012-03-04T09:46:04Z</time>
      </trkpt>
      <trkpt lat="43.11293" lon="-0.49153">
        <ele>401.01</ele>
        <time>2012-03-04T09:46:11Z</time>
      </trkpt>
      <trkpt lat="43.11272" lon="-0.49147">
        <ele>402.45</ele>
        <time>2012-03-04T09:46:18Z</time>
      </trkpt>
      <trkpt lat="43.11255" lon="-0.49149">
        <ele>404.37</ele>
        <time>2012-03-04T09:46:24Z</time>
      </trkpt>
      <trkpt lat="43.1123" lon="-0.49154">
        <ele>402.45</ele>
        <time>2012-03-04T09:46:30Z</time>
      </trkpt>
      <trkpt lat="43.11204" lon="-0.49156">
        <ele>401.01</ele>
        <time>2012-03-04T09:46:34Z</time>
      </trkpt>
      <trkpt lat="43.11196" lon="-0.49155">
        <ele>400.05</ele>
        <time>2012-03-04T09:46:35Z</time>
      </trkpt>
      <trkpt lat="43.11188" lon="-0.49151">
        <ele>399.57</ele>
        <time>2012-03-04T09:46:36Z</time>
      </trkpt>
      <trkpt lat="43.11179" lon="-0.49147">
        <ele>399.08</ele>
        <time>2012-03-04T09:46:37Z</time>
      </trkpt>
      <trkpt lat="43.1117" lon="-0.49144">
        <ele>398.12</ele>
        <time>2012-03-04T09:46:38Z</time>
      </trkpt>
      <trkpt lat="43.11162" lon="-0.49142">
        <ele>398.12</ele>
        <time>2012-03-04T09:46:39Z</time>
      </trkpt>
      <trkpt lat="43.11154" lon="-0.49142">
        <ele>398.12</ele>
        <time>2012-03-04T09:46:40Z</time>
      </trkpt>
      <trkpt lat="43.11147" lon="-0.49144">
        <ele>398.12</ele>
        <time>2012-03-04T09:46:41Z</time>
      </trkpt>
      <trkpt lat="43.1114" lon="-0.49146">
        <ele>398.6</ele>
        <time>2012-03-04T09:46:42Z</time>
      </trkpt>
      <trkpt lat="43.11134" lon="-0.49148">
        <ele>398.6</ele>
        <time>2012-03-04T09:46:43Z</time>
      </trkpt>
      <trkpt lat="43.11128" lon="-0.49148">
        <ele>399.08</ele>
        <time>2012-03-04T09:46:44Z</time>
      </trkpt>
      <trkpt lat="43.11123" lon="-0.49148">
        <ele>398.6</ele>
        <time>2012-03-04T09:46:45Z</time>
      </trkpt>
      <trkpt lat="43.11117" lon="-0.49147">
        <ele>398.6</ele>
        <time>2012-03-04T09:46:46Z</time>
      </trkpt>
      <trkpt lat="43.11111" lon="-0.49146">
        <ele>398.12</ele>
        <time>2012-03-04T09:46:47Z</time>
      </trkpt>
      <trkpt lat="43.11104" lon="-0.49144">
        <ele>397.16</ele>
        <time>2012-03-04T09:46:48Z</time>
      </trkpt>
      <trkpt lat="43.11098" lon="-0.4914">
        <ele>396.68</ele>
        <time>2012-03-04T09:46:49Z</time>
      </trkpt>
      <trkpt lat="43.11093" lon="-0.49133">
        <ele>396.2</ele>
        <time>2012-03-04T09:46:50Z</time>
      </trkpt>
      <trkpt lat="43.11089" lon="-0.49125">
        <ele>394.28</ele>
        <time>2012-03-04T09:46:51Z</time>
      </trkpt>
      <trkpt lat="43.11087" lon="-0.49116">
        <ele>393.32</ele>
        <time>2012-03-04T09:46:52Z</time>
      </trkpt>
      <trkpt lat="43.11084" lon="-0.49109">
        <ele>392.36</ele>
        <time>2012-03-04T09:46:53Z</time>
      </trkpt>
      <trkpt lat="43.1108" lon="-0.49103">
        <ele>390.91</ele>
        <time>2012-03-04T09:46:54Z</time>
      </trkpt>
      <trkpt lat="43.11073" lon="-0.49098">
        <ele>390.43</ele>
        <time>2012-03-04T09:46:55Z</time>
      </trkpt>
      <trkpt lat="43.11067" lon="-0.49096">
        <ele>389.47</ele>
        <time>2012-03-04T09:46:56Z</time>
      </trkpt>
      <trkpt lat="43.11061" lon="-0.49092">
        <ele>388.51</ele>
        <time>2012-03-04T09:46:57Z</time>
      </trkpt>
      <trkpt lat="43.11056" lon="-0.49087">
        <ele>387.55</ele>
        <time>2012-03-04T09:46:58Z</time>
      </trkpt>
      <trkpt lat="43.11052" lon="-0.49079">
        <ele>386.59</ele>
        <time>2012-03-04T09:46:59Z</time>
      </trkpt>
      <trkpt lat="43.1105" lon="-0.49068">
        <ele>385.63</ele>
        <time>2012-03-04T09:47:00Z</time>
      </trkpt>
      <trkpt lat="43.11049" lon="-0.49057">
        <ele>384.66</ele>
        <time>2012-03-04T09:47:01Z</time>
      </trkpt>
      <trkpt lat="43.11045" lon="-0.49033">
        <ele>383.7</ele>
        <time>2012-03-04T09:47:03Z</time>
      </trkpt>
      <trkpt lat="43.11041" lon="-0.49022">
        <ele>383.22</ele>
        <time>2012-03-04T09:47:04Z</time>
      </trkpt>
      <trkpt lat="43.11036" lon="-0.49013">
        <ele>383.22</ele>
        <time>2012-03-04T09:47:05Z</time>
      </trkpt>
      <trkpt lat="43.11031" lon="-0.49006">
        <ele>383.22</ele>
        <time>2012-03-04T09:47:06Z</time>
      </trkpt>
      <trkpt lat="43.11025" lon="-0.49">
        <ele>382.74</ele>
        <time>2012-03-04T09:47:07Z</time>
      </trkpt>
      <trkpt lat="43.10992" lon="-0.48968">
        <ele>383.22</ele>
        <time>2012-03-04T09:47:14Z</time>
      </trkpt>
      <trkpt lat="43.10988" lon="-0.48965">
        <ele>383.7</ele>
        <time>2012-03-04T09:47:15Z</time>
      </trkpt>
      <trkpt lat="43.10976" lon="-0.48957">
        <ele>384.66</ele>
        <time>2012-03-04T09:47:18Z</time>
      </trkpt>
      <trkpt lat="43.10973" lon="-0.48953">
        <ele>385.63</ele>
        <time>2012-03-04T09:47:19Z</time>
      </trkpt>
      <trkpt lat="43.10971" lon="-0.4895">
        <ele>385.63</ele>
        <time>2012-03-04T09:47:20Z</time>
      </trkpt>
      <trkpt lat="43.10962" lon="-0.48925">
        <ele>387.07</ele>
        <time>2012-03-04T09:47:26Z</time>
      </trkpt>
      <trkpt lat="43.1095" lon="-0.48894">
        <ele>388.03</ele>
        <time>2012-03-04T09:47:33Z</time>
      </trkpt>
      <trkpt lat="43.10946" lon="-0.4889">
        <ele>388.03</ele>
        <time>2012-03-04T09:47:34Z</time>
      </trkpt>
      <trkpt lat="43.1094" lon="-0.4888">
        <ele>387.55</ele>
        <time>2012-03-04T09:47:36Z</time>
      </trkpt>
      <trkpt lat="43.10937" lon="-0.48876">
        <ele>388.03</ele>
        <time>2012-03-04T09:47:37Z</time>
      </trkpt>
      <trkpt lat="43.10935" lon="-0.48872">
        <ele>388.51</ele>
        <time>2012-03-04T09:47:38Z</time>
      </trkpt>
      <trkpt lat="43.10934" lon="-0.48869">
        <ele>388.51</ele>
        <time>2012-03-04T09:47:39Z</time>
      </trkpt>
      <trkpt lat="43.10933" lon="-0.48865">
        <ele>388.99</ele>
        <time>2012-03-04T09:47:40Z</time>
      </trkpt>
      <trkpt lat="43.10933" lon="-0.48859">
        <ele>388.99</ele>
        <time>2012-03-04T09:47:41Z</time>
      </trkpt>
      <trkpt lat="43.10931" lon="-0.48847">
        <ele>389.95</ele>
        <time>2012-03-04T09:47:44Z</time>
      </trkpt>
      <trkpt lat="43.10929" lon="-0.48832">
        <ele>390.91</ele>
        <time>2012-03-04T09:47:48Z</time>
      </trkpt>
      <trkpt lat="43.10927" lon="-0.48831">
        <ele>390.91</ele>
        <time>2012-03-04T09:47:49Z</time>
      </trkpt>
      <trkpt lat="43.10923" lon="-0.48839">
        <ele>391.87</ele>
        <time>2012-03-04T09:47:52Z</time>
      </trkpt>
      <trkpt lat="43.1092" lon="-0.48864">
        <ele>392.84</ele>
        <time>2012-03-04T09:48:00Z</time>
      </trkpt>
      <trkpt lat="43.10914" lon="-0.48881">
        <ele>394.28</ele>
        <time>2012-03-04T09:48:07Z</time>
      </trkpt>
      <trkpt lat="43.10909" lon="-0.48895">
        <ele>395.24</ele>
        <time>2012-03-04T09:48:13Z</time>
      </trkpt>
      <trkpt lat="43.10909" lon="-0.48898">
        <ele>395.72</ele>
        <time>2012-03-04T09:48:15Z</time>
      </trkpt>
      <trkpt lat="43.10915" lon="-0.48911">
        <ele>398.12</ele>
        <time>2012-03-04T09:48:24Z</time>
      </trkpt>
      <trkpt lat="43.1092" lon="-0.48921">
        <ele>399.57</ele>
        <time>2012-03-04T09:48:31Z</time>
      </trkpt>
      <trkpt lat="43.10922" lon="-0.48925">
        <ele>399.57</ele>
        <time>2012-03-04T09:48:33Z</time>
      </trkpt>
      <trkpt lat="43.10927" lon="-0.48941">
        <ele>401.01</ele>
        <time>2012-03-04T09:48:40Z</time>
      </trkpt>
      <trkpt lat="43.10932" lon="-0.48952">
        <ele>402.45</ele>
        <time>2012-03-04T09:48:47Z</time>
      </trkpt>
      <trkpt lat="43.10939" lon="-0.48963">
        <ele>403.41</ele>
        <time>2012-03-04T09:48:54Z</time>
      </trkpt>
      <trkpt lat="43.1094" lon="-0.48966">
        <ele>404.37</ele>
        <time>2012-03-04T09:48:56Z</time>
      </trkpt>
      <trkpt lat="43.10947" lon="-0.4898">
        <ele>405.33</ele>
        <time>2012-03-04T09:49:03Z</time>
      </trkpt>
      <trkpt lat="43.10952" lon="-0.48989">
        <ele>406.77</ele>
        <time>2012-03-04T09:49:08Z</time>
      </trkpt>
      <trkpt lat="43.10963" lon="-0.49">
        <ele>407.74</ele>
        <time>2012-03-04T09:49:15Z</time>
      </trkpt>
      <trkpt lat="43.1097" lon="-0.4901">
        <ele>408.7</ele>
        <time>2012-03-04T09:49:21Z</time>
      </trkpt>
      <trkpt lat="43.10974" lon="-0.49012">
        <ele>409.18</ele>
        <time>2012-03-04T09:49:24Z</time>
      </trkpt>
      <trkpt lat="43.10986" lon="-0.4903">
        <ele>411.1</ele>
        <time>2012-03-04T09:49:34Z</time>
      </trkpt>
      <trkpt lat="43.10989" lon="-0.49039">
        <ele>412.06</ele>
        <time>2012-03-04T09:49:38Z</time>
      </trkpt>
      <trkpt lat="43.10989" lon="-0.49055">
        <ele>413.5</ele>
        <time>2012-03-04T09:49:45Z</time>
      </trkpt>
      <trkpt lat="43.10987" lon="-0.4906">
        <ele>413.5</ele>
        <time>2012-03-04T09:49:47Z</time>
      </trkpt>
      <trkpt lat="43.10981" lon="-0.49081">
        <ele>415.91</ele>
        <time>2012-03-04T09:49:57Z</time>
      </trkpt>
      <trkpt lat="43.10978" lon="-0.49095">
        <ele>417.35</ele>
        <time>2012-03-04T09:50:04Z</time>
      </trkpt>
      <trkpt lat="43.10975" lon="-0.49111">
        <ele>418.79</ele>
        <time>2012-03-04T09:50:11Z</time>
      </trkpt>
      <trkpt lat="43.10967" lon="-0.49129">
        <ele>419.75</ele>
        <time>2012-03-04T09:50:20Z</time>
      </trkpt>
      <trkpt lat="43.10962" lon="-0.49148">
        <ele>421.68</ele>
        <time>2012-03-04T09:50:29Z</time>
      </trkpt>
      <trkpt lat="43.10958" lon="-0.49153">
        <ele>422.64</ele>
        <time>2012-03-04T09:50:32Z</time>
      </trkpt>
      <trkpt lat="43.10949" lon="-0.49175">
        <ele>424.56</ele>
        <time>2012-03-04T09:50:43Z</time>
      </trkpt>
      <trkpt lat="43.10941" lon="-0.49191">
        <ele>425.52</ele>
        <time>2012-03-04T09:50:51Z</time>
      </trkpt>
      <trkpt lat="43.10938" lon="-0.49196">
        <ele>426.48</ele>
        <time>2012-03-04T09:50:54Z</time>
      </trkpt>
      <trkpt lat="43.10927" lon="-0.49204">
        <ele>428.4</ele>
        <time>2012-03-04T09:51:03Z</time>
      </trkpt>
      <trkpt lat="43.10925" lon="-0.49206">
        <ele>429.37</ele>
        <time>2012-03-04T09:51:06Z</time>
      </trkpt>
      <trkpt lat="43.10919" lon="-0.4921">
        <ele>430.33</ele>
        <time>2012-03-04T09:51:13Z</time>
      </trkpt>
      <trkpt lat="43.10912" lon="-0.49214">
        <ele>431.29</ele>
        <time>2012-03-04T09:51:20Z</time>
      </trkpt>
      <trkpt lat="43.109" lon="-0.49221">
        <ele>432.73</ele>
        <time>2012-03-04T09:51:29Z</time>
      </trkpt>
      <trkpt lat="43.10895" lon="-0.49226">
        <ele>434.65</ele>
        <time>2012-03-04T09:51:35Z</time>
      </trkpt>
      <trkpt lat="43.10894" lon="-0.49227">
        <ele>434.65</ele>
        <time>2012-03-04T09:51:36Z</time>
      </trkpt>
      <trkpt lat="43.10877" lon="-0.49236">
        <ele>436.1</ele>
        <time>2012-03-04T09:51:44Z</time>
      </trkpt>
      <trkpt lat="43.10864" lon="-0.49234">
        <ele>436.58</ele>
        <time>2012-03-04T09:51:46Z</time>
      </trkpt>
      <trkpt lat="43.10855" lon="-0.49235">
        <ele>437.06</ele>
        <time>2012-03-04T09:51:49Z</time>
      </trkpt>
      <trkpt lat="43.10855" lon="-0.49239">
        <ele>437.54</ele>
        <time>2012-03-04T09:51:52Z</time>
      </trkpt>
      <trkpt lat="43.10864" lon="-0.49243">
        <ele>438.02</ele>
        <time>2012-03-04T09:51:59Z</time>
      </trkpt>
      <trkpt lat="43.10875" lon="-0.49253">
        <ele>438.98</ele>
        <time>2012-03-04T09:52:07Z</time>
      </trkpt>
      <trkpt lat="43.10884" lon="-0.49267">
        <ele>440.9</ele>
        <time>2012-03-04T09:52:14Z</time>
      </trkpt>
      <trkpt lat="43.10889" lon="-0.49276">
        <ele>441.38</ele>
        <time>2012-03-04T09:52:18Z</time>
      </trkpt>
      <trkpt lat="43.10893" lon="-0.49306">
        <ele>443.79</ele>
        <time>2012-03-04T09:52:29Z</time>
      </trkpt>
      <trkpt lat="43.10891" lon="-0.49326">
        <ele>445.23</ele>
        <time>2012-03-04T09:52:37Z</time>
      </trkpt>
      <trkpt lat="43.1089" lon="-0.49334">
        <ele>446.19</ele>
        <time>2012-03-04T09:52:40Z</time>
      </trkpt>
      <trkpt lat="43.10885" lon="-0.4935">
        <ele>447.15</ele>
        <time>2012-03-04T09:52:47Z</time>
      </trkpt>
      <trkpt lat="43.10877" lon="-0.49366">
        <ele>449.07</ele>
        <time>2012-03-04T09:52:55Z</time>
      </trkpt>
      <trkpt lat="43.10876" lon="-0.49369">
        <ele>449.55</ele>
        <time>2012-03-04T09:52:57Z</time>
      </trkpt>
      <trkpt lat="43.1087" lon="-0.49384">
        <ele>451</ele>
        <time>2012-03-04T09:53:05Z</time>
      </trkpt>
      <trkpt lat="43.10866" lon="-0.49394">
        <ele>451.96</ele>
        <time>2012-03-04T09:53:11Z</time>
      </trkpt>
      <trkpt lat="43.10863" lon="-0.49402">
        <ele>452.92</ele>
        <time>2012-03-04T09:53:16Z</time>
      </trkpt>
      <trkpt lat="43.10851" lon="-0.49415">
        <ele>454.84</ele>
        <time>2012-03-04T09:53:25Z</time>
      </trkpt>
      <trkpt lat="43.10842" lon="-0.49425">
        <ele>456.28</ele>
        <time>2012-03-04T09:53:32Z</time>
      </trkpt>
      <trkpt lat="43.10834" lon="-0.49436">
        <ele>457.72</ele>
        <time>2012-03-04T09:53:39Z</time>
      </trkpt>
      <trkpt lat="43.10823" lon="-0.49446">
        <ele>459.17</ele>
        <time>2012-03-04T09:53:46Z</time>
      </trkpt>
      <trkpt lat="43.10819" lon="-0.49457">
        <ele>461.09</ele>
        <time>2012-03-04T09:53:54Z</time>
      </trkpt>
      <trkpt lat="43.10818" lon="-0.49469">
        <ele>462.05</ele>
        <time>2012-03-04T09:54:01Z</time>
      </trkpt>
      <trkpt lat="43.10813" lon="-0.49489">
        <ele>463.01</ele>
        <time>2012-03-04T09:54:10Z</time>
      </trkpt>
      <trkpt lat="43.10805" lon="-0.49509">
        <ele>465.42</ele>
        <time>2012-03-04T09:54:19Z</time>
      </trkpt>
      <trkpt lat="43.10801" lon="-0.49524">
        <ele>466.38</ele>
        <time>2012-03-04T09:54:26Z</time>
      </trkpt>
      <trkpt lat="43.108" lon="-0.49535">
        <ele>467.82</ele>
        <time>2012-03-04T09:54:31Z</time>
      </trkpt>
      <trkpt lat="43.10796" lon="-0.49552">
        <ele>468.78</ele>
        <time>2012-03-04T09:54:39Z</time>
      </trkpt>
      <trkpt lat="43.10796" lon="-0.49562">
        <ele>469.74</ele>
        <time>2012-03-04T09:54:43Z</time>
      </trkpt>
      <trkpt lat="43.10792" lon="-0.49574">
        <ele>470.7</ele>
        <time>2012-03-04T09:54:49Z</time>
      </trkpt>
      <trkpt lat="43.10789" lon="-0.49595">
        <ele>472.63</ele>
        <time>2012-03-04T09:54:58Z</time>
      </trkpt>
      <trkpt lat="43.10788" lon="-0.49609">
        <ele>474.07</ele>
        <time>2012-03-04T09:55:05Z</time>
      </trkpt>
      <trkpt lat="43.10786" lon="-0.49622">
        <ele>475.51</ele>
        <time>2012-03-04T09:55:11Z</time>
      </trkpt>
      <trkpt lat="43.10787" lon="-0.49638">
        <ele>476.47</ele>
        <time>2012-03-04T09:55:19Z</time>
      </trkpt>
      <trkpt lat="43.1079" lon="-0.49648">
        <ele>477.91</ele>
        <time>2012-03-04T09:55:26Z</time>
      </trkpt>
      <trkpt lat="43.10795" lon="-0.49662">
        <ele>478.87</ele>
        <time>2012-03-04T09:55:33Z</time>
      </trkpt>
      <trkpt lat="43.10797" lon="-0.49668">
        <ele>478.87</ele>
        <time>2012-03-04T09:55:35Z</time>
      </trkpt>
      <trkpt lat="43.108" lon="-0.49673">
        <ele>479.84</ele>
        <time>2012-03-04T09:55:38Z</time>
      </trkpt>
      <trkpt lat="43.10805" lon="-0.49678">
        <ele>479.84</ele>
        <time>2012-03-04T09:55:43Z</time>
      </trkpt>
      <trkpt lat="43.10821" lon="-0.49678">
        <ele>480.32</ele>
        <time>2012-03-04T09:55:51Z</time>
      </trkpt>
      <trkpt lat="43.10831" lon="-0.49673">
        <ele>481.76</ele>
        <time>2012-03-04T09:55:58Z</time>
      </trkpt>
      <trkpt lat="43.10839" lon="-0.49659">
        <ele>483.68</ele>
        <time>2012-03-04T09:56:06Z</time>
      </trkpt>
      <trkpt lat="43.10853" lon="-0.49641">
        <ele>485.6</ele>
        <time>2012-03-04T09:56:15Z</time>
      </trkpt>
      <trkpt lat="43.10865" lon="-0.49628">
        <ele>486.56</ele>
        <time>2012-03-04T09:56:23Z</time>
      </trkpt>
      <trkpt lat="43.10879" lon="-0.49623">
        <ele>488.01</ele>
        <time>2012-03-04T09:56:30Z</time>
      </trkpt>
      <trkpt lat="43.10892" lon="-0.49629">
        <ele>490.41</ele>
        <time>2012-03-04T09:56:39Z</time>
      </trkpt>
      <trkpt lat="43.10902" lon="-0.49645">
        <ele>491.85</ele>
        <time>2012-03-04T09:56:47Z</time>
      </trkpt>
      <trkpt lat="43.10909" lon="-0.4966">
        <ele>493.77</ele>
        <time>2012-03-04T09:56:55Z</time>
      </trkpt>
      <trkpt lat="43.10915" lon="-0.49672">
        <ele>494.74</ele>
        <time>2012-03-04T09:57:02Z</time>
      </trkpt>
      <trkpt lat="43.10922" lon="-0.4968">
        <ele>496.18</ele>
        <time>2012-03-04T09:57:09Z</time>
      </trkpt>
      <trkpt lat="43.10924" lon="-0.49682">
        <ele>496.66</ele>
        <time>2012-03-04T09:57:11Z</time>
      </trkpt>
      <trkpt lat="43.10931" lon="-0.49687">
        <ele>497.62</ele>
        <time>2012-03-04T09:57:16Z</time>
      </trkpt>
      <trkpt lat="43.10939" lon="-0.49691">
        <ele>499.06</ele>
        <time>2012-03-04T09:57:22Z</time>
      </trkpt>
      <trkpt lat="43.10949" lon="-0.49696">
        <ele>500.5</ele>
        <time>2012-03-04T09:57:29Z</time>
      </trkpt>
      <trkpt lat="43.10962" lon="-0.49706">
        <ele>501.46</ele>
        <time>2012-03-04T09:57:37Z</time>
      </trkpt>
      <trkpt lat="43.10978" lon="-0.4971">
        <ele>501.95</ele>
        <time>2012-03-04T09:57:45Z</time>
      </trkpt>
      <trkpt lat="43.10991" lon="-0.49704">
        <ele>502.43</ele>
        <time>2012-03-04T09:57:52Z</time>
      </trkpt>
      <trkpt lat="43.10999" lon="-0.49687">
        <ele>503.39</ele>
        <time>2012-03-04T09:58:00Z</time>
      </trkpt>
      <trkpt lat="43.11004" lon="-0.49683">
        <ele>504.35</ele>
        <time>2012-03-04T09:58:03Z</time>
      </trkpt>
      <trkpt lat="43.11019" lon="-0.49677">
        <ele>505.31</ele>
        <time>2012-03-04T09:58:11Z</time>
      </trkpt>
      <trkpt lat="43.11024" lon="-0.49674">
        <ele>505.31</ele>
        <time>2012-03-04T09:58:14Z</time>
      </trkpt>
      <trkpt lat="43.1103" lon="-0.4966">
        <ele>507.23</ele>
        <time>2012-03-04T09:58:22Z</time>
      </trkpt>
      <trkpt lat="43.11032" lon="-0.49641">
        <ele>508.67</ele>
        <time>2012-03-04T09:58:30Z</time>
      </trkpt>
      <trkpt lat="43.11036" lon="-0.49626">
        <ele>510.12</ele>
        <time>2012-03-04T09:58:36Z</time>
      </trkpt>
      <trkpt lat="43.1104" lon="-0.49608">
        <ele>512.04</ele>
        <time>2012-03-04T09:58:43Z</time>
      </trkpt>
      <trkpt lat="43.1104" lon="-0.4959">
        <ele>513.48</ele>
        <time>2012-03-04T09:58:50Z</time>
      </trkpt>
      <trkpt lat="43.11044" lon="-0.4957">
        <ele>514.92</ele>
        <time>2012-03-04T09:58:58Z</time>
      </trkpt>
      <trkpt lat="43.11049" lon="-0.49555">
        <ele>515.88</ele>
        <time>2012-03-04T09:59:04Z</time>
      </trkpt>
      <trkpt lat="43.11053" lon="-0.49553">
        <ele>516.37</ele>
        <time>2012-03-04T09:59:06Z</time>
      </trkpt>
      <trkpt lat="43.11057" lon="-0.49563">
        <ele>517.33</ele>
        <time>2012-03-04T09:59:13Z</time>
      </trkpt>
      <trkpt lat="43.11055" lon="-0.49579">
        <ele>518.77</ele>
        <time>2012-03-04T09:59:20Z</time>
      </trkpt>
      <trkpt lat="43.11056" lon="-0.49593">
        <ele>519.73</ele>
        <time>2012-03-04T09:59:26Z</time>
      </trkpt>
      <trkpt lat="43.11057" lon="-0.49602">
        <ele>520.69</ele>
        <time>2012-03-04T09:59:30Z</time>
      </trkpt>
      <trkpt lat="43.1106" lon="-0.49622">
        <ele>522.13</ele>
        <time>2012-03-04T09:59:38Z</time>
      </trkpt>
      <trkpt lat="43.11063" lon="-0.49645">
        <ele>523.58</ele>
        <time>2012-03-04T09:59:47Z</time>
      </trkpt>
      <trkpt lat="43.11065" lon="-0.49662">
        <ele>525.02</ele>
        <time>2012-03-04T09:59:54Z</time>
      </trkpt>
      <trkpt lat="43.11066" lon="-0.4967">
        <ele>525.98</ele>
        <time>2012-03-04T09:59:57Z</time>
      </trkpt>
      <trkpt lat="43.11066" lon="-0.49687">
        <ele>527.42</ele>
        <time>2012-03-04T10:00:05Z</time>
      </trkpt>
      <trkpt lat="43.11065" lon="-0.49698">
        <ele>527.9</ele>
        <time>2012-03-04T10:00:09Z</time>
      </trkpt>
      <trkpt lat="43.11062" lon="-0.4972">
        <ele>529.34</ele>
        <time>2012-03-04T10:00:17Z</time>
      </trkpt>
      <trkpt lat="43.11055" lon="-0.49738">
        <ele>530.79</ele>
        <time>2012-03-04T10:00:25Z</time>
      </trkpt>
      <trkpt lat="43.11049" lon="-0.49757">
        <ele>532.71</ele>
        <time>2012-03-04T10:00:34Z</time>
      </trkpt>
      <trkpt lat="43.11045" lon="-0.49774">
        <ele>534.15</ele>
        <time>2012-03-04T10:00:42Z</time>
      </trkpt>
      <trkpt lat="43.11037" lon="-0.49801">
        <ele>536.55</ele>
        <time>2012-03-04T10:00:54Z</time>
      </trkpt>
      <trkpt lat="43.11032" lon="-0.49822">
        <ele>537.99</ele>
        <time>2012-03-04T10:01:03Z</time>
      </trkpt>
      <trkpt lat="43.11024" lon="-0.49842">
        <ele>539.44</ele>
        <time>2012-03-04T10:01:12Z</time>
      </trkpt>
      <trkpt lat="43.11022" lon="-0.49846">
        <ele>539.44</ele>
        <time>2012-03-04T10:01:14Z</time>
      </trkpt>
      <trkpt lat="43.11003" lon="-0.49872">
        <ele>540.4</ele>
        <time>2012-03-04T10:01:27Z</time>
      </trkpt>
      <trkpt lat="43.10989" lon="-0.4988">
        <ele>541.84</ele>
        <time>2012-03-04T10:01:35Z</time>
      </trkpt>
      <trkpt lat="43.10974" lon="-0.49888">
        <ele>544.24</ele>
        <time>2012-03-04T10:01:44Z</time>
      </trkpt>
      <trkpt lat="43.10958" lon="-0.49896">
        <ele>547.61</ele>
        <time>2012-03-04T10:01:55Z</time>
      </trkpt>
      <trkpt lat="43.10945" lon="-0.49908">
        <ele>549.05</ele>
        <time>2012-03-04T10:02:03Z</time>
      </trkpt>
      <trkpt lat="43.10922" lon="-0.49921">
        <ele>547.61</ele>
        <time>2012-03-04T10:02:11Z</time>
      </trkpt>
      <trkpt lat="43.1089" lon="-0.49931">
        <ele>546.17</ele>
        <time>2012-03-04T10:02:17Z</time>
      </trkpt>
      <trkpt lat="43.10884" lon="-0.49932">
        <ele>545.2</ele>
        <time>2012-03-04T10:02:18Z</time>
      </trkpt>
      <trkpt lat="43.10871" lon="-0.49934">
        <ele>544.72</ele>
        <time>2012-03-04T10:02:20Z</time>
      </trkpt>
      <trkpt lat="43.10866" lon="-0.49935">
        <ele>544.72</ele>
        <time>2012-03-04T10:02:21Z</time>
      </trkpt>
      <trkpt lat="43.1086" lon="-0.49938">
        <ele>544.72</ele>
        <time>2012-03-04T10:02:22Z</time>
      </trkpt>
      <trkpt lat="43.10856" lon="-0.49941">
        <ele>544.72</ele>
        <time>2012-03-04T10:02:23Z</time>
      </trkpt>
      <trkpt lat="43.10852" lon="-0.49945">
        <ele>544.24</ele>
        <time>2012-03-04T10:02:24Z</time>
      </trkpt>
      <trkpt lat="43.1085" lon="-0.49949">
        <ele>544.24</ele>
        <time>2012-03-04T10:02:25Z</time>
      </trkpt>
      <trkpt lat="43.10848" lon="-0.49952">
        <ele>544.72</ele>
        <time>2012-03-04T10:02:26Z</time>
      </trkpt>
      <trkpt lat="43.10847" lon="-0.49956">
        <ele>544.24</ele>
        <time>2012-03-04T10:02:27Z</time>
      </trkpt>
      <trkpt lat="43.1084" lon="-0.49978">
        <ele>546.17</ele>
        <time>2012-03-04T10:02:35Z</time>
      </trkpt>
      <trkpt lat="43.10833" lon="-0.50004">
        <ele>548.09</ele>
        <time>2012-03-04T10:02:45Z</time>
      </trkpt>
      <trkpt lat="43.1083" lon="-0.50024">
        <ele>550.01</ele>
        <time>2012-03-04T10:02:53Z</time>
      </trkpt>
      <trkpt lat="43.10826" lon="-0.50043">
        <ele>551.45</ele>
        <time>2012-03-04T10:03:01Z</time>
      </trkpt>
      <trkpt lat="43.1082" lon="-0.50068">
        <ele>553.86</ele>
        <time>2012-03-04T10:03:11Z</time>
      </trkpt>
      <trkpt lat="43.10812" lon="-0.50094">
        <ele>555.78</ele>
        <time>2012-03-04T10:03:22Z</time>
      </trkpt>
      <trkpt lat="43.10804" lon="-0.50112">
        <ele>557.7</ele>
        <time>2012-03-04T10:03:31Z</time>
      </trkpt>
      <trkpt lat="43.10797" lon="-0.50134">
        <ele>559.62</ele>
        <time>2012-03-04T10:03:41Z</time>
      </trkpt>
      <trkpt lat="43.1079" lon="-0.5015">
        <ele>561.07</ele>
        <time>2012-03-04T10:03:49Z</time>
      </trkpt>
      <trkpt lat="43.10783" lon="-0.50167">
        <ele>562.51</ele>
        <time>2012-03-04T10:03:58Z</time>
      </trkpt>
      <trkpt lat="43.10775" lon="-0.50183">
        <ele>563.95</ele>
        <time>2012-03-04T10:04:07Z</time>
      </trkpt>
      <trkpt lat="43.10768" lon="-0.50197">
        <ele>565.39</ele>
        <time>2012-03-04T10:04:16Z</time>
      </trkpt>
      <trkpt lat="43.10761" lon="-0.50211">
        <ele>567.32</ele>
        <time>2012-03-04T10:04:25Z</time>
      </trkpt>
      <trkpt lat="43.10752" lon="-0.5023">
        <ele>569.72</ele>
        <time>2012-03-04T10:04:35Z</time>
      </trkpt>
      <trkpt lat="43.10745" lon="-0.50237">
        <ele>570.2</ele>
        <time>2012-03-04T10:04:41Z</time>
      </trkpt>
      <trkpt lat="43.10738" lon="-0.50252">
        <ele>571.64</ele>
        <time>2012-03-04T10:04:49Z</time>
      </trkpt>
      <trkpt lat="43.10733" lon="-0.50262">
        <ele>573.08</ele>
        <time>2012-03-04T10:04:55Z</time>
      </trkpt>
      <trkpt lat="43.10725" lon="-0.50275">
        <ele>574.04</ele>
        <time>2012-03-04T10:05:02Z</time>
      </trkpt>
      <trkpt lat="43.10721" lon="-0.5029">
        <ele>575.49</ele>
        <time>2012-03-04T10:05:09Z</time>
      </trkpt>
      <trkpt lat="43.10713" lon="-0.50298">
        <ele>576.45</ele>
        <time>2012-03-04T10:05:16Z</time>
      </trkpt>
      <trkpt lat="43.1071" lon="-0.50293">
        <ele>577.41</ele>
        <time>2012-03-04T10:05:20Z</time>
      </trkpt>
      <trkpt lat="43.10709" lon="-0.50289">
        <ele>577.89</ele>
        <time>2012-03-04T10:05:23Z</time>
      </trkpt>
      <trkpt lat="43.1071" lon="-0.50273">
        <ele>579.81</ele>
        <time>2012-03-04T10:05:32Z</time>
      </trkpt>
      <trkpt lat="43.10715" lon="-0.50258">
        <ele>580.77</ele>
        <time>2012-03-04T10:05:39Z</time>
      </trkpt>
      <trkpt lat="43.10717" lon="-0.50243">
        <ele>581.73</ele>
        <time>2012-03-04T10:05:46Z</time>
      </trkpt>
      <trkpt lat="43.10718" lon="-0.50227">
        <ele>583.18</ele>
        <time>2012-03-04T10:05:53Z</time>
      </trkpt>
      <trkpt lat="43.10718" lon="-0.50215">
        <ele>584.14</ele>
        <time>2012-03-04T10:05:59Z</time>
      </trkpt>
      <trkpt lat="43.10716" lon="-0.50206">
        <ele>585.1</ele>
        <time>2012-03-04T10:06:04Z</time>
      </trkpt>
      <trkpt lat="43.10718" lon="-0.50188">
        <ele>586.06</ele>
        <time>2012-03-04T10:06:11Z</time>
      </trkpt>
      <trkpt lat="43.10719" lon="-0.50176">
        <ele>587.98</ele>
        <time>2012-03-04T10:06:17Z</time>
      </trkpt>
      <trkpt lat="43.10717" lon="-0.50157">
        <ele>588.95</ele>
        <time>2012-03-04T10:06:26Z</time>
      </trkpt>
      <trkpt lat="43.10714" lon="-0.50144">
        <ele>590.39</ele>
        <time>2012-03-04T10:06:32Z</time>
      </trkpt>
      <trkpt lat="43.10712" lon="-0.5013">
        <ele>591.83</ele>
        <time>2012-03-04T10:06:38Z</time>
      </trkpt>
      <trkpt lat="43.10706" lon="-0.50111">
        <ele>593.27</ele>
        <time>2012-03-04T10:06:47Z</time>
      </trkpt>
      <trkpt lat="43.10701" lon="-0.50094">
        <ele>594.71</ele>
        <time>2012-03-04T10:06:55Z</time>
      </trkpt>
      <trkpt lat="43.10694" lon="-0.50076">
        <ele>595.67</ele>
        <time>2012-03-04T10:07:04Z</time>
      </trkpt>
      <trkpt lat="43.10686" lon="-0.50059">
        <ele>597.6</ele>
        <time>2012-03-04T10:07:13Z</time>
      </trkpt>
      <trkpt lat="43.10678" lon="-0.50047">
        <ele>599.04</ele>
        <time>2012-03-04T10:07:21Z</time>
      </trkpt>
      <trkpt lat="43.10669" lon="-0.50034">
        <ele>600.96</ele>
        <time>2012-03-04T10:07:30Z</time>
      </trkpt>
      <trkpt lat="43.10655" lon="-0.50024">
        <ele>602.4</ele>
        <time>2012-03-04T10:07:41Z</time>
      </trkpt>
      <trkpt lat="43.10645" lon="-0.50016">
        <ele>604.33</ele>
        <time>2012-03-04T10:07:49Z</time>
      </trkpt>
      <trkpt lat="43.10637" lon="-0.50009">
        <ele>606.25</ele>
        <time>2012-03-04T10:07:56Z</time>
      </trkpt>
      <trkpt lat="43.10631" lon="-0.50006">
        <ele>606.25</ele>
        <time>2012-03-04T10:08:00Z</time>
      </trkpt>
      <trkpt lat="43.10617" lon="-0.49995">
        <ele>607.69</ele>
        <time>2012-03-04T10:08:09Z</time>
      </trkpt>
      <trkpt lat="43.10604" lon="-0.49982">
        <ele>609.13</ele>
        <time>2012-03-04T10:08:18Z</time>
      </trkpt>
      <trkpt lat="43.10601" lon="-0.49981">
        <ele>609.61</ele>
        <time>2012-03-04T10:08:20Z</time>
      </trkpt>
      <trkpt lat="43.10589" lon="-0.4998">
        <ele>611.54</ele>
        <time>2012-03-04T10:08:28Z</time>
      </trkpt>
      <trkpt lat="43.10576" lon="-0.49979">
        <ele>612.98</ele>
        <time>2012-03-04T10:08:36Z</time>
      </trkpt>
      <trkpt lat="43.10574" lon="-0.49979">
        <ele>613.46</ele>
        <time>2012-03-04T10:08:37Z</time>
      </trkpt>
      <trkpt lat="43.10562" lon="-0.49969">
        <ele>614.42</ele>
        <time>2012-03-04T10:08:45Z</time>
      </trkpt>
      <trkpt lat="43.10552" lon="-0.49957">
        <ele>617.3</ele>
        <time>2012-03-04T10:08:53Z</time>
      </trkpt>
      <trkpt lat="43.10539" lon="-0.49951">
        <ele>618.26</ele>
        <time>2012-03-04T10:09:01Z</time>
      </trkpt>
      <trkpt lat="43.1053" lon="-0.49945">
        <ele>619.23</ele>
        <time>2012-03-04T10:09:08Z</time>
      </trkpt>
      <trkpt lat="43.10518" lon="-0.49944">
        <ele>620.19</ele>
        <time>2012-03-04T10:09:15Z</time>
      </trkpt>
      <trkpt lat="43.10512" lon="-0.49944">
        <ele>621.15</ele>
        <time>2012-03-04T10:09:20Z</time>
      </trkpt>
      <trkpt lat="43.10503" lon="-0.49935">
        <ele>622.11</ele>
        <time>2012-03-04T10:09:27Z</time>
      </trkpt>
      <trkpt lat="43.105" lon="-0.49928">
        <ele>623.55</ele>
        <time>2012-03-04T10:09:34Z</time>
      </trkpt>
      <trkpt lat="43.10499" lon="-0.49923">
        <ele>624.03</ele>
        <time>2012-03-04T10:09:38Z</time>
      </trkpt>
      <trkpt lat="43.10499" lon="-0.4991">
        <ele>625.47</ele>
        <time>2012-03-04T10:09:44Z</time>
      </trkpt>
      <trkpt lat="43.10494" lon="-0.49888">
        <ele>626.92</ele>
        <time>2012-03-04T10:09:53Z</time>
      </trkpt>
      <trkpt lat="43.10494" lon="-0.49884">
        <ele>626.92</ele>
        <time>2012-03-04T10:09:55Z</time>
      </trkpt>
      <trkpt lat="43.10494" lon="-0.49863">
        <ele>629.32</ele>
        <time>2012-03-04T10:10:05Z</time>
      </trkpt>
      <trkpt lat="43.10492" lon="-0.49852">
        <ele>630.28</ele>
        <time>2012-03-04T10:10:12Z</time>
      </trkpt>
      <trkpt lat="43.10492" lon="-0.49849">
        <ele>630.76</ele>
        <time>2012-03-04T10:10:14Z</time>
      </trkpt>
      <trkpt lat="43.10491" lon="-0.49832">
        <ele>632.68</ele>
        <time>2012-03-04T10:10:24Z</time>
      </trkpt>
      <trkpt lat="43.10491" lon="-0.49822">
        <ele>633.17</ele>
        <time>2012-03-04T10:10:29Z</time>
      </trkpt>
      <trkpt lat="43.10489" lon="-0.49796">
        <ele>635.57</ele>
        <time>2012-03-04T10:10:38Z</time>
      </trkpt>
      <trkpt lat="43.10485" lon="-0.4978">
        <ele>637.01</ele>
        <time>2012-03-04T10:10:45Z</time>
      </trkpt>
      <trkpt lat="43.10479" lon="-0.49757">
        <ele>638.93</ele>
        <time>2012-03-04T10:10:55Z</time>
      </trkpt>
      <trkpt lat="43.10476" lon="-0.4974">
        <ele>640.38</ele>
        <time>2012-03-04T10:11:03Z</time>
      </trkpt>
      <trkpt lat="43.10476" lon="-0.49728">
        <ele>641.82</ele>
        <time>2012-03-04T10:11:09Z</time>
      </trkpt>
      <trkpt lat="43.10475" lon="-0.49718">
        <ele>641.82</ele>
        <time>2012-03-04T10:11:14Z</time>
      </trkpt>
      <trkpt lat="43.10472" lon="-0.49701">
        <ele>643.74</ele>
        <time>2012-03-04T10:11:23Z</time>
      </trkpt>
      <trkpt lat="43.10472" lon="-0.49685">
        <ele>644.7</ele>
        <time>2012-03-04T10:11:31Z</time>
      </trkpt>
      <trkpt lat="43.10471" lon="-0.49675">
        <ele>645.66</ele>
        <time>2012-03-04T10:11:35Z</time>
      </trkpt>
      <trkpt lat="43.10471" lon="-0.49664">
        <ele>646.62</ele>
        <time>2012-03-04T10:11:40Z</time>
      </trkpt>
      <trkpt lat="43.10473" lon="-0.49648">
        <ele>648.07</ele>
        <time>2012-03-04T10:11:47Z</time>
      </trkpt>
      <trkpt lat="43.1047" lon="-0.49626">
        <ele>649.99</ele>
        <time>2012-03-04T10:11:57Z</time>
      </trkpt>
      <trkpt lat="43.10463" lon="-0.4961">
        <ele>650.95</ele>
        <time>2012-03-04T10:12:06Z</time>
      </trkpt>
      <trkpt lat="43.10459" lon="-0.49592">
        <ele>652.87</ele>
        <time>2012-03-04T10:12:15Z</time>
      </trkpt>
      <trkpt lat="43.10456" lon="-0.49579">
        <ele>654.31</ele>
        <time>2012-03-04T10:12:22Z</time>
      </trkpt>
      <trkpt lat="43.10453" lon="-0.49557">
        <ele>656.24</ele>
        <time>2012-03-04T10:12:32Z</time>
      </trkpt>
      <trkpt lat="43.1045" lon="-0.49545">
        <ele>657.2</ele>
        <time>2012-03-04T10:12:38Z</time>
      </trkpt>
      <trkpt lat="43.10446" lon="-0.49535">
        <ele>658.16</ele>
        <time>2012-03-04T10:12:43Z</time>
      </trkpt>
      <trkpt lat="43.10444" lon="-0.49527">
        <ele>658.64</ele>
        <time>2012-03-04T10:12:47Z</time>
      </trkpt>
      <trkpt lat="43.10441" lon="-0.49513">
        <ele>659.6</ele>
        <time>2012-03-04T10:12:52Z</time>
      </trkpt>
      <trkpt lat="43.10436" lon="-0.49497">
        <ele>661.04</ele>
        <time>2012-03-04T10:13:01Z</time>
      </trkpt>
      <trkpt lat="43.1043" lon="-0.49481">
        <ele>662.01</ele>
        <time>2012-03-04T10:13:08Z</time>
      </trkpt>
      <trkpt lat="43.10427" lon="-0.49463">
        <ele>663.93</ele>
        <time>2012-03-04T10:13:16Z</time>
      </trkpt>
      <trkpt lat="43.10424" lon="-0.49447">
        <ele>664.41</ele>
        <time>2012-03-04T10:13:23Z</time>
      </trkpt>
      <trkpt lat="43.10422" lon="-0.49437">
        <ele>664.89</ele>
        <time>2012-03-04T10:13:27Z</time>
      </trkpt>
      <trkpt lat="43.10416" lon="-0.49432">
        <ele>666.33</ele>
        <time>2012-03-04T10:13:32Z</time>
      </trkpt>
      <trkpt lat="43.10417" lon="-0.49437">
        <ele>667.77</ele>
        <time>2012-03-04T10:13:39Z</time>
      </trkpt>
      <trkpt lat="43.10417" lon="-0.49438">
        <ele>667.29</ele>
        <time>2012-03-04T10:13:40Z</time>
      </trkpt>
      <trkpt lat="43.10418" lon="-0.49455">
        <ele>668.73</ele>
        <time>2012-03-04T10:13:49Z</time>
      </trkpt>
      <trkpt lat="43.10418" lon="-0.4947">
        <ele>669.7</ele>
        <time>2012-03-04T10:13:57Z</time>
      </trkpt>
      <trkpt lat="43.10418" lon="-0.49491">
        <ele>670.66</ele>
        <time>2012-03-04T10:14:06Z</time>
      </trkpt>
      <trkpt lat="43.10416" lon="-0.49505">
        <ele>672.1</ele>
        <time>2012-03-04T10:14:13Z</time>
      </trkpt>
      <trkpt lat="43.10413" lon="-0.49523">
        <ele>674.02</ele>
        <time>2012-03-04T10:14:23Z</time>
      </trkpt>
      <trkpt lat="43.10413" lon="-0.49524">
        <ele>674.5</ele>
        <time>2012-03-04T10:14:24Z</time>
      </trkpt>
      <trkpt lat="43.10412" lon="-0.49527">
        <ele>674.5</ele>
        <time>2012-03-04T10:14:26Z</time>
      </trkpt>
      <trkpt lat="43.10413" lon="-0.49548">
        <ele>675.94</ele>
        <time>2012-03-04T10:14:35Z</time>
      </trkpt>
      <trkpt lat="43.10413" lon="-0.49566">
        <ele>677.87</ele>
        <time>2012-03-04T10:14:43Z</time>
      </trkpt>
      <trkpt lat="43.10413" lon="-0.49571">
        <ele>678.35</ele>
        <time>2012-03-04T10:14:46Z</time>
      </trkpt>
      <trkpt lat="43.10413" lon="-0.49578">
        <ele>678.83</ele>
        <time>2012-03-04T10:14:49Z</time>
      </trkpt>
      <trkpt lat="43.10412" lon="-0.49595">
        <ele>679.79</ele>
        <time>2012-03-04T10:14:56Z</time>
      </trkpt>
      <trkpt lat="43.10409" lon="-0.49611">
        <ele>681.23</ele>
        <time>2012-03-04T10:15:04Z</time>
      </trkpt>
      <trkpt lat="43.10408" lon="-0.49624">
        <ele>682.19</ele>
        <time>2012-03-04T10:15:10Z</time>
      </trkpt>
      <trkpt lat="43.10403" lon="-0.49642">
        <ele>684.12</ele>
        <time>2012-03-04T10:15:19Z</time>
      </trkpt>
      <trkpt lat="43.10398" lon="-0.49653">
        <ele>685.08</ele>
        <time>2012-03-04T10:15:25Z</time>
      </trkpt>
      <trkpt lat="43.10393" lon="-0.49667">
        <ele>686.52</ele>
        <time>2012-03-04T10:15:33Z</time>
      </trkpt>
      <trkpt lat="43.10387" lon="-0.49686">
        <ele>687.96</ele>
        <time>2012-03-04T10:15:42Z</time>
      </trkpt>
      <trkpt lat="43.10384" lon="-0.497">
        <ele>688.44</ele>
        <time>2012-03-04T10:15:49Z</time>
      </trkpt>
      <trkpt lat="43.10381" lon="-0.49714">
        <ele>689.4</ele>
        <time>2012-03-04T10:15:56Z</time>
      </trkpt>
      <trkpt lat="43.10374" lon="-0.49726">
        <ele>689.88</ele>
        <time>2012-03-04T10:16:03Z</time>
      </trkpt>
      <trkpt lat="43.10362" lon="-0.49744">
        <ele>691.33</ele>
        <time>2012-03-04T10:16:13Z</time>
      </trkpt>
      <trkpt lat="43.10351" lon="-0.49752">
        <ele>691.81</ele>
        <time>2012-03-04T10:16:20Z</time>
      </trkpt>
      <trkpt lat="43.10336" lon="-0.49757">
        <ele>692.29</ele>
        <time>2012-03-04T10:16:28Z</time>
      </trkpt>
      <trkpt lat="43.1032" lon="-0.49759">
        <ele>693.73</ele>
        <time>2012-03-04T10:16:36Z</time>
      </trkpt>
      <trkpt lat="43.10303" lon="-0.49758">
        <ele>695.17</ele>
        <time>2012-03-04T10:16:44Z</time>
      </trkpt>
      <trkpt lat="43.10298" lon="-0.49758">
        <ele>695.17</ele>
        <time>2012-03-04T10:16:47Z</time>
      </trkpt>
      <trkpt lat="43.10285" lon="-0.49753">
        <ele>697.09</ele>
        <time>2012-03-04T10:16:55Z</time>
      </trkpt>
      <trkpt lat="43.10273" lon="-0.49755">
        <ele>699.02</ele>
        <time>2012-03-04T10:17:03Z</time>
      </trkpt>
      <trkpt lat="43.10264" lon="-0.49761">
        <ele>700.46</ele>
        <time>2012-03-04T10:17:09Z</time>
      </trkpt>
      <trkpt lat="43.10258" lon="-0.49765">
        <ele>700.94</ele>
        <time>2012-03-04T10:17:14Z</time>
      </trkpt>
      <trkpt lat="43.10256" lon="-0.49768">
        <ele>701.9</ele>
        <time>2012-03-04T10:17:16Z</time>
      </trkpt>
      <trkpt lat="43.10249" lon="-0.49779">
        <ele>702.86</ele>
        <time>2012-03-04T10:17:24Z</time>
      </trkpt>
      <trkpt lat="43.10244" lon="-0.49786">
        <ele>704.3</ele>
        <time>2012-03-04T10:17:29Z</time>
      </trkpt>
      <trkpt lat="43.10234" lon="-0.49797">
        <ele>706.23</ele>
        <time>2012-03-04T10:17:38Z</time>
      </trkpt>
      <trkpt lat="43.10225" lon="-0.498">
        <ele>707.67</ele>
        <time>2012-03-04T10:17:44Z</time>
      </trkpt>
      <trkpt lat="43.10216" lon="-0.49808">
        <ele>709.11</ele>
        <time>2012-03-04T10:17:50Z</time>
      </trkpt>
      <trkpt lat="43.10208" lon="-0.49822">
        <ele>710.07</ele>
        <time>2012-03-04T10:17:58Z</time>
      </trkpt>
      <trkpt lat="43.10197" lon="-0.49833">
        <ele>711.99</ele>
        <time>2012-03-04T10:18:07Z</time>
      </trkpt>
      <trkpt lat="43.10189" lon="-0.49839">
        <ele>712.95</ele>
        <time>2012-03-04T10:18:12Z</time>
      </trkpt>
      <trkpt lat="43.10187" lon="-0.49849">
        <ele>714.4</ele>
        <time>2012-03-04T10:18:17Z</time>
      </trkpt>
      <trkpt lat="43.10184" lon="-0.49864">
        <ele>716.32</ele>
        <time>2012-03-04T10:18:26Z</time>
      </trkpt>
      <trkpt lat="43.10185" lon="-0.49876">
        <ele>717.76</ele>
        <time>2012-03-04T10:18:32Z</time>
      </trkpt>
      <trkpt lat="43.10187" lon="-0.49887">
        <ele>719.2</ele>
        <time>2012-03-04T10:18:40Z</time>
      </trkpt>
      <trkpt lat="43.10191" lon="-0.49902">
        <ele>721.61</ele>
        <time>2012-03-04T10:18:50Z</time>
      </trkpt>
      <trkpt lat="43.10192" lon="-0.49907">
        <ele>722.09</ele>
        <time>2012-03-04T10:18:53Z</time>
      </trkpt>
      <trkpt lat="43.10194" lon="-0.49931">
        <ele>723.53</ele>
        <time>2012-03-04T10:19:04Z</time>
      </trkpt>
      <trkpt lat="43.10199" lon="-0.49957">
        <ele>725.45</ele>
        <time>2012-03-04T10:19:16Z</time>
      </trkpt>
      <trkpt lat="43.102" lon="-0.49963">
        <ele>726.41</ele>
        <time>2012-03-04T10:19:19Z</time>
      </trkpt>
      <trkpt lat="43.10204" lon="-0.49976">
        <ele>727.37</ele>
        <time>2012-03-04T10:19:26Z</time>
      </trkpt>
      <trkpt lat="43.10212" lon="-0.49988">
        <ele>728.82</ele>
        <time>2012-03-04T10:19:35Z</time>
      </trkpt>
      <trkpt lat="43.10216" lon="-0.49997">
        <ele>729.78</ele>
        <time>2012-03-04T10:19:40Z</time>
      </trkpt>
      <trkpt lat="43.10223" lon="-0.50007">
        <ele>730.26</ele>
        <time>2012-03-04T10:19:47Z</time>
      </trkpt>
      <trkpt lat="43.10233" lon="-0.5002">
        <ele>731.22</ele>
        <time>2012-03-04T10:19:56Z</time>
      </trkpt>
      <trkpt lat="43.10233" lon="-0.50019">
        <ele>731.22</ele>
        <time>2012-03-04T10:20:00Z</time>
      </trkpt>
      <trkpt lat="43.10232" lon="-0.50021">
        <ele>731.22</ele>
        <time>2012-03-04T10:20:05Z</time>
      </trkpt>
      <trkpt lat="43.10232" lon="-0.50024">
        <ele>731.22</ele>
        <time>2012-03-04T10:20:12Z</time>
      </trkpt>
      <trkpt lat="43.10235" lon="-0.5003">
        <ele>730.74</ele>
        <time>2012-03-04T10:20:20Z</time>
      </trkpt>
      <trkpt lat="43.10233" lon="-0.50028">
        <ele>730.74</ele>
        <time>2012-03-04T10:20:28Z</time>
      </trkpt>
      <trkpt lat="43.10232" lon="-0.50026">
        <ele>730.74</ele>
        <time>2012-03-04T10:20:36Z</time>
      </trkpt>
      <trkpt lat="43.10233" lon="-0.50025">
        <ele>730.74</ele>
        <time>2012-03-04T10:20:46Z</time>
      </trkpt>
      <trkpt lat="43.10233" lon="-0.50025">
        <ele>730.26</ele>
        <time>2012-03-04T10:20:55Z</time>
      </trkpt>
      <trkpt lat="43.10233" lon="-0.50025">
        <ele>730.74</ele>
        <time>2012-03-04T10:21:04Z</time>
      </trkpt>
      <trkpt lat="43.10233" lon="-0.50025">
        <ele>730.26</ele>
        <time>2012-03-04T10:21:13Z</time>
      </trkpt>
      <trkpt lat="43.10232" lon="-0.50024">
        <ele>729.78</ele>
        <time>2012-03-04T10:21:20Z</time>
      </trkpt>
      <trkpt lat="43.10232" lon="-0.50024">
        <ele>730.26</ele>
        <time>2012-03-04T10:21:29Z</time>
      </trkpt>
      <trkpt lat="43.10232" lon="-0.50025">
        <ele>730.26</ele>
        <time>2012-03-04T10:21:39Z</time>
      </trkpt>
      <trkpt lat="43.10232" lon="-0.50025">
        <ele>730.26</ele>
        <time>2012-03-04T10:21:50Z</time>
      </trkpt>
      <trkpt lat="43.10233" lon="-0.50025">
        <ele>730.26</ele>
        <time>2012-03-04T10:22:00Z</time>
      </trkpt>
      <trkpt lat="43.10233" lon="-0.50025">
        <ele>730.74</ele>
        <time>2012-03-04T10:22:07Z</time>
      </trkpt>
      <trkpt lat="43.10232" lon="-0.50025">
        <ele>730.74</ele>
        <time>2012-03-04T10:22:15Z</time>
      </trkpt>
      <trkpt lat="43.10232" lon="-0.50025">
        <ele>730.74</ele>
        <time>2012-03-04T10:22:27Z</time>
      </trkpt>
      <trkpt lat="43.10232" lon="-0.50025">
        <ele>730.74</ele>
        <time>2012-03-04T10:22:42Z</time>
      </trkpt>
      <trkpt lat="43.10232" lon="-0.50025">
        <ele>731.22</ele>
        <time>2012-03-04T10:22:51Z</time>
      </trkpt>
      <trkpt lat="43.10232" lon="-0.50025">
        <ele>730.26</ele>
        <time>2012-03-04T10:23:02Z</time>
      </trkpt>
      <trkpt lat="43.10232" lon="-0.50025">
        <ele>730.74</ele>
        <time>2012-03-04T10:23:08Z</time>
      </trkpt>
      <trkpt lat="43.10232" lon="-0.50026">
        <ele>731.22</ele>
        <time>2012-03-04T10:23:14Z</time>
      </trkpt>
      <trkpt lat="43.10231" lon="-0.50026">
        <ele>730.74</ele>
        <time>2012-03-04T10:23:23Z</time>
      </trkpt>
      <trkpt lat="43.10231" lon="-0.50025">
        <ele>730.26</ele>
        <time>2012-03-04T10:23:37Z</time>
      </trkpt>
      <trkpt lat="43.1023" lon="-0.50024">
        <ele>730.26</ele>
        <time>2012-03-04T10:23:49Z</time>
      </trkpt>
      <trkpt lat="43.1023" lon="-0.50025">
        <ele>730.74</ele>
        <time>2012-03-04T10:23:58Z</time>
      </trkpt>
      <trkpt lat="43.1023" lon="-0.50026">
        <ele>730.74</ele>
        <time>2012-03-04T10:24:06Z</time>
      </trkpt>
      <trkpt lat="43.1023" lon="-0.50025">
        <ele>730.74</ele>
        <time>2012-03-04T10:24:12Z</time>
      </trkpt>
      <trkpt lat="43.10231" lon="-0.50025">
        <ele>730.74</ele>
        <time>2012-03-04T10:24:17Z</time>
      </trkpt>
      <trkpt lat="43.10232" lon="-0.50023">
        <ele>730.74</ele>
        <time>2012-03-04T10:24:22Z</time>
      </trkpt>
      <trkpt lat="43.10236" lon="-0.50027">
        <ele>731.22</ele>
        <time>2012-03-04T10:24:29Z</time>
      </trkpt>
      <trkpt lat="43.10236" lon="-0.50032">
        <ele>731.7</ele>
        <time>2012-03-04T10:24:34Z</time>
      </trkpt>
      <trkpt lat="43.10242" lon="-0.50044">
        <ele>733.14</ele>
        <time>2012-03-04T10:24:41Z</time>
      </trkpt>
      <trkpt lat="43.10245" lon="-0.50052">
        <ele>733.14</ele>
        <time>2012-03-04T10:24:45Z</time>
      </trkpt>
      <trkpt lat="43.10254" lon="-0.50068">
        <ele>733.62</ele>
        <time>2012-03-04T10:24:53Z</time>
      </trkpt>
      <trkpt lat="43.10263" lon="-0.50089">
        <ele>733.62</ele>
        <time>2012-03-04T10:25:00Z</time>
      </trkpt>
      <trkpt lat="43.10271" lon="-0.50122">
        <ele>733.62</ele>
        <time>2012-03-04T10:25:07Z</time>
      </trkpt>
      <trkpt lat="43.10282" lon="-0.50164">
        <ele>733.14</ele>
        <time>2012-03-04T10:25:16Z</time>
      </trkpt>
      <trkpt lat="43.1029" lon="-0.50195">
        <ele>732.66</ele>
        <time>2012-03-04T10:25:23Z</time>
      </trkpt>
      <trkpt lat="43.10302" lon="-0.50225">
        <ele>732.66</ele>
        <time>2012-03-04T10:25:30Z</time>
      </trkpt>
      <trkpt lat="43.10317" lon="-0.5026">
        <ele>731.7</ele>
        <time>2012-03-04T10:25:38Z</time>
      </trkpt>
      <trkpt lat="43.10333" lon="-0.50298">
        <ele>731.7</ele>
        <time>2012-03-04T10:25:46Z</time>
      </trkpt>
      <trkpt lat="43.10335" lon="-0.50303">
        <ele>731.7</ele>
        <time>2012-03-04T10:25:47Z</time>
      </trkpt>
      <trkpt lat="43.10349" lon="-0.50337">
        <ele>731.7</ele>
        <time>2012-03-04T10:25:54Z</time>
      </trkpt>
      <trkpt lat="43.10357" lon="-0.50362">
        <ele>731.7</ele>
        <time>2012-03-04T10:26:00Z</time>
      </trkpt>
      <trkpt lat="43.10364" lon="-0.50394">
        <ele>731.7</ele>
        <time>2012-03-04T10:26:07Z</time>
      </trkpt>
      <trkpt lat="43.10372" lon="-0.50431">
        <ele>732.18</ele>
        <time>2012-03-04T10:26:14Z</time>
      </trkpt>
      <trkpt lat="43.10378" lon="-0.5046">
        <ele>732.66</ele>
        <time>2012-03-04T10:26:20Z</time>
      </trkpt>
      <trkpt lat="43.10386" lon="-0.50494">
        <ele>731.7</ele>
        <time>2012-03-04T10:26:27Z</time>
      </trkpt>
      <trkpt lat="43.10396" lon="-0.50532">
        <ele>731.22</ele>
        <time>2012-03-04T10:26:34Z</time>
      </trkpt>
      <trkpt lat="43.10408" lon="-0.5057">
        <ele>729.78</ele>
        <time>2012-03-04T10:26:41Z</time>
      </trkpt>
      <trkpt lat="43.10417" lon="-0.50607">
        <ele>728.82</ele>
        <time>2012-03-04T10:26:48Z</time>
      </trkpt>
      <trkpt lat="43.10421" lon="-0.50621">
        <ele>729.3</ele>
        <time>2012-03-04T10:26:50Z</time>
      </trkpt>
      <trkpt lat="43.10432" lon="-0.50656">
        <ele>728.82</ele>
        <time>2012-03-04T10:26:57Z</time>
      </trkpt>
      <trkpt lat="43.10441" lon="-0.50687">
        <ele>727.86</ele>
        <time>2012-03-04T10:27:02Z</time>
      </trkpt>
      <trkpt lat="43.10444" lon="-0.50693">
        <ele>727.37</ele>
        <time>2012-03-04T10:27:03Z</time>
      </trkpt>
      <trkpt lat="43.10446" lon="-0.50699">
        <ele>726.89</ele>
        <time>2012-03-04T10:27:04Z</time>
      </trkpt>
      <trkpt lat="43.10447" lon="-0.50705">
        <ele>726.89</ele>
        <time>2012-03-04T10:27:05Z</time>
      </trkpt>
      <trkpt lat="43.10448" lon="-0.50711">
        <ele>726.41</ele>
        <time>2012-03-04T10:27:06Z</time>
      </trkpt>
      <trkpt lat="43.10448" lon="-0.50717">
        <ele>725.93</ele>
        <time>2012-03-04T10:27:07Z</time>
      </trkpt>
      <trkpt lat="43.10449" lon="-0.50726">
        <ele>726.41</ele>
        <time>2012-03-04T10:27:08Z</time>
      </trkpt>
      <trkpt lat="43.1045" lon="-0.50778">
        <ele>723.05</ele>
        <time>2012-03-04T10:27:13Z</time>
      </trkpt>
      <trkpt lat="43.10448" lon="-0.50813">
        <ele>720.65</ele>
        <time>2012-03-04T10:27:16Z</time>
      </trkpt>
      <trkpt lat="43.10448" lon="-0.50821">
        <ele>720.16</ele>
        <time>2012-03-04T10:27:17Z</time>
      </trkpt>
      <trkpt lat="43.10448" lon="-0.50828">
        <ele>719.68</ele>
        <time>2012-03-04T10:27:18Z</time>
      </trkpt>
      <trkpt lat="43.10452" lon="-0.50847">
        <ele>719.2</ele>
        <time>2012-03-04T10:27:22Z</time>
      </trkpt>
      <trkpt lat="43.10462" lon="-0.50878">
        <ele>717.76</ele>
        <time>2012-03-04T10:27:27Z</time>
      </trkpt>
      <trkpt lat="43.10465" lon="-0.50885">
        <ele>718.24</ele>
        <time>2012-03-04T10:27:28Z</time>
      </trkpt>
      <trkpt lat="43.10468" lon="-0.50892">
        <ele>717.76</ele>
        <time>2012-03-04T10:27:29Z</time>
      </trkpt>
      <trkpt lat="43.1047" lon="-0.50901">
        <ele>717.28</ele>
        <time>2012-03-04T10:27:30Z</time>
      </trkpt>
      <trkpt lat="43.10472" lon="-0.50909">
        <ele>716.32</ele>
        <time>2012-03-04T10:27:31Z</time>
      </trkpt>
      <trkpt lat="43.10472" lon="-0.50916">
        <ele>715.36</ele>
        <time>2012-03-04T10:27:32Z</time>
      </trkpt>
      <trkpt lat="43.10472" lon="-0.50923">
        <ele>714.88</ele>
        <time>2012-03-04T10:27:33Z</time>
      </trkpt>
      <trkpt lat="43.10472" lon="-0.5093">
        <ele>713.92</ele>
        <time>2012-03-04T10:27:34Z</time>
      </trkpt>
      <trkpt lat="43.10473" lon="-0.50953">
        <ele>712.95</ele>
        <time>2012-03-04T10:27:37Z</time>
      </trkpt>
      <trkpt lat="43.10473" lon="-0.50961">
        <ele>711.99</ele>
        <time>2012-03-04T10:27:38Z</time>
      </trkpt>
      <trkpt lat="43.10473" lon="-0.50968">
        <ele>711.03</ele>
        <time>2012-03-04T10:27:39Z</time>
      </trkpt>
      <trkpt lat="43.10474" lon="-0.50977">
        <ele>710.55</ele>
        <time>2012-03-04T10:27:40Z</time>
      </trkpt>
      <trkpt lat="43.10476" lon="-0.50986">
        <ele>709.11</ele>
        <time>2012-03-04T10:27:41Z</time>
      </trkpt>
      <trkpt lat="43.10478" lon="-0.50996">
        <ele>708.15</ele>
        <time>2012-03-04T10:27:42Z</time>
      </trkpt>
      <trkpt lat="43.10482" lon="-0.51007">
        <ele>707.19</ele>
        <time>2012-03-04T10:27:43Z</time>
      </trkpt>
      <trkpt lat="43.10486" lon="-0.51018">
        <ele>706.23</ele>
        <time>2012-03-04T10:27:44Z</time>
      </trkpt>
      <trkpt lat="43.10498" lon="-0.51045">
        <ele>702.86</ele>
        <time>2012-03-04T10:27:47Z</time>
      </trkpt>
      <trkpt lat="43.10502" lon="-0.51051">
        <ele>700.94</ele>
        <time>2012-03-04T10:27:48Z</time>
      </trkpt>
      <trkpt lat="43.10507" lon="-0.51056">
        <ele>700.46</ele>
        <time>2012-03-04T10:27:49Z</time>
      </trkpt>
      <trkpt lat="43.10512" lon="-0.51059">
        <ele>699.5</ele>
        <time>2012-03-04T10:27:50Z</time>
      </trkpt>
      <trkpt lat="43.10519" lon="-0.5106">
        <ele>699.02</ele>
        <time>2012-03-04T10:27:51Z</time>
      </trkpt>
      <trkpt lat="43.10526" lon="-0.5106">
        <ele>698.05</ele>
        <time>2012-03-04T10:27:52Z</time>
      </trkpt>
      <trkpt lat="43.10532" lon="-0.5106">
        <ele>697.57</ele>
        <time>2012-03-04T10:27:53Z</time>
      </trkpt>
      <trkpt lat="43.10538" lon="-0.5106">
        <ele>697.09</ele>
        <time>2012-03-04T10:27:54Z</time>
      </trkpt>
      <trkpt lat="43.10542" lon="-0.51061">
        <ele>696.13</ele>
        <time>2012-03-04T10:27:55Z</time>
      </trkpt>
      <trkpt lat="43.10546" lon="-0.51063">
        <ele>696.13</ele>
        <time>2012-03-04T10:27:56Z</time>
      </trkpt>
      <trkpt lat="43.10548" lon="-0.51067">
        <ele>695.65</ele>
        <time>2012-03-04T10:27:57Z</time>
      </trkpt>
      <trkpt lat="43.1055" lon="-0.51073">
        <ele>695.17</ele>
        <time>2012-03-04T10:27:58Z</time>
      </trkpt>
      <trkpt lat="43.10551" lon="-0.51079">
        <ele>694.69</ele>
        <time>2012-03-04T10:27:59Z</time>
      </trkpt>
      <trkpt lat="43.10553" lon="-0.51086">
        <ele>694.21</ele>
        <time>2012-03-04T10:28:00Z</time>
      </trkpt>
      <trkpt lat="43.10555" lon="-0.51101">
        <ele>692.77</ele>
        <time>2012-03-04T10:28:02Z</time>
      </trkpt>
      <trkpt lat="43.10556" lon="-0.51109">
        <ele>692.77</ele>
        <time>2012-03-04T10:28:03Z</time>
      </trkpt>
      <trkpt lat="43.10563" lon="-0.51136">
        <ele>691.81</ele>
        <time>2012-03-04T10:28:08Z</time>
      </trkpt>
      <trkpt lat="43.10576" lon="-0.51174">
        <ele>690.36</ele>
        <time>2012-03-04T10:28:13Z</time>
      </trkpt>
      <trkpt lat="43.10595" lon="-0.51225">
        <ele>688.44</ele>
        <time>2012-03-04T10:28:19Z</time>
      </trkpt>
      <trkpt lat="43.10599" lon="-0.51232">
        <ele>688.44</ele>
        <time>2012-03-04T10:28:20Z</time>
      </trkpt>
      <trkpt lat="43.10623" lon="-0.51285">
        <ele>684.12</ele>
        <time>2012-03-04T10:28:27Z</time>
      </trkpt>
      <trkpt lat="43.10635" lon="-0.51311">
        <ele>682.19</ele>
        <time>2012-03-04T10:28:30Z</time>
      </trkpt>
      <trkpt lat="43.10657" lon="-0.51336">
        <ele>679.31</ele>
        <time>2012-03-04T10:28:34Z</time>
      </trkpt>
      <trkpt lat="43.10675" lon="-0.51355">
        <ele>677.87</ele>
        <time>2012-03-04T10:28:37Z</time>
      </trkpt>
      <trkpt lat="43.10697" lon="-0.51378">
        <ele>676.42</ele>
        <time>2012-03-04T10:28:42Z</time>
      </trkpt>
      <trkpt lat="43.10702" lon="-0.51387">
        <ele>676.42</ele>
        <time>2012-03-04T10:28:45Z</time>
      </trkpt>
      <trkpt lat="43.10708" lon="-0.51399">
        <ele>675.94</ele>
        <time>2012-03-04T10:28:52Z</time>
      </trkpt>
      <trkpt lat="43.10711" lon="-0.514">
        <ele>676.42</ele>
        <time>2012-03-04T10:28:58Z</time>
      </trkpt>
      <trkpt lat="43.10712" lon="-0.51403">
        <ele>675.94</ele>
        <time>2012-03-04T10:29:02Z</time>
      </trkpt>
      <trkpt lat="43.10714" lon="-0.5141">
        <ele>676.91</ele>
        <time>2012-03-04T10:29:06Z</time>
      </trkpt>
      <trkpt lat="43.10716" lon="-0.51418">
        <ele>677.39</ele>
        <time>2012-03-04T10:29:10Z</time>
      </trkpt>
      <trkpt lat="43.10725" lon="-0.51432">
        <ele>678.83</ele>
        <time>2012-03-04T10:29:17Z</time>
      </trkpt>
      <trkpt lat="43.10732" lon="-0.51444">
        <ele>680.75</ele>
        <time>2012-03-04T10:29:24Z</time>
      </trkpt>
      <trkpt lat="43.10736" lon="-0.51451">
        <ele>681.71</ele>
        <time>2012-03-04T10:29:28Z</time>
      </trkpt>
      <trkpt lat="43.10738" lon="-0.51462">
        <ele>683.63</ele>
        <time>2012-03-04T10:29:33Z</time>
      </trkpt>
      <trkpt lat="43.10742" lon="-0.51482">
        <ele>684.6</ele>
        <time>2012-03-04T10:29:40Z</time>
      </trkpt>
      <trkpt lat="43.10744" lon="-0.51507">
        <ele>685.08</ele>
        <time>2012-03-04T10:29:47Z</time>
      </trkpt>
      <trkpt lat="43.10747" lon="-0.5153">
        <ele>684.12</ele>
        <time>2012-03-04T10:29:52Z</time>
      </trkpt>
      <trkpt lat="43.1075" lon="-0.5155">
        <ele>682.67</ele>
        <time>2012-03-04T10:29:55Z</time>
      </trkpt>
      <trkpt lat="43.10761" lon="-0.51576">
        <ele>680.75</ele>
        <time>2012-03-04T10:29:59Z</time>
      </trkpt>
      <trkpt lat="43.10765" lon="-0.51591">
        <ele>679.79</ele>
        <time>2012-03-04T10:30:01Z</time>
      </trkpt>
      <trkpt lat="43.10772" lon="-0.51624">
        <ele>675.46</ele>
        <time>2012-03-04T10:30:05Z</time>
      </trkpt>
      <trkpt lat="43.10774" lon="-0.51633">
        <ele>674.02</ele>
        <time>2012-03-04T10:30:06Z</time>
      </trkpt>
      <trkpt lat="43.10779" lon="-0.51662">
        <ele>671.62</ele>
        <time>2012-03-04T10:30:09Z</time>
      </trkpt>
      <trkpt lat="43.1078" lon="-0.5167">
        <ele>670.66</ele>
        <time>2012-03-04T10:30:10Z</time>
      </trkpt>
      <trkpt lat="43.10786" lon="-0.51698">
        <ele>665.85</ele>
        <time>2012-03-04T10:30:13Z</time>
      </trkpt>
      <trkpt lat="43.10788" lon="-0.51706">
        <ele>665.37</ele>
        <time>2012-03-04T10:30:14Z</time>
      </trkpt>
      <trkpt lat="43.10798" lon="-0.5174">
        <ele>661.04</ele>
        <time>2012-03-04T10:30:19Z</time>
      </trkpt>
      <trkpt lat="43.10804" lon="-0.5177">
        <ele>656.24</ele>
        <time>2012-03-04T10:30:24Z</time>
      </trkpt>
      <trkpt lat="43.10805" lon="-0.51775">
        <ele>654.8</ele>
        <time>2012-03-04T10:30:25Z</time>
      </trkpt>
      <trkpt lat="43.10809" lon="-0.51792">
        <ele>651.91</ele>
        <time>2012-03-04T10:30:28Z</time>
      </trkpt>
      <trkpt lat="43.10817" lon="-0.51816">
        <ele>645.66</ele>
        <time>2012-03-04T10:30:32Z</time>
      </trkpt>
      <trkpt lat="43.10822" lon="-0.5183">
        <ele>641.82</ele>
        <time>2012-03-04T10:30:34Z</time>
      </trkpt>
      <trkpt lat="43.10828" lon="-0.51849">
        <ele>637.49</ele>
        <time>2012-03-04T10:30:37Z</time>
      </trkpt>
      <trkpt lat="43.10839" lon="-0.51876">
        <ele>632.2</ele>
        <time>2012-03-04T10:30:41Z</time>
      </trkpt>
      <trkpt lat="43.1085" lon="-0.51893">
        <ele>626.44</ele>
        <time>2012-03-04T10:30:44Z</time>
      </trkpt>
      <trkpt lat="43.10855" lon="-0.51906">
        <ele>624.51</ele>
        <time>2012-03-04T10:30:46Z</time>
      </trkpt>
      <trkpt lat="43.10863" lon="-0.51949">
        <ele>616.82</ele>
        <time>2012-03-04T10:30:51Z</time>
      </trkpt>
      <trkpt lat="43.10863" lon="-0.51956">
        <ele>616.34</ele>
        <time>2012-03-04T10:30:52Z</time>
      </trkpt>
      <trkpt lat="43.10867" lon="-0.5199">
        <ele>609.61</ele>
        <time>2012-03-04T10:30:57Z</time>
      </trkpt>
      <trkpt lat="43.10874" lon="-0.52005">
        <ele>606.73</ele>
        <time>2012-03-04T10:30:59Z</time>
      </trkpt>
      <trkpt lat="43.10881" lon="-0.52035">
        <ele>602.4</ele>
        <time>2012-03-04T10:31:03Z</time>
      </trkpt>
      <trkpt lat="43.10883" lon="-0.52052">
        <ele>600</ele>
        <time>2012-03-04T10:31:05Z</time>
      </trkpt>
      <trkpt lat="43.10889" lon="-0.52075">
        <ele>595.19</ele>
        <time>2012-03-04T10:31:08Z</time>
      </trkpt>
      <trkpt lat="43.10894" lon="-0.52095">
        <ele>590.39</ele>
        <time>2012-03-04T10:31:11Z</time>
      </trkpt>
      <trkpt lat="43.10899" lon="-0.52116">
        <ele>586.06</ele>
        <time>2012-03-04T10:31:14Z</time>
      </trkpt>
      <trkpt lat="43.10902" lon="-0.52132">
        <ele>583.66</ele>
        <time>2012-03-04T10:31:16Z</time>
      </trkpt>
      <trkpt lat="43.10903" lon="-0.5216">
        <ele>577.89</ele>
        <time>2012-03-04T10:31:20Z</time>
      </trkpt>
      <trkpt lat="43.1091" lon="-0.52176">
        <ele>574.53</ele>
        <time>2012-03-04T10:31:24Z</time>
      </trkpt>
      <trkpt lat="43.10915" lon="-0.52176">
        <ele>574.53</ele>
        <time>2012-03-04T10:31:25Z</time>
      </trkpt>
      <trkpt lat="43.1092" lon="-0.52174">
        <ele>574.04</ele>
        <time>2012-03-04T10:31:26Z</time>
      </trkpt>
      <trkpt lat="43.10925" lon="-0.52169">
        <ele>573.56</ele>
        <time>2012-03-04T10:31:27Z</time>
      </trkpt>
      <trkpt lat="43.10929" lon="-0.52163">
        <ele>573.08</ele>
        <time>2012-03-04T10:31:28Z</time>
      </trkpt>
      <trkpt lat="43.10932" lon="-0.52154">
        <ele>572.6</ele>
        <time>2012-03-04T10:31:29Z</time>
      </trkpt>
      <trkpt lat="43.10935" lon="-0.52144">
        <ele>572.12</ele>
        <time>2012-03-04T10:31:30Z</time>
      </trkpt>
      <trkpt lat="43.10958" lon="-0.52096">
        <ele>568.76</ele>
        <time>2012-03-04T10:31:35Z</time>
      </trkpt>
      <trkpt lat="43.10968" lon="-0.52076">
        <ele>567.8</ele>
        <time>2012-03-04T10:31:37Z</time>
      </trkpt>
      <trkpt lat="43.10983" lon="-0.52042">
        <ele>565.39</ele>
        <time>2012-03-04T10:31:40Z</time>
      </trkpt>
      <trkpt lat="43.11004" lon="-0.51993">
        <ele>562.03</ele>
        <time>2012-03-04T10:31:44Z</time>
      </trkpt>
      <trkpt lat="43.11022" lon="-0.51956">
        <ele>558.66</ele>
        <time>2012-03-04T10:31:47Z</time>
      </trkpt>
      <trkpt lat="43.11048" lon="-0.51907">
        <ele>555.3</ele>
        <time>2012-03-04T10:31:51Z</time>
      </trkpt>
      <trkpt lat="43.11071" lon="-0.51851">
        <ele>551.45</ele>
        <time>2012-03-04T10:31:55Z</time>
      </trkpt>
      <trkpt lat="43.11085" lon="-0.51807">
        <ele>548.09</ele>
        <time>2012-03-04T10:31:58Z</time>
      </trkpt>
      <trkpt lat="43.11093" lon="-0.51766">
        <ele>544.24</ele>
        <time>2012-03-04T10:32:01Z</time>
      </trkpt>
      <trkpt lat="43.11094" lon="-0.51757">
        <ele>543.28</ele>
        <time>2012-03-04T10:32:02Z</time>
      </trkpt>
      <trkpt lat="43.11092" lon="-0.51749">
        <ele>542.8</ele>
        <time>2012-03-04T10:32:03Z</time>
      </trkpt>
      <trkpt lat="43.11085" lon="-0.51734">
        <ele>541.84</ele>
        <time>2012-03-04T10:32:05Z</time>
      </trkpt>
      <trkpt lat="43.1108" lon="-0.5173">
        <ele>541.36</ele>
        <time>2012-03-04T10:32:06Z</time>
      </trkpt>
      <trkpt lat="43.11074" lon="-0.51727">
        <ele>540.4</ele>
        <time>2012-03-04T10:32:07Z</time>
      </trkpt>
      <trkpt lat="43.11061" lon="-0.51721">
        <ele>540.4</ele>
        <time>2012-03-04T10:32:09Z</time>
      </trkpt>
      <trkpt lat="43.11057" lon="-0.51716">
        <ele>539.92</ele>
        <time>2012-03-04T10:32:10Z</time>
      </trkpt>
      <trkpt lat="43.11058" lon="-0.5171">
        <ele>539.44</ele>
        <time>2012-03-04T10:32:11Z</time>
      </trkpt>
      <trkpt lat="43.11063" lon="-0.51701">
        <ele>539.44</ele>
        <time>2012-03-04T10:32:12Z</time>
      </trkpt>
      <trkpt lat="43.11068" lon="-0.51693">
        <ele>539.44</ele>
        <time>2012-03-04T10:32:13Z</time>
      </trkpt>
      <trkpt lat="43.11072" lon="-0.51685">
        <ele>538.48</ele>
        <time>2012-03-04T10:32:14Z</time>
      </trkpt>
      <trkpt lat="43.11076" lon="-0.51675">
        <ele>538.48</ele>
        <time>2012-03-04T10:32:15Z</time>
      </trkpt>
      <trkpt lat="43.11079" lon="-0.51665">
        <ele>537.99</ele>
        <time>2012-03-04T10:32:16Z</time>
      </trkpt>
      <trkpt lat="43.11089" lon="-0.51628">
        <ele>536.55</ele>
        <time>2012-03-04T10:32:20Z</time>
      </trkpt>
      <trkpt lat="43.11089" lon="-0.51621">
        <ele>535.59</ele>
        <time>2012-03-04T10:32:21Z</time>
      </trkpt>
      <trkpt lat="43.11089" lon="-0.51615">
        <ele>535.59</ele>
        <time>2012-03-04T10:32:22Z</time>
      </trkpt>
      <trkpt lat="43.11087" lon="-0.51612">
        <ele>535.59</ele>
        <time>2012-03-04T10:32:23Z</time>
      </trkpt>
      <trkpt lat="43.11085" lon="-0.5161">
        <ele>536.07</ele>
        <time>2012-03-04T10:32:24Z</time>
      </trkpt>
      <trkpt lat="43.11083" lon="-0.51609">
        <ele>536.55</ele>
        <time>2012-03-04T10:32:25Z</time>
      </trkpt>
      <trkpt lat="43.11081" lon="-0.51607">
        <ele>536.55</ele>
        <time>2012-03-04T10:32:26Z</time>
      </trkpt>
      <trkpt lat="43.11079" lon="-0.51606">
        <ele>537.03</ele>
        <time>2012-03-04T10:32:27Z</time>
      </trkpt>
      <trkpt lat="43.11078" lon="-0.51604">
        <ele>537.51</ele>
        <time>2012-03-04T10:32:28Z</time>
      </trkpt>
      <trkpt lat="43.11073" lon="-0.516">
        <ele>537.99</ele>
        <time>2012-03-04T10:32:31Z</time>
      </trkpt>
      <trkpt lat="43.11072" lon="-0.51599">
        <ele>537.99</ele>
        <time>2012-03-04T10:32:32Z</time>
      </trkpt>
      <trkpt lat="43.11071" lon="-0.51598">
        <ele>538.48</ele>
        <time>2012-03-04T10:32:33Z</time>
      </trkpt>
      <trkpt lat="43.1107" lon="-0.51597">
        <ele>538.48</ele>
        <time>2012-03-04T10:32:34Z</time>
      </trkpt>
      <trkpt lat="43.11069" lon="-0.51596">
        <ele>538.48</ele>
        <time>2012-03-04T10:32:35Z</time>
      </trkpt>
      <trkpt lat="43.11067" lon="-0.51595">
        <ele>539.44</ele>
        <time>2012-03-04T10:32:36Z</time>
      </trkpt>
      <trkpt lat="43.11066" lon="-0.51595">
        <ele>539.44</ele>
        <time>2012-03-04T10:32:37Z</time>
      </trkpt>
      <trkpt lat="43.11065" lon="-0.51594">
        <ele>539.92</ele>
        <time>2012-03-04T10:32:38Z</time>
      </trkpt>
      <trkpt lat="43.11064" lon="-0.51592">
        <ele>540.4</ele>
        <time>2012-03-04T10:32:39Z</time>
      </trkpt>
      <trkpt lat="43.11063" lon="-0.51591">
        <ele>540.88</ele>
        <time>2012-03-04T10:32:40Z</time>
      </trkpt>
      <trkpt lat="43.11054" lon="-0.51583">
        <ele>542.8</ele>
        <time>2012-03-04T10:32:48Z</time>
      </trkpt>
      <trkpt lat="43.11047" lon="-0.51575">
        <ele>544.24</ele>
        <time>2012-03-04T10:32:56Z</time>
      </trkpt>
      <trkpt lat="43.11045" lon="-0.51574">
        <ele>544.72</ele>
        <time>2012-03-04T10:32:59Z</time>
      </trkpt>
      <trkpt lat="43.11042" lon="-0.51562">
        <ele>545.69</ele>
        <time>2012-03-04T10:33:07Z</time>
      </trkpt>
      <trkpt lat="43.11041" lon="-0.51546">
        <ele>547.61</ele>
        <time>2012-03-04T10:33:14Z</time>
      </trkpt>
      <trkpt lat="43.11044" lon="-0.51528">
        <ele>549.05</ele>
        <time>2012-03-04T10:33:22Z</time>
      </trkpt>
      <trkpt lat="43.1105" lon="-0.51509">
        <ele>549.53</ele>
        <time>2012-03-04T10:33:29Z</time>
      </trkpt>
      <trkpt lat="43.11056" lon="-0.51481">
        <ele>549.05</ele>
        <time>2012-03-04T10:33:35Z</time>
      </trkpt>
      <trkpt lat="43.11063" lon="-0.5145">
        <ele>547.13</ele>
        <time>2012-03-04T10:33:42Z</time>
      </trkpt>
      <trkpt lat="43.11065" lon="-0.51445">
        <ele>546.65</ele>
        <time>2012-03-04T10:33:43Z</time>
      </trkpt>
      <trkpt lat="43.11073" lon="-0.51391">
        <ele>544.24</ele>
        <time>2012-03-04T10:33:51Z</time>
      </trkpt>
      <trkpt lat="43.11089" lon="-0.51353">
        <ele>540.88</ele>
        <time>2012-03-04T10:33:56Z</time>
      </trkpt>
      <trkpt lat="43.11096" lon="-0.51338">
        <ele>538.96</ele>
        <time>2012-03-04T10:33:58Z</time>
      </trkpt>
      <trkpt lat="43.11105" lon="-0.51325">
        <ele>537.03</ele>
        <time>2012-03-04T10:34:00Z</time>
      </trkpt>
      <trkpt lat="43.1112" lon="-0.51296">
        <ele>533.67</ele>
        <time>2012-03-04T10:34:04Z</time>
      </trkpt>
      <trkpt lat="43.11137" lon="-0.51269">
        <ele>530.3</ele>
        <time>2012-03-04T10:34:08Z</time>
      </trkpt>
      <trkpt lat="43.11148" lon="-0.51248">
        <ele>528.38</ele>
        <time>2012-03-04T10:34:11Z</time>
      </trkpt>
      <trkpt lat="43.1116" lon="-0.51217">
        <ele>524.54</ele>
        <time>2012-03-04T10:34:15Z</time>
      </trkpt>
      <trkpt lat="43.11171" lon="-0.51187">
        <ele>521.65</ele>
        <time>2012-03-04T10:34:19Z</time>
      </trkpt>
      <trkpt lat="43.11177" lon="-0.51167">
        <ele>519.25</ele>
        <time>2012-03-04T10:34:22Z</time>
      </trkpt>
      <trkpt lat="43.11178" lon="-0.51147">
        <ele>515.4</ele>
        <time>2012-03-04T10:34:25Z</time>
      </trkpt>
      <trkpt lat="43.11179" lon="-0.51115">
        <ele>509.64</ele>
        <time>2012-03-04T10:34:29Z</time>
      </trkpt>
      <trkpt lat="43.11179" lon="-0.51101">
        <ele>506.75</ele>
        <time>2012-03-04T10:34:31Z</time>
      </trkpt>
      <trkpt lat="43.1118" lon="-0.51071">
        <ele>501.95</ele>
        <time>2012-03-04T10:34:35Z</time>
      </trkpt>
      <trkpt lat="43.11184" lon="-0.51048">
        <ele>498.1</ele>
        <time>2012-03-04T10:34:38Z</time>
      </trkpt>
      <trkpt lat="43.11186" lon="-0.51041">
        <ele>497.14</ele>
        <time>2012-03-04T10:34:39Z</time>
      </trkpt>
      <trkpt lat="43.11192" lon="-0.51019">
        <ele>492.81</ele>
        <time>2012-03-04T10:34:42Z</time>
      </trkpt>
      <trkpt lat="43.11197" lon="-0.51007">
        <ele>490.41</ele>
        <time>2012-03-04T10:34:44Z</time>
      </trkpt>
      <trkpt lat="43.11204" lon="-0.50988">
        <ele>487.05</ele>
        <time>2012-03-04T10:34:47Z</time>
      </trkpt>
      <trkpt lat="43.11209" lon="-0.50973">
        <ele>485.12</ele>
        <time>2012-03-04T10:34:49Z</time>
      </trkpt>
      <trkpt lat="43.1122" lon="-0.50949">
        <ele>480.32</ele>
        <time>2012-03-04T10:34:53Z</time>
      </trkpt>
      <trkpt lat="43.11225" lon="-0.50938">
        <ele>476.95</ele>
        <time>2012-03-04T10:34:55Z</time>
      </trkpt>
      <trkpt lat="43.11228" lon="-0.50933">
        <ele>475.99</ele>
        <time>2012-03-04T10:34:56Z</time>
      </trkpt>
      <trkpt lat="43.11247" lon="-0.50927">
        <ele>472.63</ele>
        <time>2012-03-04T10:35:00Z</time>
      </trkpt>
      <trkpt lat="43.11268" lon="-0.5093">
        <ele>468.78</ele>
        <time>2012-03-04T10:35:04Z</time>
      </trkpt>
      <trkpt lat="43.11277" lon="-0.5093">
        <ele>467.34</ele>
        <time>2012-03-04T10:35:06Z</time>
      </trkpt>
      <trkpt lat="43.11296" lon="-0.5093">
        <ele>463.01</ele>
        <time>2012-03-04T10:35:11Z</time>
      </trkpt>
      <trkpt lat="43.11301" lon="-0.50932">
        <ele>461.57</ele>
        <time>2012-03-04T10:35:13Z</time>
      </trkpt>
      <trkpt lat="43.1131" lon="-0.50952">
        <ele>459.65</ele>
        <time>2012-03-04T10:35:18Z</time>
      </trkpt>
      <trkpt lat="43.11314" lon="-0.50977">
        <ele>458.21</ele>
        <time>2012-03-04T10:35:22Z</time>
      </trkpt>
      <trkpt lat="43.11303" lon="-0.51011">
        <ele>457.24</ele>
        <time>2012-03-04T10:35:27Z</time>
      </trkpt>
      <trkpt lat="43.11301" lon="-0.51028">
        <ele>455.32</ele>
        <time>2012-03-04T10:35:30Z</time>
      </trkpt>
      <trkpt lat="43.11312" lon="-0.51031">
        <ele>452.44</ele>
        <time>2012-03-04T10:35:35Z</time>
      </trkpt>
      <trkpt lat="43.11324" lon="-0.51026">
        <ele>449.55</ele>
        <time>2012-03-04T10:35:38Z</time>
      </trkpt>
      <trkpt lat="43.1134" lon="-0.51021">
        <ele>445.71</ele>
        <time>2012-03-04T10:35:43Z</time>
      </trkpt>
      <trkpt lat="43.11352" lon="-0.51017">
        <ele>442.34</ele>
        <time>2012-03-04T10:35:47Z</time>
      </trkpt>
      <trkpt lat="43.11358" lon="-0.51018">
        <ele>441.86</ele>
        <time>2012-03-04T10:35:49Z</time>
      </trkpt>
      <trkpt lat="43.11367" lon="-0.51023">
        <ele>440.42</ele>
        <time>2012-03-04T10:35:52Z</time>
      </trkpt>
      <trkpt lat="43.11377" lon="-0.51029">
        <ele>438.98</ele>
        <time>2012-03-04T10:35:55Z</time>
      </trkpt>
      <trkpt lat="43.11393" lon="-0.51026">
        <ele>438.5</ele>
        <time>2012-03-04T10:36:01Z</time>
      </trkpt>
      <trkpt lat="43.11399" lon="-0.51023">
        <ele>436.58</ele>
        <time>2012-03-04T10:36:04Z</time>
      </trkpt>
      <trkpt lat="43.11403" lon="-0.51017">
        <ele>435.61</ele>
        <time>2012-03-04T10:36:07Z</time>
      </trkpt>
      <trkpt lat="43.11413" lon="-0.51007">
        <ele>433.69</ele>
        <time>2012-03-04T10:36:13Z</time>
      </trkpt>
      <trkpt lat="43.11417" lon="-0.51005">
        <ele>433.69</ele>
        <time>2012-03-04T10:36:14Z</time>
      </trkpt>
      <trkpt lat="43.11432" lon="-0.51002">
        <ele>431.77</ele>
        <time>2012-03-04T10:36:17Z</time>
      </trkpt>
      <trkpt lat="43.11451" lon="-0.50991">
        <ele>427.92</ele>
        <time>2012-03-04T10:36:21Z</time>
      </trkpt>
      <trkpt lat="43.11461" lon="-0.50979">
        <ele>424.08</ele>
        <time>2012-03-04T10:36:24Z</time>
      </trkpt>
      <trkpt lat="43.11474" lon="-0.50967">
        <ele>420.23</ele>
        <time>2012-03-04T10:36:28Z</time>
      </trkpt>
      <trkpt lat="43.11478" lon="-0.50964">
        <ele>418.79</ele>
        <time>2012-03-04T10:36:29Z</time>
      </trkpt>
      <trkpt lat="43.115" lon="-0.50949">
        <ele>413.98</ele>
        <time>2012-03-04T10:36:34Z</time>
      </trkpt>
      <trkpt lat="43.11505" lon="-0.50946">
        <ele>412.54</ele>
        <time>2012-03-04T10:36:35Z</time>
      </trkpt>
      <trkpt lat="43.1153" lon="-0.5093">
        <ele>407.26</ele>
        <time>2012-03-04T10:36:40Z</time>
      </trkpt>
      <trkpt lat="43.11555" lon="-0.50931">
        <ele>405.81</ele>
        <time>2012-03-04T10:36:45Z</time>
      </trkpt>
      <trkpt lat="43.11567" lon="-0.50931">
        <ele>405.33</ele>
        <time>2012-03-04T10:36:47Z</time>
      </trkpt>
      <trkpt lat="43.11593" lon="-0.50937">
        <ele>404.85</ele>
        <time>2012-03-04T10:36:53Z</time>
      </trkpt>
      <trkpt lat="43.11601" lon="-0.50957">
        <ele>403.41</ele>
        <time>2012-03-04T10:36:58Z</time>
      </trkpt>
      <trkpt lat="43.11607" lon="-0.50962">
        <ele>401.97</ele>
        <time>2012-03-04T10:37:00Z</time>
      </trkpt>
      <trkpt lat="43.11613" lon="-0.50962">
        <ele>401.01</ele>
        <time>2012-03-04T10:37:02Z</time>
      </trkpt>
      <trkpt lat="43.11631" lon="-0.50952">
        <ele>399.08</ele>
        <time>2012-03-04T10:37:06Z</time>
      </trkpt>
      <trkpt lat="43.11642" lon="-0.50945">
        <ele>397.64</ele>
        <time>2012-03-04T10:37:08Z</time>
      </trkpt>
      <trkpt lat="43.11651" lon="-0.50942">
        <ele>396.68</ele>
        <time>2012-03-04T10:37:10Z</time>
      </trkpt>
      <trkpt lat="43.11663" lon="-0.50939">
        <ele>396.2</ele>
        <time>2012-03-04T10:37:13Z</time>
      </trkpt>
      <trkpt lat="43.11682" lon="-0.50926">
        <ele>393.32</ele>
        <time>2012-03-04T10:37:17Z</time>
      </trkpt>
      <trkpt lat="43.11696" lon="-0.50911">
        <ele>392.84</ele>
        <time>2012-03-04T10:37:20Z</time>
      </trkpt>
      <trkpt lat="43.11724" lon="-0.50894">
        <ele>390.91</ele>
        <time>2012-03-04T10:37:25Z</time>
      </trkpt>
      <trkpt lat="43.11765" lon="-0.50876">
        <ele>387.55</ele>
        <time>2012-03-04T10:37:31Z</time>
      </trkpt>
      <trkpt lat="43.11794" lon="-0.50859">
        <ele>384.66</ele>
        <time>2012-03-04T10:37:36Z</time>
      </trkpt>
      <trkpt lat="43.11825" lon="-0.50837">
        <ele>380.82</ele>
        <time>2012-03-04T10:37:41Z</time>
      </trkpt>
      <trkpt lat="43.1185" lon="-0.50821">
        <ele>377.45</ele>
        <time>2012-03-04T10:37:45Z</time>
      </trkpt>
      <trkpt lat="43.11868" lon="-0.50812">
        <ele>373.13</ele>
        <time>2012-03-04T10:37:48Z</time>
      </trkpt>
      <trkpt lat="43.11881" lon="-0.50805">
        <ele>370.24</ele>
        <time>2012-03-04T10:37:50Z</time>
      </trkpt>
      <trkpt lat="43.11904" lon="-0.50791">
        <ele>365.92</ele>
        <time>2012-03-04T10:37:53Z</time>
      </trkpt>
      <trkpt lat="43.11923" lon="-0.50768">
        <ele>359.19</ele>
        <time>2012-03-04T10:37:57Z</time>
      </trkpt>
      <trkpt lat="43.11936" lon="-0.50751">
        <ele>358.23</ele>
        <time>2012-03-04T10:38:01Z</time>
      </trkpt>
      <trkpt lat="43.11969" lon="-0.50722">
        <ele>358.23</ele>
        <time>2012-03-04T10:38:09Z</time>
      </trkpt>
      <trkpt lat="43.11972" lon="-0.50718">
        <ele>358.71</ele>
        <time>2012-03-04T10:38:10Z</time>
      </trkpt>
      <trkpt lat="43.11996" lon="-0.50689">
        <ele>356.79</ele>
        <time>2012-03-04T10:38:17Z</time>
      </trkpt>
      <trkpt lat="43.12007" lon="-0.50678">
        <ele>354.38</ele>
        <time>2012-03-04T10:38:19Z</time>
      </trkpt>
      <trkpt lat="43.12018" lon="-0.50656">
        <ele>351.5</ele>
        <time>2012-03-04T10:38:23Z</time>
      </trkpt>
      <trkpt lat="43.1202" lon="-0.5065">
        <ele>351.5</ele>
        <time>2012-03-04T10:38:24Z</time>
      </trkpt>
      <trkpt lat="43.12032" lon="-0.5063">
        <ele>351.98</ele>
        <time>2012-03-04T10:38:30Z</time>
      </trkpt>
      <trkpt lat="43.12038" lon="-0.50621">
        <ele>352.94</ele>
        <time>2012-03-04T10:38:34Z</time>
      </trkpt>
      <trkpt lat="43.12052" lon="-0.50604">
        <ele>352.46</ele>
        <time>2012-03-04T10:38:40Z</time>
      </trkpt>
      <trkpt lat="43.12058" lon="-0.50596">
        <ele>352.46</ele>
        <time>2012-03-04T10:38:42Z</time>
      </trkpt>
      <trkpt lat="43.12065" lon="-0.50586">
        <ele>351.5</ele>
        <time>2012-03-04T10:38:44Z</time>
      </trkpt>
      <trkpt lat="43.12099" lon="-0.50556">
        <ele>348.13</ele>
        <time>2012-03-04T10:38:50Z</time>
      </trkpt>
      <trkpt lat="43.12129" lon="-0.50525">
        <ele>346.69</ele>
        <time>2012-03-04T10:38:56Z</time>
      </trkpt>
      <trkpt lat="43.1216" lon="-0.50494">
        <ele>343.81</ele>
        <time>2012-03-04T10:39:02Z</time>
      </trkpt>
      <trkpt lat="43.12181" lon="-0.50465">
        <ele>340.92</ele>
        <time>2012-03-04T10:39:06Z</time>
      </trkpt>
      <trkpt lat="43.12194" lon="-0.5042">
        <ele>336.6</ele>
        <time>2012-03-04T10:39:11Z</time>
      </trkpt>
      <trkpt lat="43.12196" lon="-0.50399">
        <ele>334.2</ele>
        <time>2012-03-04T10:39:13Z</time>
      </trkpt>
      <trkpt lat="43.12201" lon="-0.50358">
        <ele>329.39</ele>
        <time>2012-03-04T10:39:18Z</time>
      </trkpt>
      <trkpt lat="43.12203" lon="-0.50335">
        <ele>326.02</ele>
        <time>2012-03-04T10:39:22Z</time>
      </trkpt>
      <trkpt lat="43.12204" lon="-0.50322">
        <ele>323.14</ele>
        <time>2012-03-04T10:39:27Z</time>
      </trkpt>
      <trkpt lat="43.12204" lon="-0.50321">
        <ele>322.66</ele>
        <time>2012-03-04T10:39:34Z</time>
      </trkpt>
      <trkpt lat="43.12205" lon="-0.50319">
        <ele>322.18</ele>
        <time>2012-03-04T10:39:39Z</time>
      </trkpt>
      <trkpt lat="43.12205" lon="-0.50318">
        <ele>322.18</ele>
        <time>2012-03-04T10:39:47Z</time>
      </trkpt>
      <trkpt lat="43.12204" lon="-0.50318">
        <ele>322.18</ele>
        <time>2012-03-04T10:39:48Z</time>
      </trkpt>
      <trkpt lat="43.12202" lon="-0.50318">
        <ele>322.18</ele>
        <time>2012-03-04T10:39:50Z</time>
      </trkpt>
      <trkpt lat="43.12191" lon="-0.50318">
        <ele>322.18</ele>
        <time>2012-03-04T10:39:55Z</time>
      </trkpt>
      <trkpt lat="43.12183" lon="-0.50316">
        <ele>321.7</ele>
        <time>2012-03-04T10:39:57Z</time>
      </trkpt>
      <trkpt lat="43.12179" lon="-0.50314">
        <ele>321.7</ele>
        <time>2012-03-04T10:39:58Z</time>
      </trkpt>
      <trkpt lat="43.12175" lon="-0.50311">
        <ele>321.22</ele>
        <time>2012-03-04T10:39:59Z</time>
      </trkpt>
      <trkpt lat="43.12171" lon="-0.50307">
        <ele>321.22</ele>
        <time>2012-03-04T10:40:00Z</time>
      </trkpt>
      <trkpt lat="43.12164" lon="-0.50298">
        <ele>320.74</ele>
        <time>2012-03-04T10:40:02Z</time>
      </trkpt>
      <trkpt lat="43.12161" lon="-0.50293">
        <ele>321.22</ele>
        <time>2012-03-04T10:40:03Z</time>
      </trkpt>
      <trkpt lat="43.12158" lon="-0.50287">
        <ele>320.74</ele>
        <time>2012-03-04T10:40:04Z</time>
      </trkpt>
      <trkpt lat="43.12156" lon="-0.50281">
        <ele>320.74</ele>
        <time>2012-03-04T10:40:05Z</time>
      </trkpt>
      <trkpt lat="43.12154" lon="-0.50274">
        <ele>320.74</ele>
        <time>2012-03-04T10:40:06Z</time>
      </trkpt>
      <trkpt lat="43.12153" lon="-0.50267">
        <ele>320.26</ele>
        <time>2012-03-04T10:40:07Z</time>
      </trkpt>
      <trkpt lat="43.12153" lon="-0.5026">
        <ele>320.26</ele>
        <time>2012-03-04T10:40:08Z</time>
      </trkpt>
      <trkpt lat="43.12152" lon="-0.50253">
        <ele>320.74</ele>
        <time>2012-03-04T10:40:09Z</time>
      </trkpt>
      <trkpt lat="43.12145" lon="-0.50207">
        <ele>321.7</ele>
        <time>2012-03-04T10:40:16Z</time>
      </trkpt>
      <trkpt lat="43.12144" lon="-0.50195">
        <ele>321.7</ele>
        <time>2012-03-04T10:40:18Z</time>
      </trkpt>
      <trkpt lat="43.12145" lon="-0.50175">
        <ele>322.18</ele>
        <time>2012-03-04T10:40:21Z</time>
      </trkpt>
      <trkpt lat="43.12146" lon="-0.50168">
        <ele>322.18</ele>
        <time>2012-03-04T10:40:22Z</time>
      </trkpt>
      <trkpt lat="43.12148" lon="-0.50162">
        <ele>321.7</ele>
        <time>2012-03-04T10:40:23Z</time>
      </trkpt>
      <trkpt lat="43.12151" lon="-0.50156">
        <ele>322.18</ele>
        <time>2012-03-04T10:40:24Z</time>
      </trkpt>
      <trkpt lat="43.12154" lon="-0.50151">
        <ele>321.7</ele>
        <time>2012-03-04T10:40:25Z</time>
      </trkpt>
      <trkpt lat="43.12158" lon="-0.50146">
        <ele>322.18</ele>
        <time>2012-03-04T10:40:26Z</time>
      </trkpt>
      <trkpt lat="43.12161" lon="-0.50142">
        <ele>322.66</ele>
        <time>2012-03-04T10:40:27Z</time>
      </trkpt>
      <trkpt lat="43.12166" lon="-0.50138">
        <ele>322.66</ele>
        <time>2012-03-04T10:40:28Z</time>
      </trkpt>
      <trkpt lat="43.1217" lon="-0.50135">
        <ele>322.18</ele>
        <time>2012-03-04T10:40:29Z</time>
      </trkpt>
      <trkpt lat="43.12174" lon="-0.50133">
        <ele>322.66</ele>
        <time>2012-03-04T10:40:30Z</time>
      </trkpt>
      <trkpt lat="43.122" lon="-0.50123">
        <ele>323.62</ele>
        <time>2012-03-04T10:40:36Z</time>
      </trkpt>
      <trkpt lat="43.12204" lon="-0.5012">
        <ele>324.1</ele>
        <time>2012-03-04T10:40:37Z</time>
      </trkpt>
      <trkpt lat="43.12208" lon="-0.50117">
        <ele>324.1</ele>
        <time>2012-03-04T10:40:38Z</time>
      </trkpt>
      <trkpt lat="43.12211" lon="-0.50114">
        <ele>323.62</ele>
        <time>2012-03-04T10:40:39Z</time>
      </trkpt>
      <trkpt lat="43.12214" lon="-0.50111">
        <ele>324.1</ele>
        <time>2012-03-04T10:40:40Z</time>
      </trkpt>
      <trkpt lat="43.12217" lon="-0.50108">
        <ele>324.58</ele>
        <time>2012-03-04T10:40:41Z</time>
      </trkpt>
      <trkpt lat="43.1222" lon="-0.50104">
        <ele>324.58</ele>
        <time>2012-03-04T10:40:42Z</time>
      </trkpt>
      <trkpt lat="43.12222" lon="-0.501">
        <ele>324.58</ele>
        <time>2012-03-04T10:40:43Z</time>
      </trkpt>
      <trkpt lat="43.12225" lon="-0.50096">
        <ele>324.58</ele>
        <time>2012-03-04T10:40:44Z</time>
      </trkpt>
      <trkpt lat="43.12227" lon="-0.50092">
        <ele>325.06</ele>
        <time>2012-03-04T10:40:45Z</time>
      </trkpt>
      <trkpt lat="43.12245" lon="-0.50063">
        <ele>325.54</ele>
        <time>2012-03-04T10:40:51Z</time>
      </trkpt>
      <trkpt lat="43.12255" lon="-0.50036">
        <ele>325.54</ele>
        <time>2012-03-04T10:40:55Z</time>
      </trkpt>
      <trkpt lat="43.12257" lon="-0.50029">
        <ele>325.54</ele>
        <time>2012-03-04T10:40:56Z</time>
      </trkpt>
      <trkpt lat="43.12269" lon="-0.49963">
        <ele>325.06</ele>
        <time>2012-03-04T10:41:04Z</time>
      </trkpt>
      <trkpt lat="43.12273" lon="-0.4993">
        <ele>324.1</ele>
        <time>2012-03-04T10:41:08Z</time>
      </trkpt>
      <trkpt lat="43.12273" lon="-0.49921">
        <ele>324.1</ele>
        <time>2012-03-04T10:41:09Z</time>
      </trkpt>
      <trkpt lat="43.12271" lon="-0.49913">
        <ele>323.14</ele>
        <time>2012-03-04T10:41:10Z</time>
      </trkpt>
      <trkpt lat="43.12269" lon="-0.49905">
        <ele>323.14</ele>
        <time>2012-03-04T10:41:11Z</time>
      </trkpt>
      <trkpt lat="43.12265" lon="-0.49898">
        <ele>323.62</ele>
        <time>2012-03-04T10:41:12Z</time>
      </trkpt>
      <trkpt lat="43.12261" lon="-0.49891">
        <ele>323.62</ele>
        <time>2012-03-04T10:41:13Z</time>
      </trkpt>
      <trkpt lat="43.12256" lon="-0.49887">
        <ele>322.66</ele>
        <time>2012-03-04T10:41:14Z</time>
      </trkpt>
      <trkpt lat="43.12249" lon="-0.49884">
        <ele>323.14</ele>
        <time>2012-03-04T10:41:15Z</time>
      </trkpt>
      <trkpt lat="43.12242" lon="-0.49883">
        <ele>322.66</ele>
        <time>2012-03-04T10:41:16Z</time>
      </trkpt>
      <trkpt lat="43.12235" lon="-0.49883">
        <ele>322.66</ele>
        <time>2012-03-04T10:41:17Z</time>
      </trkpt>
      <trkpt lat="43.12229" lon="-0.49884">
        <ele>321.7</ele>
        <time>2012-03-04T10:41:18Z</time>
      </trkpt>
      <trkpt lat="43.12208" lon="-0.49884">
        <ele>321.7</ele>
        <time>2012-03-04T10:41:21Z</time>
      </trkpt>
      <trkpt lat="43.12201" lon="-0.49883">
        <ele>321.7</ele>
        <time>2012-03-04T10:41:22Z</time>
      </trkpt>
      <trkpt lat="43.12195" lon="-0.49879">
        <ele>321.7</ele>
        <time>2012-03-04T10:41:23Z</time>
      </trkpt>
      <trkpt lat="43.1219" lon="-0.49873">
        <ele>321.22</ele>
        <time>2012-03-04T10:41:24Z</time>
      </trkpt>
      <trkpt lat="43.12186" lon="-0.49866">
        <ele>321.22</ele>
        <time>2012-03-04T10:41:25Z</time>
      </trkpt>
      <trkpt lat="43.12183" lon="-0.49856">
        <ele>321.22</ele>
        <time>2012-03-04T10:41:26Z</time>
      </trkpt>
      <trkpt lat="43.12183" lon="-0.49847">
        <ele>320.74</ele>
        <time>2012-03-04T10:41:27Z</time>
      </trkpt>
      <trkpt lat="43.12185" lon="-0.49838">
        <ele>320.74</ele>
        <time>2012-03-04T10:41:28Z</time>
      </trkpt>
      <trkpt lat="43.12187" lon="-0.4983">
        <ele>320.74</ele>
        <time>2012-03-04T10:41:29Z</time>
      </trkpt>
      <trkpt lat="43.12191" lon="-0.49822">
        <ele>321.22</ele>
        <time>2012-03-04T10:41:30Z</time>
      </trkpt>
      <trkpt lat="43.12195" lon="-0.49816">
        <ele>321.22</ele>
        <time>2012-03-04T10:41:31Z</time>
      </trkpt>
      <trkpt lat="43.12199" lon="-0.4981">
        <ele>321.22</ele>
        <time>2012-03-04T10:41:32Z</time>
      </trkpt>
      <trkpt lat="43.12211" lon="-0.49791">
        <ele>321.22</ele>
        <time>2012-03-04T10:41:35Z</time>
      </trkpt>
      <trkpt lat="43.12214" lon="-0.49784">
        <ele>321.7</ele>
        <time>2012-03-04T10:41:36Z</time>
      </trkpt>
      <trkpt lat="43.12217" lon="-0.49776">
        <ele>322.18</ele>
        <time>2012-03-04T10:41:37Z</time>
      </trkpt>
      <trkpt lat="43.12219" lon="-0.49769">
        <ele>322.18</ele>
        <time>2012-03-04T10:41:38Z</time>
      </trkpt>
      <trkpt lat="43.12221" lon="-0.49761">
        <ele>322.18</ele>
        <time>2012-03-04T10:41:39Z</time>
      </trkpt>
      <trkpt lat="43.12222" lon="-0.49754">
        <ele>322.18</ele>
        <time>2012-03-04T10:41:40Z</time>
      </trkpt>
      <trkpt lat="43.12223" lon="-0.49746">
        <ele>322.66</ele>
        <time>2012-03-04T10:41:41Z</time>
      </trkpt>
      <trkpt lat="43.12223" lon="-0.49739">
        <ele>322.66</ele>
        <time>2012-03-04T10:41:42Z</time>
      </trkpt>
      <trkpt lat="43.12223" lon="-0.49731">
        <ele>323.14</ele>
        <time>2012-03-04T10:41:43Z</time>
      </trkpt>
      <trkpt lat="43.12222" lon="-0.49724">
        <ele>322.66</ele>
        <time>2012-03-04T10:41:44Z</time>
      </trkpt>
      <trkpt lat="43.12221" lon="-0.49716">
        <ele>323.14</ele>
        <time>2012-03-04T10:41:45Z</time>
      </trkpt>
      <trkpt lat="43.12219" lon="-0.49709">
        <ele>323.62</ele>
        <time>2012-03-04T10:41:46Z</time>
      </trkpt>
      <trkpt lat="43.12215" lon="-0.49696">
        <ele>323.62</ele>
        <time>2012-03-04T10:41:48Z</time>
      </trkpt>
      <trkpt lat="43.12212" lon="-0.4969">
        <ele>323.62</ele>
        <time>2012-03-04T10:41:49Z</time>
      </trkpt>
      <trkpt lat="43.1219" lon="-0.49653">
        <ele>324.58</ele>
        <time>2012-03-04T10:41:57Z</time>
      </trkpt>
      <trkpt lat="43.12174" lon="-0.49639">
        <ele>325.54</ele>
        <time>2012-03-04T10:42:04Z</time>
      </trkpt>
      <trkpt lat="43.12171" lon="-0.49635">
        <ele>325.54</ele>
        <time>2012-03-04T10:42:10Z</time>
      </trkpt>
      <trkpt lat="43.12171" lon="-0.49633">
        <ele>325.54</ele>
        <time>2012-03-04T10:42:16Z</time>
      </trkpt>
      <trkpt lat="43.1217" lon="-0.4963">
        <ele>325.06</ele>
        <time>2012-03-04T10:42:25Z</time>
      </trkpt>
      <trkpt lat="43.12171" lon="-0.49629">
        <ele>324.58</ele>
        <time>2012-03-04T10:42:31Z</time>
      </trkpt>
      <trkpt lat="43.12172" lon="-0.49628">
        <ele>324.58</ele>
        <time>2012-03-04T10:42:37Z</time>
      </trkpt>
      <trkpt lat="43.12173" lon="-0.49627">
        <ele>324.58</ele>
        <time>2012-03-04T10:42:43Z</time>
      </trkpt>
      <trkpt lat="43.12174" lon="-0.49625">
        <ele>324.1</ele>
        <time>2012-03-04T10:42:46Z</time>
      </trkpt>
      <trkpt lat="43.12176" lon="-0.49623">
        <ele>324.1</ele>
        <time>2012-03-04T10:42:47Z</time>
      </trkpt>
      <trkpt lat="43.12186" lon="-0.49611">
        <ele>322.18</ele>
        <time>2012-03-04T10:42:50Z</time>
      </trkpt>
      <trkpt lat="43.12191" lon="-0.49606">
        <ele>321.7</ele>
        <time>2012-03-04T10:42:51Z</time>
      </trkpt>
      <trkpt lat="43.12197" lon="-0.49595">
        <ele>319.78</ele>
        <time>2012-03-04T10:42:53Z</time>
      </trkpt>
      <trkpt lat="43.12199" lon="-0.49589">
        <ele>318.81</ele>
        <time>2012-03-04T10:42:54Z</time>
      </trkpt>
      <trkpt lat="43.122" lon="-0.49585">
        <ele>318.33</ele>
        <time>2012-03-04T10:42:55Z</time>
      </trkpt>
      <trkpt lat="43.12199" lon="-0.49582">
        <ele>317.85</ele>
        <time>2012-03-04T10:42:56Z</time>
      </trkpt>
      <trkpt lat="43.12203" lon="-0.49578">
        <ele>316.41</ele>
        <time>2012-03-04T10:42:59Z</time>
      </trkpt>
      <trkpt lat="43.12206" lon="-0.4958">
        <ele>315.93</ele>
        <time>2012-03-04T10:43:00Z</time>
      </trkpt>
      <trkpt lat="43.12216" lon="-0.49587">
        <ele>313.05</ele>
        <time>2012-03-04T10:43:03Z</time>
      </trkpt>
      <trkpt lat="43.12225" lon="-0.49593">
        <ele>311.12</ele>
        <time>2012-03-04T10:43:05Z</time>
      </trkpt>
      <trkpt lat="43.12247" lon="-0.49609">
        <ele>306.32</ele>
        <time>2012-03-04T10:43:09Z</time>
      </trkpt>
      <trkpt lat="43.12252" lon="-0.49615">
        <ele>305.84</ele>
        <time>2012-03-04T10:43:10Z</time>
      </trkpt>
      <trkpt lat="43.12262" lon="-0.49626">
        <ele>304.39</ele>
        <time>2012-03-04T10:43:12Z</time>
      </trkpt>
      <trkpt lat="43.12266" lon="-0.49632">
        <ele>303.43</ele>
        <time>2012-03-04T10:43:13Z</time>
      </trkpt>
      <trkpt lat="43.12271" lon="-0.49639">
        <ele>302.47</ele>
        <time>2012-03-04T10:43:14Z</time>
      </trkpt>
      <trkpt lat="43.12276" lon="-0.49645">
        <ele>301.51</ele>
        <time>2012-03-04T10:43:15Z</time>
      </trkpt>
      <trkpt lat="43.12279" lon="-0.49649">
        <ele>300.55</ele>
        <time>2012-03-04T10:43:16Z</time>
      </trkpt>
      <trkpt lat="43.12282" lon="-0.49651">
        <ele>300.55</ele>
        <time>2012-03-04T10:43:17Z</time>
      </trkpt>
      <trkpt lat="43.12284" lon="-0.49652">
        <ele>300.07</ele>
        <time>2012-03-04T10:43:18Z</time>
      </trkpt>
      <trkpt lat="43.12285" lon="-0.4965">
        <ele>299.59</ele>
        <time>2012-03-04T10:43:19Z</time>
      </trkpt>
      <trkpt lat="43.12301" lon="-0.49623">
        <ele>299.59</ele>
        <time>2012-03-04T10:43:26Z</time>
      </trkpt>
      <trkpt lat="43.12306" lon="-0.49612">
        <ele>299.11</ele>
        <time>2012-03-04T10:43:29Z</time>
      </trkpt>
      <trkpt lat="43.12313" lon="-0.49611">
        <ele>299.59</ele>
        <time>2012-03-04T10:43:34Z</time>
      </trkpt>
      <trkpt lat="43.1232" lon="-0.49612">
        <ele>301.03</ele>
        <time>2012-03-04T10:43:40Z</time>
      </trkpt>
      <trkpt lat="43.12332" lon="-0.49612">
        <ele>303.43</ele>
        <time>2012-03-04T10:43:46Z</time>
      </trkpt>
      <trkpt lat="43.12334" lon="-0.49612">
        <ele>303.91</ele>
        <time>2012-03-04T10:43:47Z</time>
      </trkpt>
      <trkpt lat="43.12339" lon="-0.49614">
        <ele>304.39</ele>
        <time>2012-03-04T10:43:50Z</time>
      </trkpt>
      <trkpt lat="43.12351" lon="-0.49623">
        <ele>306.32</ele>
        <time>2012-03-04T10:43:57Z</time>
      </trkpt>
      <trkpt lat="43.12355" lon="-0.49624">
        <ele>308.24</ele>
        <time>2012-03-04T10:44:00Z</time>
      </trkpt>
      <trkpt lat="43.1236" lon="-0.49621">
        <ele>308.24</ele>
        <time>2012-03-04T10:44:04Z</time>
      </trkpt>
      <trkpt lat="43.12371" lon="-0.49628">
        <ele>309.2</ele>
        <time>2012-03-04T10:44:12Z</time>
      </trkpt>
      <trkpt lat="43.12385" lon="-0.49645">
        <ele>308.72</ele>
        <time>2012-03-04T10:44:18Z</time>
      </trkpt>
      <trkpt lat="43.12399" lon="-0.49665">
        <ele>308.72</ele>
        <time>2012-03-04T10:44:24Z</time>
      </trkpt>
      <trkpt lat="43.12408" lon="-0.49685">
        <ele>308.72</ele>
        <time>2012-03-04T10:44:29Z</time>
      </trkpt>
      <trkpt lat="43.12426" lon="-0.49724">
        <ele>308.24</ele>
        <time>2012-03-04T10:44:37Z</time>
      </trkpt>
      <trkpt lat="43.12428" lon="-0.4973">
        <ele>308.24</ele>
        <time>2012-03-04T10:44:38Z</time>
      </trkpt>
      <trkpt lat="43.12431" lon="-0.49736">
        <ele>308.24</ele>
        <time>2012-03-04T10:44:39Z</time>
      </trkpt>
      <trkpt lat="43.1244" lon="-0.49757">
        <ele>307.28</ele>
        <time>2012-03-04T10:44:43Z</time>
      </trkpt>
      <trkpt lat="43.12442" lon="-0.49762">
        <ele>308.24</ele>
        <time>2012-03-04T10:44:44Z</time>
      </trkpt>
      <trkpt lat="43.12449" lon="-0.49771">
        <ele>307.76</ele>
        <time>2012-03-04T10:44:46Z</time>
      </trkpt>
      <trkpt lat="43.12474" lon="-0.49797">
        <ele>305.36</ele>
        <time>2012-03-04T10:44:52Z</time>
      </trkpt>
      <trkpt lat="43.12478" lon="-0.49801">
        <ele>304.88</ele>
        <time>2012-03-04T10:44:53Z</time>
      </trkpt>
      <trkpt lat="43.12482" lon="-0.49805">
        <ele>304.88</ele>
        <time>2012-03-04T10:44:54Z</time>
      </trkpt>
      <trkpt lat="43.12485" lon="-0.4981">
        <ele>304.88</ele>
        <time>2012-03-04T10:44:55Z</time>
      </trkpt>
      <trkpt lat="43.12486" lon="-0.49815">
        <ele>304.88</ele>
        <time>2012-03-04T10:44:56Z</time>
      </trkpt>
      <trkpt lat="43.12487" lon="-0.49818">
        <ele>304.88</ele>
        <time>2012-03-04T10:44:57Z</time>
      </trkpt>
      <trkpt lat="43.12485" lon="-0.49831">
        <ele>305.84</ele>
        <time>2012-03-04T10:45:01Z</time>
      </trkpt>
      <trkpt lat="43.12482" lon="-0.49845">
        <ele>306.8</ele>
        <time>2012-03-04T10:45:05Z</time>
      </trkpt>
      <trkpt lat="43.12487" lon="-0.49865">
        <ele>308.24</ele>
        <time>2012-03-04T10:45:12Z</time>
      </trkpt>
      <trkpt lat="43.12493" lon="-0.49872">
        <ele>307.76</ele>
        <time>2012-03-04T10:45:19Z</time>
      </trkpt>
      <trkpt lat="43.125" lon="-0.4988">
        <ele>308.72</ele>
        <time>2012-03-04T10:45:25Z</time>
      </trkpt>
      <trkpt lat="43.12509" lon="-0.49885">
        <ele>308.72</ele>
        <time>2012-03-04T10:45:31Z</time>
      </trkpt>
      <trkpt lat="43.12509" lon="-0.49888">
        <ele>308.72</ele>
        <time>2012-03-04T10:45:33Z</time>
      </trkpt>
      <trkpt lat="43.12502" lon="-0.49897">
        <ele>308.72</ele>
        <time>2012-03-04T10:45:40Z</time>
      </trkpt>
      <trkpt lat="43.12501" lon="-0.499">
        <ele>307.76</ele>
        <time>2012-03-04T10:45:43Z</time>
      </trkpt>
      <trkpt lat="43.12496" lon="-0.49915">
        <ele>307.76</ele>
        <time>2012-03-04T10:45:50Z</time>
      </trkpt>
      <trkpt lat="43.12488" lon="-0.49933">
        <ele>306.8</ele>
        <time>2012-03-04T10:45:57Z</time>
      </trkpt>
      <trkpt lat="43.12485" lon="-0.49957">
        <ele>306.32</ele>
        <time>2012-03-04T10:46:03Z</time>
      </trkpt>
      <trkpt lat="43.12486" lon="-0.49964">
        <ele>306.32</ele>
        <time>2012-03-04T10:46:05Z</time>
      </trkpt>
      <trkpt lat="43.12475" lon="-0.49978">
        <ele>306.32</ele>
        <time>2012-03-04T10:46:10Z</time>
      </trkpt>
      <trkpt lat="43.12469" lon="-0.50004">
        <ele>305.84</ele>
        <time>2012-03-04T10:46:15Z</time>
      </trkpt>
      <trkpt lat="43.12469" lon="-0.50026">
        <ele>305.84</ele>
        <time>2012-03-04T10:46:19Z</time>
      </trkpt>
      <trkpt lat="43.12462" lon="-0.50052">
        <ele>306.32</ele>
        <time>2012-03-04T10:46:24Z</time>
      </trkpt>
      <trkpt lat="43.12457" lon="-0.5008">
        <ele>305.36</ele>
        <time>2012-03-04T10:46:28Z</time>
      </trkpt>
      <trkpt lat="43.12453" lon="-0.50098">
        <ele>304.88</ele>
        <time>2012-03-04T10:46:31Z</time>
      </trkpt>
      <trkpt lat="43.12451" lon="-0.50133">
        <ele>305.36</ele>
        <time>2012-03-04T10:46:37Z</time>
      </trkpt>
      <trkpt lat="43.12449" lon="-0.50139">
        <ele>305.36</ele>
        <time>2012-03-04T10:46:38Z</time>
      </trkpt>
      <trkpt lat="43.12443" lon="-0.50155">
        <ele>304.88</ele>
        <time>2012-03-04T10:46:41Z</time>
      </trkpt>
      <trkpt lat="43.12432" lon="-0.50179">
        <ele>303.91</ele>
        <time>2012-03-04T10:46:45Z</time>
      </trkpt>
      <trkpt lat="43.12432" lon="-0.50225">
        <ele>303.43</ele>
        <time>2012-03-04T10:46:50Z</time>
      </trkpt>
      <trkpt lat="43.12442" lon="-0.50235">
        <ele>303.43</ele>
        <time>2012-03-04T10:46:53Z</time>
      </trkpt>
      <trkpt lat="43.12452" lon="-0.50239">
        <ele>303.91</ele>
        <time>2012-03-04T10:46:56Z</time>
      </trkpt>
      <trkpt lat="43.12467" lon="-0.50281">
        <ele>304.39</ele>
        <time>2012-03-04T10:47:04Z</time>
      </trkpt>
      <trkpt lat="43.12468" lon="-0.50291">
        <ele>304.39</ele>
        <time>2012-03-04T10:47:06Z</time>
      </trkpt>
      <trkpt lat="43.12473" lon="-0.50303">
        <ele>303.91</ele>
        <time>2012-03-04T10:47:09Z</time>
      </trkpt>
      <trkpt lat="43.12487" lon="-0.50328">
        <ele>302.95</ele>
        <time>2012-03-04T10:47:14Z</time>
      </trkpt>
      <trkpt lat="43.12493" lon="-0.50353">
        <ele>302.95</ele>
        <time>2012-03-04T10:47:18Z</time>
      </trkpt>
      <trkpt lat="43.12509" lon="-0.50378">
        <ele>302.95</ele>
        <time>2012-03-04T10:47:23Z</time>
      </trkpt>
      <trkpt lat="43.12522" lon="-0.50406">
        <ele>301.99</ele>
        <time>2012-03-04T10:47:28Z</time>
      </trkpt>
      <trkpt lat="43.12524" lon="-0.50412">
        <ele>301.51</ele>
        <time>2012-03-04T10:47:29Z</time>
      </trkpt>
      <trkpt lat="43.12534" lon="-0.50446">
        <ele>300.07</ele>
        <time>2012-03-04T10:47:35Z</time>
      </trkpt>
      <trkpt lat="43.12547" lon="-0.50458">
        <ele>300.07</ele>
        <time>2012-03-04T10:47:39Z</time>
      </trkpt>
      <trkpt lat="43.1256" lon="-0.50462">
        <ele>300.55</ele>
        <time>2012-03-04T10:47:42Z</time>
      </trkpt>
      <trkpt lat="43.12571" lon="-0.50475">
        <ele>298.15</ele>
        <time>2012-03-04T10:47:49Z</time>
      </trkpt>
      <trkpt lat="43.12571" lon="-0.50479">
        <ele>297.67</ele>
        <time>2012-03-04T10:47:58Z</time>
      </trkpt>
      <trkpt lat="43.12569" lon="-0.50481">
        <ele>296.7</ele>
        <time>2012-03-04T10:48:12Z</time>
      </trkpt>
      <trkpt lat="43.1257" lon="-0.50481">
        <ele>295.74</ele>
        <time>2012-03-04T10:48:14Z</time>
      </trkpt>
      <trkpt lat="43.12572" lon="-0.50482">
        <ele>294.3</ele>
        <time>2012-03-04T10:48:19Z</time>
      </trkpt>
      <trkpt lat="43.12573" lon="-0.50482">
        <ele>294.3</ele>
        <time>2012-03-04T10:48:20Z</time>
      </trkpt>
      <trkpt lat="43.12578" lon="-0.50482">
        <ele>296.22</ele>
        <time>2012-03-04T10:48:27Z</time>
      </trkpt>
      <trkpt lat="43.12582" lon="-0.50485">
        <ele>298.15</ele>
        <time>2012-03-04T10:48:34Z</time>
      </trkpt>
      <trkpt lat="43.12588" lon="-0.50486">
        <ele>299.59</ele>
        <time>2012-03-04T10:48:41Z</time>
      </trkpt>
      <trkpt lat="43.12592" lon="-0.5049">
        <ele>301.51</ele>
        <time>2012-03-04T10:48:49Z</time>
      </trkpt>
      <trkpt lat="43.12597" lon="-0.50493">
        <ele>303.43</ele>
        <time>2012-03-04T10:48:56Z</time>
      </trkpt>
      <trkpt lat="43.12604" lon="-0.50502">
        <ele>305.36</ele>
        <time>2012-03-04T10:49:04Z</time>
      </trkpt>
      <trkpt lat="43.12604" lon="-0.50503">
        <ele>305.36</ele>
        <time>2012-03-04T10:49:05Z</time>
      </trkpt>
      <trkpt lat="43.12606" lon="-0.50513">
        <ele>306.32</ele>
        <time>2012-03-04T10:49:13Z</time>
      </trkpt>
      <trkpt lat="43.12613" lon="-0.50521">
        <ele>307.76</ele>
        <time>2012-03-04T10:49:20Z</time>
      </trkpt>
      <trkpt lat="43.12618" lon="-0.50526">
        <ele>308.72</ele>
        <time>2012-03-04T10:49:27Z</time>
      </trkpt>
      <trkpt lat="43.12625" lon="-0.50528">
        <ele>311.12</ele>
        <time>2012-03-04T10:49:35Z</time>
      </trkpt>
      <trkpt lat="43.12629" lon="-0.50527">
        <ele>312.09</ele>
        <time>2012-03-04T10:49:42Z</time>
      </trkpt>
      <trkpt lat="43.12631" lon="-0.50528">
        <ele>312.09</ele>
        <time>2012-03-04T10:49:48Z</time>
      </trkpt>
      <trkpt lat="43.1264" lon="-0.50528">
        <ele>313.05</ele>
        <time>2012-03-04T10:49:55Z</time>
      </trkpt>
      <trkpt lat="43.12644" lon="-0.50526">
        <ele>314.01</ele>
        <time>2012-03-04T10:49:58Z</time>
      </trkpt>
      <trkpt lat="43.1265" lon="-0.50513">
        <ele>315.45</ele>
        <time>2012-03-04T10:50:06Z</time>
      </trkpt>
      <trkpt lat="43.12665" lon="-0.50507">
        <ele>316.89</ele>
        <time>2012-03-04T10:50:14Z</time>
      </trkpt>
      <trkpt lat="43.12677" lon="-0.5051">
        <ele>317.85</ele>
        <time>2012-03-04T10:50:22Z</time>
      </trkpt>
      <trkpt lat="43.12696" lon="-0.50509">
        <ele>319.3</ele>
        <time>2012-03-04T10:50:32Z</time>
      </trkpt>
      <trkpt lat="43.12713" lon="-0.50505">
        <ele>321.22</ele>
        <time>2012-03-04T10:50:42Z</time>
      </trkpt>
      <trkpt lat="43.1273" lon="-0.505">
        <ele>323.14</ele>
        <time>2012-03-04T10:50:53Z</time>
      </trkpt>
      <trkpt lat="43.12746" lon="-0.50499">
        <ele>325.06</ele>
        <time>2012-03-04T10:51:03Z</time>
      </trkpt>
      <trkpt lat="43.12761" lon="-0.50498">
        <ele>326.5</ele>
        <time>2012-03-04T10:51:12Z</time>
      </trkpt>
      <trkpt lat="43.12779" lon="-0.50494">
        <ele>328.43</ele>
        <time>2012-03-04T10:51:24Z</time>
      </trkpt>
      <trkpt lat="43.12797" lon="-0.50493">
        <ele>330.35</ele>
        <time>2012-03-04T10:51:35Z</time>
      </trkpt>
      <trkpt lat="43.12813" lon="-0.50499">
        <ele>332.27</ele>
        <time>2012-03-04T10:51:46Z</time>
      </trkpt>
      <trkpt lat="43.12831" lon="-0.50508">
        <ele>334.68</ele>
        <time>2012-03-04T10:51:58Z</time>
      </trkpt>
      <trkpt lat="43.12845" lon="-0.50519">
        <ele>336.12</ele>
        <time>2012-03-04T10:52:08Z</time>
      </trkpt>
      <trkpt lat="43.12855" lon="-0.50529">
        <ele>337.08</ele>
        <time>2012-03-04T10:52:16Z</time>
      </trkpt>
      <trkpt lat="43.12865" lon="-0.50543">
        <ele>338.04</ele>
        <time>2012-03-04T10:52:25Z</time>
      </trkpt>
      <trkpt lat="43.12875" lon="-0.5056">
        <ele>339.96</ele>
        <time>2012-03-04T10:52:35Z</time>
      </trkpt>
      <trkpt lat="43.12886" lon="-0.50571">
        <ele>341.41</ele>
        <time>2012-03-04T10:52:44Z</time>
      </trkpt>
      <trkpt lat="43.12893" lon="-0.50581">
        <ele>343.33</ele>
        <time>2012-03-04T10:52:53Z</time>
      </trkpt>
      <trkpt lat="43.129" lon="-0.50598">
        <ele>344.77</ele>
        <time>2012-03-04T10:53:03Z</time>
      </trkpt>
      <trkpt lat="43.12908" lon="-0.50613">
        <ele>346.69</ele>
        <time>2012-03-04T10:53:13Z</time>
      </trkpt>
      <trkpt lat="43.12917" lon="-0.50629">
        <ele>348.13</ele>
        <time>2012-03-04T10:53:22Z</time>
      </trkpt>
      <trkpt lat="43.1293" lon="-0.50654">
        <ele>348.62</ele>
        <time>2012-03-04T10:53:32Z</time>
      </trkpt>
      <trkpt lat="43.12947" lon="-0.50685">
        <ele>347.65</ele>
        <time>2012-03-04T10:53:40Z</time>
      </trkpt>
      <trkpt lat="43.12967" lon="-0.50722">
        <ele>345.25</ele>
        <time>2012-03-04T10:53:47Z</time>
      </trkpt>
      <trkpt lat="43.12982" lon="-0.50745">
        <ele>343.81</ele>
        <time>2012-03-04T10:53:52Z</time>
      </trkpt>
      <trkpt lat="43.12985" lon="-0.50745">
        <ele>343.81</ele>
        <time>2012-03-04T10:53:53Z</time>
      </trkpt>
      <trkpt lat="43.12988" lon="-0.50744">
        <ele>343.33</ele>
        <time>2012-03-04T10:53:54Z</time>
      </trkpt>
      <trkpt lat="43.12991" lon="-0.50742">
        <ele>344.29</ele>
        <time>2012-03-04T10:53:55Z</time>
      </trkpt>
      <trkpt lat="43.12994" lon="-0.5074">
        <ele>343.81</ele>
        <time>2012-03-04T10:53:56Z</time>
      </trkpt>
      <trkpt lat="43.12996" lon="-0.50737">
        <ele>344.77</ele>
        <time>2012-03-04T10:53:57Z</time>
      </trkpt>
      <trkpt lat="43.12998" lon="-0.50734">
        <ele>344.77</ele>
        <time>2012-03-04T10:53:58Z</time>
      </trkpt>
      <trkpt lat="43.13021" lon="-0.50713">
        <ele>344.77</ele>
        <time>2012-03-04T10:54:06Z</time>
      </trkpt>
      <trkpt lat="43.13046" lon="-0.50692">
        <ele>345.73</ele>
        <time>2012-03-04T10:54:15Z</time>
      </trkpt>
      <trkpt lat="43.13068" lon="-0.50674">
        <ele>347.65</ele>
        <time>2012-03-04T10:54:24Z</time>
      </trkpt>
      <trkpt lat="43.13076" lon="-0.5067">
        <ele>347.65</ele>
        <time>2012-03-04T10:54:27Z</time>
      </trkpt>
      <trkpt lat="43.13079" lon="-0.50671">
        <ele>348.13</ele>
        <time>2012-03-04T10:54:28Z</time>
      </trkpt>
      <trkpt lat="43.13081" lon="-0.50673">
        <ele>348.13</ele>
        <time>2012-03-04T10:54:29Z</time>
      </trkpt>
      <trkpt lat="43.13083" lon="-0.50676">
        <ele>348.62</ele>
        <time>2012-03-04T10:54:30Z</time>
      </trkpt>
      <trkpt lat="43.13084" lon="-0.5068">
        <ele>348.13</ele>
        <time>2012-03-04T10:54:31Z</time>
      </trkpt>
      <trkpt lat="43.13101" lon="-0.50715">
        <ele>347.65</ele>
        <time>2012-03-04T10:54:39Z</time>
      </trkpt>
      <trkpt lat="43.13121" lon="-0.5075">
        <ele>347.65</ele>
        <time>2012-03-04T10:54:47Z</time>
      </trkpt>
      <trkpt lat="43.13129" lon="-0.50777">
        <ele>347.65</ele>
        <time>2012-03-04T10:54:53Z</time>
      </trkpt>
      <trkpt lat="43.13134" lon="-0.50811">
        <ele>346.69</ele>
        <time>2012-03-04T10:54:59Z</time>
      </trkpt>
      <trkpt lat="43.13134" lon="-0.50818">
        <ele>346.69</ele>
        <time>2012-03-04T10:55:00Z</time>
      </trkpt>
      <trkpt lat="43.13135" lon="-0.50825">
        <ele>346.21</ele>
        <time>2012-03-04T10:55:01Z</time>
      </trkpt>
      <trkpt lat="43.13135" lon="-0.50832">
        <ele>346.21</ele>
        <time>2012-03-04T10:55:02Z</time>
      </trkpt>
      <trkpt lat="43.13136" lon="-0.5084">
        <ele>346.21</ele>
        <time>2012-03-04T10:55:03Z</time>
      </trkpt>
      <trkpt lat="43.13139" lon="-0.50877">
        <ele>345.25</ele>
        <time>2012-03-04T10:55:09Z</time>
      </trkpt>
      <trkpt lat="43.13136" lon="-0.50912">
        <ele>344.29</ele>
        <time>2012-03-04T10:55:15Z</time>
      </trkpt>
      <trkpt lat="43.13134" lon="-0.50919">
        <ele>344.29</ele>
        <time>2012-03-04T10:55:16Z</time>
      </trkpt>
      <trkpt lat="43.13116" lon="-0.50965">
        <ele>341.89</ele>
        <time>2012-03-04T10:55:22Z</time>
      </trkpt>
      <trkpt lat="43.13114" lon="-0.50972">
        <ele>341.89</ele>
        <time>2012-03-04T10:55:23Z</time>
      </trkpt>
      <trkpt lat="43.13112" lon="-0.50978">
        <ele>341.41</ele>
        <time>2012-03-04T10:55:24Z</time>
      </trkpt>
      <trkpt lat="43.13106" lon="-0.50989">
        <ele>341.41</ele>
        <time>2012-03-04T10:55:26Z</time>
      </trkpt>
      <trkpt lat="43.13075" lon="-0.5103">
        <ele>339</ele>
        <time>2012-03-04T10:55:34Z</time>
      </trkpt>
      <trkpt lat="43.13071" lon="-0.51037">
        <ele>339</ele>
        <time>2012-03-04T10:55:35Z</time>
      </trkpt>
      <trkpt lat="43.13068" lon="-0.51044">
        <ele>338.52</ele>
        <time>2012-03-04T10:55:36Z</time>
      </trkpt>
      <trkpt lat="43.13066" lon="-0.51052">
        <ele>338.04</ele>
        <time>2012-03-04T10:55:37Z</time>
      </trkpt>
      <trkpt lat="43.13051" lon="-0.51109">
        <ele>335.64</ele>
        <time>2012-03-04T10:55:44Z</time>
      </trkpt>
      <trkpt lat="43.13047" lon="-0.51117">
        <ele>335.16</ele>
        <time>2012-03-04T10:55:45Z</time>
      </trkpt>
      <trkpt lat="43.13034" lon="-0.51143">
        <ele>332.75</ele>
        <time>2012-03-04T10:55:48Z</time>
      </trkpt>
      <trkpt lat="43.13028" lon="-0.51151">
        <ele>332.27</ele>
        <time>2012-03-04T10:55:49Z</time>
      </trkpt>
      <trkpt lat="43.1301" lon="-0.51171">
        <ele>329.39</ele>
        <time>2012-03-04T10:55:52Z</time>
      </trkpt>
      <trkpt lat="43.12985" lon="-0.51191">
        <ele>327.95</ele>
        <time>2012-03-04T10:55:56Z</time>
      </trkpt>
      <trkpt lat="43.12981" lon="-0.51199">
        <ele>327.47</ele>
        <time>2012-03-04T10:55:57Z</time>
      </trkpt>
      <trkpt lat="43.12977" lon="-0.51207">
        <ele>326.99</ele>
        <time>2012-03-04T10:55:58Z</time>
      </trkpt>
      <trkpt lat="43.12971" lon="-0.51221">
        <ele>324.1</ele>
        <time>2012-03-04T10:56:00Z</time>
      </trkpt>
      <trkpt lat="43.12966" lon="-0.51226">
        <ele>323.14</ele>
        <time>2012-03-04T10:56:01Z</time>
      </trkpt>
      <trkpt lat="43.12955" lon="-0.51236">
        <ele>321.22</ele>
        <time>2012-03-04T10:56:03Z</time>
      </trkpt>
      <trkpt lat="43.12937" lon="-0.51248">
        <ele>319.78</ele>
        <time>2012-03-04T10:56:06Z</time>
      </trkpt>
      <trkpt lat="43.12926" lon="-0.51255">
        <ele>318.33</ele>
        <time>2012-03-04T10:56:08Z</time>
      </trkpt>
      <trkpt lat="43.12916" lon="-0.51276">
        <ele>315.45</ele>
        <time>2012-03-04T10:56:11Z</time>
      </trkpt>
      <trkpt lat="43.12903" lon="-0.51299">
        <ele>311.6</ele>
        <time>2012-03-04T10:56:15Z</time>
      </trkpt>
      <trkpt lat="43.12893" lon="-0.51328">
        <ele>307.28</ele>
        <time>2012-03-04T10:56:19Z</time>
      </trkpt>
      <trkpt lat="43.12884" lon="-0.51353">
        <ele>303.43</ele>
        <time>2012-03-04T10:56:23Z</time>
      </trkpt>
      <trkpt lat="43.12881" lon="-0.51364">
        <ele>300.07</ele>
        <time>2012-03-04T10:56:25Z</time>
      </trkpt>
      <trkpt lat="43.12872" lon="-0.51385">
        <ele>295.74</ele>
        <time>2012-03-04T10:56:29Z</time>
      </trkpt>
      <trkpt lat="43.12862" lon="-0.51399">
        <ele>293.34</ele>
        <time>2012-03-04T10:56:33Z</time>
      </trkpt>
      <trkpt lat="43.12861" lon="-0.51422">
        <ele>291.42</ele>
        <time>2012-03-04T10:56:37Z</time>
      </trkpt>
      <trkpt lat="43.12856" lon="-0.51435">
        <ele>289.49</ele>
        <time>2012-03-04T10:56:41Z</time>
      </trkpt>
      <trkpt lat="43.12843" lon="-0.51443">
        <ele>289.01</ele>
        <time>2012-03-04T10:56:46Z</time>
      </trkpt>
      <trkpt lat="43.12842" lon="-0.51455">
        <ele>288.05</ele>
        <time>2012-03-04T10:56:50Z</time>
      </trkpt>
      <trkpt lat="43.12843" lon="-0.51463">
        <ele>287.57</ele>
        <time>2012-03-04T10:56:52Z</time>
      </trkpt>
      <trkpt lat="43.12842" lon="-0.51472">
        <ele>286.13</ele>
        <time>2012-03-04T10:56:56Z</time>
      </trkpt>
      <trkpt lat="43.12844" lon="-0.51484">
        <ele>286.13</ele>
        <time>2012-03-04T10:57:02Z</time>
      </trkpt>
      <trkpt lat="43.12852" lon="-0.51497">
        <ele>286.13</ele>
        <time>2012-03-04T10:57:07Z</time>
      </trkpt>
      <trkpt lat="43.12854" lon="-0.51498">
        <ele>286.13</ele>
        <time>2012-03-04T10:57:08Z</time>
      </trkpt>
      <trkpt lat="43.12858" lon="-0.515">
        <ele>286.13</ele>
        <time>2012-03-04T10:57:10Z</time>
      </trkpt>
      <trkpt lat="43.12876" lon="-0.51513">
        <ele>285.65</ele>
        <time>2012-03-04T10:57:18Z</time>
      </trkpt>
      <trkpt lat="43.12894" lon="-0.51526">
        <ele>285.17</ele>
        <time>2012-03-04T10:57:24Z</time>
      </trkpt>
      <trkpt lat="43.12909" lon="-0.51536">
        <ele>285.65</ele>
        <time>2012-03-04T10:57:30Z</time>
      </trkpt>
      <trkpt lat="43.12912" lon="-0.51537">
        <ele>285.17</ele>
        <time>2012-03-04T10:57:31Z</time>
      </trkpt>
      <trkpt lat="43.12916" lon="-0.51536">
        <ele>285.65</ele>
        <time>2012-03-04T10:57:34Z</time>
      </trkpt>
      <trkpt lat="43.12913" lon="-0.51529">
        <ele>286.61</ele>
        <time>2012-03-04T10:57:40Z</time>
      </trkpt>
      <trkpt lat="43.12913" lon="-0.51527">
        <ele>286.61</ele>
        <time>2012-03-04T10:57:41Z</time>
      </trkpt>
      <trkpt lat="43.12915" lon="-0.51512">
        <ele>285.17</ele>
        <time>2012-03-04T10:57:47Z</time>
      </trkpt>
      <trkpt lat="43.12916" lon="-0.51511">
        <ele>284.69</ele>
        <time>2012-03-04T10:57:48Z</time>
      </trkpt>
      <trkpt lat="43.12921" lon="-0.51496">
        <ele>285.65</ele>
        <time>2012-03-04T10:57:55Z</time>
      </trkpt>
      <trkpt lat="43.12921" lon="-0.51494">
        <ele>285.65</ele>
        <time>2012-03-04T10:57:56Z</time>
      </trkpt>
      <trkpt lat="43.12922" lon="-0.51487">
        <ele>287.09</ele>
        <time>2012-03-04T10:57:59Z</time>
      </trkpt>
      <trkpt lat="43.12922" lon="-0.51485">
        <ele>287.09</ele>
        <time>2012-03-04T10:58:00Z</time>
      </trkpt>
      <trkpt lat="43.12924" lon="-0.51476">
        <ele>288.53</ele>
        <time>2012-03-04T10:58:05Z</time>
      </trkpt>
      <trkpt lat="43.12927" lon="-0.51464">
        <ele>289.49</ele>
        <time>2012-03-04T10:58:11Z</time>
      </trkpt>
      <trkpt lat="43.12929" lon="-0.51452">
        <ele>290.94</ele>
        <time>2012-03-04T10:58:16Z</time>
      </trkpt>
      <trkpt lat="43.12929" lon="-0.51445">
        <ele>291.9</ele>
        <time>2012-03-04T10:58:20Z</time>
      </trkpt>
      <trkpt lat="43.12929" lon="-0.51426">
        <ele>293.82</ele>
        <time>2012-03-04T10:58:30Z</time>
      </trkpt>
      <trkpt lat="43.12933" lon="-0.51411">
        <ele>295.74</ele>
        <time>2012-03-04T10:58:38Z</time>
      </trkpt>
      <trkpt lat="43.12941" lon="-0.51398">
        <ele>297.18</ele>
        <time>2012-03-04T10:58:45Z</time>
      </trkpt>
      <trkpt lat="43.12951" lon="-0.51395">
        <ele>297.67</ele>
        <time>2012-03-04T10:58:51Z</time>
      </trkpt>
      <trkpt lat="43.12963" lon="-0.51397">
        <ele>298.63</ele>
        <time>2012-03-04T10:58:59Z</time>
      </trkpt>
      <trkpt lat="43.12967" lon="-0.51397">
        <ele>299.11</ele>
        <time>2012-03-04T10:59:03Z</time>
      </trkpt>
      <trkpt lat="43.12974" lon="-0.51405">
        <ele>301.03</ele>
        <time>2012-03-04T10:59:09Z</time>
      </trkpt>
      <trkpt lat="43.12992" lon="-0.51426">
        <ele>302.95</ele>
        <time>2012-03-04T10:59:21Z</time>
      </trkpt>
      <trkpt lat="43.13002" lon="-0.51435">
        <ele>304.88</ele>
        <time>2012-03-04T10:59:28Z</time>
      </trkpt>
      <trkpt lat="43.13004" lon="-0.51437">
        <ele>304.88</ele>
        <time>2012-03-04T10:59:29Z</time>
      </trkpt>
      <trkpt lat="43.1302" lon="-0.5145">
        <ele>306.8</ele>
        <time>2012-03-04T10:59:40Z</time>
      </trkpt>
      <trkpt lat="43.13035" lon="-0.51462">
        <ele>307.76</ele>
        <time>2012-03-04T10:59:50Z</time>
      </trkpt>
      <trkpt lat="43.13054" lon="-0.51475">
        <ele>308.72</ele>
        <time>2012-03-04T11:00:02Z</time>
      </trkpt>
      <trkpt lat="43.13076" lon="-0.51488">
        <ele>310.64</ele>
        <time>2012-03-04T11:00:14Z</time>
      </trkpt>
      <trkpt lat="43.1309" lon="-0.51503">
        <ele>311.12</ele>
        <time>2012-03-04T11:00:23Z</time>
      </trkpt>
      <trkpt lat="43.13102" lon="-0.51518">
        <ele>312.09</ele>
        <time>2012-03-04T11:00:32Z</time>
      </trkpt>
      <trkpt lat="43.13113" lon="-0.51534">
        <ele>313.53</ele>
        <time>2012-03-04T11:00:41Z</time>
      </trkpt>
      <trkpt lat="43.13124" lon="-0.51549">
        <ele>314.97</ele>
        <time>2012-03-04T11:00:50Z</time>
      </trkpt>
      <trkpt lat="43.13138" lon="-0.51554">
        <ele>316.89</ele>
        <time>2012-03-04T11:00:59Z</time>
      </trkpt>
      <trkpt lat="43.13154" lon="-0.51557">
        <ele>318.81</ele>
        <time>2012-03-04T11:01:09Z</time>
      </trkpt>
      <trkpt lat="43.13168" lon="-0.51558">
        <ele>319.78</ele>
        <time>2012-03-04T11:01:17Z</time>
      </trkpt>
      <trkpt lat="43.13182" lon="-0.51562">
        <ele>320.74</ele>
        <time>2012-03-04T11:01:25Z</time>
      </trkpt>
      <trkpt lat="43.13199" lon="-0.51566">
        <ele>321.7</ele>
        <time>2012-03-04T11:01:34Z</time>
      </trkpt>
      <trkpt lat="43.13215" lon="-0.5157">
        <ele>322.66</ele>
        <time>2012-03-04T11:01:42Z</time>
      </trkpt>
      <trkpt lat="43.13233" lon="-0.51576">
        <ele>324.1</ele>
        <time>2012-03-04T11:01:51Z</time>
      </trkpt>
      <trkpt lat="43.13255" lon="-0.51582">
        <ele>324.58</ele>
        <time>2012-03-04T11:02:01Z</time>
      </trkpt>
      <trkpt lat="43.13281" lon="-0.51588">
        <ele>325.06</ele>
        <time>2012-03-04T11:02:10Z</time>
      </trkpt>
      <trkpt lat="43.13307" lon="-0.5158">
        <ele>326.02</ele>
        <time>2012-03-04T11:02:19Z</time>
      </trkpt>
      <trkpt lat="43.1333" lon="-0.51565">
        <ele>326.5</ele>
        <time>2012-03-04T11:02:27Z</time>
      </trkpt>
      <trkpt lat="43.13351" lon="-0.51548">
        <ele>327.47</ele>
        <time>2012-03-04T11:02:35Z</time>
      </trkpt>
      <trkpt lat="43.13354" lon="-0.51545">
        <ele>327.47</ele>
        <time>2012-03-04T11:02:36Z</time>
      </trkpt>
      <trkpt lat="43.13358" lon="-0.51541">
        <ele>326.99</ele>
        <time>2012-03-04T11:02:37Z</time>
      </trkpt>
      <trkpt lat="43.13365" lon="-0.51535">
        <ele>326.99</ele>
        <time>2012-03-04T11:02:39Z</time>
      </trkpt>
      <trkpt lat="43.1337" lon="-0.51533">
        <ele>326.5</ele>
        <time>2012-03-04T11:02:40Z</time>
      </trkpt>
      <trkpt lat="43.13391" lon="-0.51529">
        <ele>326.99</ele>
        <time>2012-03-04T11:02:46Z</time>
      </trkpt>
      <trkpt lat="43.13408" lon="-0.51529">
        <ele>327.47</ele>
        <time>2012-03-04T11:02:52Z</time>
      </trkpt>
      <trkpt lat="43.13428" lon="-0.51524">
        <ele>328.43</ele>
        <time>2012-03-04T11:02:59Z</time>
      </trkpt>
      <trkpt lat="43.13444" lon="-0.51512">
        <ele>328.43</ele>
        <time>2012-03-04T11:03:06Z</time>
      </trkpt>
      <trkpt lat="43.13451" lon="-0.51509">
        <ele>328.91</ele>
        <time>2012-03-04T11:03:10Z</time>
      </trkpt>
      <trkpt lat="43.13458" lon="-0.51524">
        <ele>330.35</ele>
        <time>2012-03-04T11:03:16Z</time>
      </trkpt>
      <trkpt lat="43.13474" lon="-0.51559">
        <ele>328.91</ele>
        <time>2012-03-04T11:03:26Z</time>
      </trkpt>
      <trkpt lat="43.13482" lon="-0.51596">
        <ele>326.99</ele>
        <time>2012-03-04T11:03:33Z</time>
      </trkpt>
      <trkpt lat="43.13482" lon="-0.51603">
        <ele>326.5</ele>
        <time>2012-03-04T11:03:34Z</time>
      </trkpt>
      <trkpt lat="43.13491" lon="-0.51641">
        <ele>322.66</ele>
        <time>2012-03-04T11:03:39Z</time>
      </trkpt>
      <trkpt lat="43.13497" lon="-0.51685">
        <ele>319.3</ele>
        <time>2012-03-04T11:03:44Z</time>
      </trkpt>
      <trkpt lat="43.13501" lon="-0.51702">
        <ele>317.85</ele>
        <time>2012-03-04T11:03:46Z</time>
      </trkpt>
      <trkpt lat="43.1351" lon="-0.51745">
        <ele>314.49</ele>
        <time>2012-03-04T11:03:51Z</time>
      </trkpt>
      <trkpt lat="43.13518" lon="-0.51788">
        <ele>313.53</ele>
        <time>2012-03-04T11:03:57Z</time>
      </trkpt>
      <trkpt lat="43.13525" lon="-0.5181">
        <ele>314.97</ele>
        <time>2012-03-04T11:04:03Z</time>
      </trkpt>
      <trkpt lat="43.13528" lon="-0.51817">
        <ele>314.97</ele>
        <time>2012-03-04T11:04:05Z</time>
      </trkpt>
      <trkpt lat="43.13545" lon="-0.51829">
        <ele>311.6</ele>
        <time>2012-03-04T11:04:09Z</time>
      </trkpt>
      <trkpt lat="43.13565" lon="-0.5183">
        <ele>307.76</ele>
        <time>2012-03-04T11:04:14Z</time>
      </trkpt>
      <trkpt lat="43.13567" lon="-0.5183">
        <ele>307.28</ele>
        <time>2012-03-04T11:04:15Z</time>
      </trkpt>
      <trkpt lat="43.13575" lon="-0.51828">
        <ele>304.39</ele>
        <time>2012-03-04T11:04:18Z</time>
      </trkpt>
      <trkpt lat="43.13577" lon="-0.51828">
        <ele>303.91</ele>
        <time>2012-03-04T11:04:19Z</time>
      </trkpt>
      <trkpt lat="43.13585" lon="-0.51834">
        <ele>301.99</ele>
        <time>2012-03-04T11:04:22Z</time>
      </trkpt>
      <trkpt lat="43.13595" lon="-0.51844">
        <ele>304.39</ele>
        <time>2012-03-04T11:04:28Z</time>
      </trkpt>
      <trkpt lat="43.13605" lon="-0.51849">
        <ele>305.84</ele>
        <time>2012-03-04T11:04:35Z</time>
      </trkpt>
      <trkpt lat="43.13617" lon="-0.5186">
        <ele>308.72</ele>
        <time>2012-03-04T11:04:45Z</time>
      </trkpt>
      <trkpt lat="43.13627" lon="-0.51871">
        <ele>311.12</ele>
        <time>2012-03-04T11:04:53Z</time>
      </trkpt>
      <trkpt lat="43.13636" lon="-0.51889">
        <ele>312.09</ele>
        <time>2012-03-04T11:05:04Z</time>
      </trkpt>
      <trkpt lat="43.1364" lon="-0.51906">
        <ele>312.57</ele>
        <time>2012-03-04T11:05:11Z</time>
      </trkpt>
      <trkpt lat="43.13641" lon="-0.5193">
        <ele>312.57</ele>
        <time>2012-03-04T11:05:19Z</time>
      </trkpt>
      <trkpt lat="43.13641" lon="-0.51934">
        <ele>312.57</ele>
        <time>2012-03-04T11:05:20Z</time>
      </trkpt>
      <trkpt lat="43.13625" lon="-0.5195">
        <ele>312.09</ele>
        <time>2012-03-04T11:05:27Z</time>
      </trkpt>
      <trkpt lat="43.1362" lon="-0.51957">
        <ele>312.09</ele>
        <time>2012-03-04T11:05:29Z</time>
      </trkpt>
      <trkpt lat="43.13617" lon="-0.51961">
        <ele>311.6</ele>
        <time>2012-03-04T11:05:30Z</time>
      </trkpt>
      <trkpt lat="43.13614" lon="-0.51965">
        <ele>311.6</ele>
        <time>2012-03-04T11:05:31Z</time>
      </trkpt>
      <trkpt lat="43.13613" lon="-0.51969">
        <ele>311.6</ele>
        <time>2012-03-04T11:05:32Z</time>
      </trkpt>
      <trkpt lat="43.13611" lon="-0.51973">
        <ele>311.6</ele>
        <time>2012-03-04T11:05:33Z</time>
      </trkpt>
      <trkpt lat="43.1361" lon="-0.51976">
        <ele>311.6</ele>
        <time>2012-03-04T11:05:34Z</time>
      </trkpt>
      <trkpt lat="43.13609" lon="-0.51979">
        <ele>312.09</ele>
        <time>2012-03-04T11:05:35Z</time>
      </trkpt>
      <trkpt lat="43.13608" lon="-0.51983">
        <ele>312.09</ele>
        <time>2012-03-04T11:05:36Z</time>
      </trkpt>
      <trkpt lat="43.13606" lon="-0.52007">
        <ele>313.05</ele>
        <time>2012-03-04T11:05:42Z</time>
      </trkpt>
      <trkpt lat="43.13592" lon="-0.52036">
        <ele>313.05</ele>
        <time>2012-03-04T11:05:50Z</time>
      </trkpt>
      <trkpt lat="43.13583" lon="-0.52065">
        <ele>313.53</ele>
        <time>2012-03-04T11:05:57Z</time>
      </trkpt>
      <trkpt lat="43.13577" lon="-0.521">
        <ele>313.53</ele>
        <time>2012-03-04T11:06:04Z</time>
      </trkpt>
      <trkpt lat="43.13569" lon="-0.52141">
        <ele>312.57</ele>
        <time>2012-03-04T11:06:12Z</time>
      </trkpt>
      <trkpt lat="43.13567" lon="-0.52172">
        <ele>313.05</ele>
        <time>2012-03-04T11:06:18Z</time>
      </trkpt>
      <trkpt lat="43.13568" lon="-0.52207">
        <ele>312.57</ele>
        <time>2012-03-04T11:06:25Z</time>
      </trkpt>
      <trkpt lat="43.13561" lon="-0.52231">
        <ele>313.05</ele>
        <time>2012-03-04T11:06:31Z</time>
      </trkpt>
      <trkpt lat="43.13559" lon="-0.52264">
        <ele>312.57</ele>
        <time>2012-03-04T11:06:38Z</time>
      </trkpt>
      <trkpt lat="43.13558" lon="-0.52279">
        <ele>312.57</ele>
        <time>2012-03-04T11:06:41Z</time>
      </trkpt>
      <trkpt lat="43.13557" lon="-0.52285">
        <ele>312.57</ele>
        <time>2012-03-04T11:06:42Z</time>
      </trkpt>
      <trkpt lat="43.13549" lon="-0.52313">
        <ele>312.09</ele>
        <time>2012-03-04T11:06:48Z</time>
      </trkpt>
      <trkpt lat="43.1354" lon="-0.5235">
        <ele>311.6</ele>
        <time>2012-03-04T11:06:55Z</time>
      </trkpt>
      <trkpt lat="43.13533" lon="-0.52396">
        <ele>310.64</ele>
        <time>2012-03-04T11:07:03Z</time>
      </trkpt>
      <trkpt lat="43.13531" lon="-0.52401">
        <ele>311.12</ele>
        <time>2012-03-04T11:07:04Z</time>
      </trkpt>
      <trkpt lat="43.13516" lon="-0.52438">
        <ele>310.16</ele>
        <time>2012-03-04T11:07:12Z</time>
      </trkpt>
      <trkpt lat="43.13502" lon="-0.52466">
        <ele>310.16</ele>
        <time>2012-03-04T11:07:19Z</time>
      </trkpt>
      <trkpt lat="43.13492" lon="-0.52518">
        <ele>308.72</ele>
        <time>2012-03-04T11:07:27Z</time>
      </trkpt>
      <trkpt lat="43.1349" lon="-0.52533">
        <ele>307.76</ele>
        <time>2012-03-04T11:07:29Z</time>
      </trkpt>
      <trkpt lat="43.13488" lon="-0.52542">
        <ele>305.84</ele>
        <time>2012-03-04T11:07:30Z</time>
      </trkpt>
      <trkpt lat="43.13486" lon="-0.5255">
        <ele>304.39</ele>
        <time>2012-03-04T11:07:31Z</time>
      </trkpt>
      <trkpt lat="43.13472" lon="-0.52572">
        <ele>303.91</ele>
        <time>2012-03-04T11:07:35Z</time>
      </trkpt>
      <trkpt lat="43.13467" lon="-0.52576">
        <ele>305.36</ele>
        <time>2012-03-04T11:07:39Z</time>
      </trkpt>
      <trkpt lat="43.13457" lon="-0.52584">
        <ele>306.32</ele>
        <time>2012-03-04T11:07:46Z</time>
      </trkpt>
      <trkpt lat="43.13447" lon="-0.52592">
        <ele>307.28</ele>
        <time>2012-03-04T11:07:51Z</time>
      </trkpt>
      <trkpt lat="43.13436" lon="-0.52628">
        <ele>306.32</ele>
        <time>2012-03-04T11:07:59Z</time>
      </trkpt>
      <trkpt lat="43.1343" lon="-0.52653">
        <ele>302.47</ele>
        <time>2012-03-04T11:08:03Z</time>
      </trkpt>
      <trkpt lat="43.13433" lon="-0.52689">
        <ele>297.18</ele>
        <time>2012-03-04T11:08:08Z</time>
      </trkpt>
      <trkpt lat="43.13434" lon="-0.52695">
        <ele>296.22</ele>
        <time>2012-03-04T11:08:09Z</time>
      </trkpt>
      <trkpt lat="43.13442" lon="-0.52724">
        <ele>291.9</ele>
        <time>2012-03-04T11:08:13Z</time>
      </trkpt>
      <trkpt lat="43.13448" lon="-0.52738">
        <ele>289.49</ele>
        <time>2012-03-04T11:08:15Z</time>
      </trkpt>
      <trkpt lat="43.13453" lon="-0.52761">
        <ele>284.69</ele>
        <time>2012-03-04T11:08:19Z</time>
      </trkpt>
      <trkpt lat="43.13452" lon="-0.52777">
        <ele>282.77</ele>
        <time>2012-03-04T11:08:21Z</time>
      </trkpt>
      <trkpt lat="43.1345" lon="-0.52797">
        <ele>281.32</ele>
        <time>2012-03-04T11:08:23Z</time>
      </trkpt>
      <trkpt lat="43.13444" lon="-0.52855">
        <ele>278.92</ele>
        <time>2012-03-04T11:08:29Z</time>
      </trkpt>
      <trkpt lat="43.13454" lon="-0.52874">
        <ele>278.44</ele>
        <time>2012-03-04T11:08:33Z</time>
      </trkpt>
      <trkpt lat="43.13463" lon="-0.52871">
        <ele>278.44</ele>
        <time>2012-03-04T11:08:35Z</time>
      </trkpt>
      <trkpt lat="43.13476" lon="-0.52862">
        <ele>278.44</ele>
        <time>2012-03-04T11:08:38Z</time>
      </trkpt>
      <trkpt lat="43.13496" lon="-0.52847">
        <ele>277.96</ele>
        <time>2012-03-04T11:08:44Z</time>
      </trkpt>
      <trkpt lat="43.13505" lon="-0.52852">
        <ele>277.48</ele>
        <time>2012-03-04T11:08:49Z</time>
      </trkpt>
      <trkpt lat="43.13513" lon="-0.52854">
        <ele>277.48</ele>
        <time>2012-03-04T11:08:53Z</time>
      </trkpt>
      <trkpt lat="43.13514" lon="-0.52865">
        <ele>277</ele>
        <time>2012-03-04T11:08:57Z</time>
      </trkpt>
      <trkpt lat="43.13524" lon="-0.52864">
        <ele>276.52</ele>
        <time>2012-03-04T11:09:01Z</time>
      </trkpt>
      <trkpt lat="43.13532" lon="-0.52853">
        <ele>277</ele>
        <time>2012-03-04T11:09:06Z</time>
      </trkpt>
      <trkpt lat="43.13531" lon="-0.52851">
        <ele>277</ele>
        <time>2012-03-04T11:09:07Z</time>
      </trkpt>
      <trkpt lat="43.13538" lon="-0.5284">
        <ele>277.48</ele>
        <time>2012-03-04T11:09:12Z</time>
      </trkpt>
      <trkpt lat="43.13546" lon="-0.52837">
        <ele>277.96</ele>
        <time>2012-03-04T11:09:15Z</time>
      </trkpt>
      <trkpt lat="43.13559" lon="-0.52822">
        <ele>276.52</ele>
        <time>2012-03-04T11:09:21Z</time>
      </trkpt>
      <trkpt lat="43.13567" lon="-0.52819">
        <ele>274.59</ele>
        <time>2012-03-04T11:09:25Z</time>
      </trkpt>
      <trkpt lat="43.13573" lon="-0.52818">
        <ele>274.11</ele>
        <time>2012-03-04T11:09:29Z</time>
      </trkpt>
      <trkpt lat="43.13577" lon="-0.52815">
        <ele>274.11</ele>
        <time>2012-03-04T11:09:31Z</time>
      </trkpt>
      <trkpt lat="43.13582" lon="-0.52812">
        <ele>275.07</ele>
        <time>2012-03-04T11:09:34Z</time>
      </trkpt>
      <trkpt lat="43.13585" lon="-0.52811">
        <ele>275.56</ele>
        <time>2012-03-04T11:09:36Z</time>
      </trkpt>
      <trkpt lat="43.13592" lon="-0.52824">
        <ele>276.04</ele>
        <time>2012-03-04T11:09:43Z</time>
      </trkpt>
      <trkpt lat="43.136" lon="-0.52836">
        <ele>277</ele>
        <time>2012-03-04T11:09:48Z</time>
      </trkpt>
      <trkpt lat="43.13601" lon="-0.52838">
        <ele>277</ele>
        <time>2012-03-04T11:09:50Z</time>
      </trkpt>
      <trkpt lat="43.1361" lon="-0.52832">
        <ele>278.92</ele>
        <time>2012-03-04T11:09:57Z</time>
      </trkpt>
      <trkpt lat="43.13614" lon="-0.5283">
        <ele>279.88</ele>
        <time>2012-03-04T11:10:00Z</time>
      </trkpt>
      <trkpt lat="43.1362" lon="-0.5282">
        <ele>281.32</ele>
        <time>2012-03-04T11:10:08Z</time>
      </trkpt>
      <trkpt lat="43.13622" lon="-0.52811">
        <ele>283.25</ele>
        <time>2012-03-04T11:10:14Z</time>
      </trkpt>
      <trkpt lat="43.13626" lon="-0.52805">
        <ele>284.21</ele>
        <time>2012-03-04T11:10:18Z</time>
      </trkpt>
      <trkpt lat="43.13638" lon="-0.528">
        <ele>284.69</ele>
        <time>2012-03-04T11:10:27Z</time>
      </trkpt>
      <trkpt lat="43.13654" lon="-0.528">
        <ele>286.61</ele>
        <time>2012-03-04T11:10:36Z</time>
      </trkpt>
      <trkpt lat="43.13669" lon="-0.52793">
        <ele>287.09</ele>
        <time>2012-03-04T11:10:46Z</time>
      </trkpt>
      <trkpt lat="43.13679" lon="-0.52787">
        <ele>288.53</ele>
        <time>2012-03-04T11:10:53Z</time>
      </trkpt>
      <trkpt lat="43.13696" lon="-0.5278">
        <ele>288.05</ele>
        <time>2012-03-04T11:11:00Z</time>
      </trkpt>
      <trkpt lat="43.13713" lon="-0.52778">
        <ele>288.05</ele>
        <time>2012-03-04T11:11:06Z</time>
      </trkpt>
      <trkpt lat="43.13734" lon="-0.52774">
        <ele>289.01</ele>
        <time>2012-03-04T11:11:15Z</time>
      </trkpt>
      <trkpt lat="43.13761" lon="-0.52774">
        <ele>289.97</ele>
        <time>2012-03-04T11:11:25Z</time>
      </trkpt>
      <trkpt lat="43.13776" lon="-0.52774">
        <ele>291.42</ele>
        <time>2012-03-04T11:11:32Z</time>
      </trkpt>
      <trkpt lat="43.13791" lon="-0.52772">
        <ele>292.86</ele>
        <time>2012-03-04T11:11:39Z</time>
      </trkpt>
      <trkpt lat="43.13808" lon="-0.52774">
        <ele>293.82</ele>
        <time>2012-03-04T11:11:47Z</time>
      </trkpt>
      <trkpt lat="43.13833" lon="-0.52776">
        <ele>294.78</ele>
        <time>2012-03-04T11:11:57Z</time>
      </trkpt>
      <trkpt lat="43.13852" lon="-0.5278">
        <ele>295.74</ele>
        <time>2012-03-04T11:12:05Z</time>
      </trkpt>
      <trkpt lat="43.13866" lon="-0.5278">
        <ele>295.26</ele>
        <time>2012-03-04T11:12:11Z</time>
      </trkpt>
      <trkpt lat="43.13884" lon="-0.52778">
        <ele>296.22</ele>
        <time>2012-03-04T11:12:19Z</time>
      </trkpt>
      <trkpt lat="43.13896" lon="-0.52781">
        <ele>297.18</ele>
        <time>2012-03-04T11:12:25Z</time>
      </trkpt>
      <trkpt lat="43.13912" lon="-0.52797">
        <ele>298.63</ele>
        <time>2012-03-04T11:12:35Z</time>
      </trkpt>
      <trkpt lat="43.13923" lon="-0.52814">
        <ele>300.07</ele>
        <time>2012-03-04T11:12:46Z</time>
      </trkpt>
      <trkpt lat="43.13931" lon="-0.52825">
        <ele>302.47</ele>
        <time>2012-03-04T11:12:55Z</time>
      </trkpt>
      <trkpt lat="43.13937" lon="-0.52843">
        <ele>303.43</ele>
        <time>2012-03-04T11:13:04Z</time>
      </trkpt>
      <trkpt lat="43.13942" lon="-0.52862">
        <ele>305.36</ele>
        <time>2012-03-04T11:13:13Z</time>
      </trkpt>
      <trkpt lat="43.13954" lon="-0.52874">
        <ele>306.32</ele>
        <time>2012-03-04T11:13:21Z</time>
      </trkpt>
      <trkpt lat="43.13972" lon="-0.52886">
        <ele>306.8</ele>
        <time>2012-03-04T11:13:31Z</time>
      </trkpt>
      <trkpt lat="43.13995" lon="-0.52895">
        <ele>306.32</ele>
        <time>2012-03-04T11:13:38Z</time>
      </trkpt>
      <trkpt lat="43.14029" lon="-0.52901">
        <ele>305.36</ele>
        <time>2012-03-04T11:13:47Z</time>
      </trkpt>
      <trkpt lat="43.14061" lon="-0.52916">
        <ele>304.88</ele>
        <time>2012-03-04T11:13:56Z</time>
      </trkpt>
      <trkpt lat="43.14078" lon="-0.52937">
        <ele>305.84</ele>
        <time>2012-03-04T11:14:03Z</time>
      </trkpt>
      <trkpt lat="43.14096" lon="-0.52961">
        <ele>306.32</ele>
        <time>2012-03-04T11:14:11Z</time>
      </trkpt>
      <trkpt lat="43.14113" lon="-0.52987">
        <ele>307.28</ele>
        <time>2012-03-04T11:14:20Z</time>
      </trkpt>
      <trkpt lat="43.14131" lon="-0.52996">
        <ele>306.8</ele>
        <time>2012-03-04T11:14:26Z</time>
      </trkpt>
      <trkpt lat="43.14153" lon="-0.53003">
        <ele>305.84</ele>
        <time>2012-03-04T11:14:32Z</time>
      </trkpt>
      <trkpt lat="43.14164" lon="-0.53009">
        <ele>305.84</ele>
        <time>2012-03-04T11:14:35Z</time>
      </trkpt>
      <trkpt lat="43.14187" lon="-0.53028">
        <ele>305.84</ele>
        <time>2012-03-04T11:14:42Z</time>
      </trkpt>
      <trkpt lat="43.1422" lon="-0.53051">
        <ele>305.36</ele>
        <time>2012-03-04T11:14:52Z</time>
      </trkpt>
      <trkpt lat="43.14248" lon="-0.53071">
        <ele>305.36</ele>
        <time>2012-03-04T11:15:01Z</time>
      </trkpt>
      <trkpt lat="43.14268" lon="-0.53086">
        <ele>306.8</ele>
        <time>2012-03-04T11:15:10Z</time>
      </trkpt>
      <trkpt lat="43.14268" lon="-0.53085">
        <ele>306.32</ele>
        <time>2012-03-04T11:15:16Z</time>
      </trkpt>
      <trkpt lat="43.14268" lon="-0.53086">
        <ele>305.36</ele>
        <time>2012-03-04T11:15:25Z</time>
      </trkpt>
      <trkpt lat="43.14268" lon="-0.53086">
        <ele>305.36</ele>
        <time>2012-03-04T11:15:32Z</time>
      </trkpt>
      <trkpt lat="43.14268" lon="-0.53087">
        <ele>305.36</ele>
        <time>2012-03-04T11:15:40Z</time>
      </trkpt>
      <trkpt lat="43.14268" lon="-0.53087">
        <ele>305.84</ele>
        <time>2012-03-04T11:15:50Z</time>
      </trkpt>
      <trkpt lat="43.14269" lon="-0.53087">
        <ele>305.84</ele>
        <time>2012-03-04T11:16:00Z</time>
      </trkpt>
      <trkpt lat="43.14268" lon="-0.53087">
        <ele>305.84</ele>
        <time>2012-03-04T11:16:09Z</time>
      </trkpt>
      <trkpt lat="43.14268" lon="-0.53087">
        <ele>305.36</ele>
        <time>2012-03-04T11:16:20Z</time>
      </trkpt>
      <trkpt lat="43.14267" lon="-0.53086">
        <ele>305.84</ele>
        <time>2012-03-04T11:16:28Z</time>
      </trkpt>
      <trkpt lat="43.14266" lon="-0.53086">
        <ele>305.84</ele>
        <time>2012-03-04T11:16:35Z</time>
      </trkpt>
      <trkpt lat="43.14265" lon="-0.53087">
        <ele>305.84</ele>
        <time>2012-03-04T11:16:49Z</time>
      </trkpt>
      <trkpt lat="43.14265" lon="-0.53087">
        <ele>305.36</ele>
        <time>2012-03-04T11:16:58Z</time>
      </trkpt>
      <trkpt lat="43.14265" lon="-0.53087">
        <ele>305.36</ele>
        <time>2012-03-04T11:17:04Z</time>
      </trkpt>
      <trkpt lat="43.14265" lon="-0.53087">
        <ele>305.36</ele>
        <time>2012-03-04T11:17:15Z</time>
      </trkpt>
      <trkpt lat="43.14265" lon="-0.53087">
        <ele>305.84</ele>
        <time>2012-03-04T11:17:28Z</time>
      </trkpt>
      <trkpt lat="43.14266" lon="-0.53087">
        <ele>305.84</ele>
        <time>2012-03-04T11:17:41Z</time>
      </trkpt>
      <trkpt lat="43.14266" lon="-0.53086">
        <ele>305.84</ele>
        <time>2012-03-04T11:17:47Z</time>
      </trkpt>
      <trkpt lat="43.14268" lon="-0.53085">
        <ele>305.36</ele>
        <time>2012-03-04T11:17:56Z</time>
      </trkpt>
      <trkpt lat="43.14267" lon="-0.53086">
        <ele>305.84</ele>
        <time>2012-03-04T11:18:01Z</time>
      </trkpt>
      <trkpt lat="43.14266" lon="-0.53085">
        <ele>305.84</ele>
        <time>2012-03-04T11:18:08Z</time>
      </trkpt>
      <trkpt lat="43.14266" lon="-0.53085">
        <ele>305.36</ele>
        <time>2012-03-04T11:18:19Z</time>
      </trkpt>
      <trkpt lat="43.14266" lon="-0.53085">
        <ele>305.84</ele>
        <time>2012-03-04T11:18:24Z</time>
      </trkpt>
      <trkpt lat="43.14265" lon="-0.53085">
        <ele>305.84</ele>
        <time>2012-03-04T11:18:25Z</time>
      </trkpt>
      <trkpt lat="43.14263" lon="-0.53085">
        <ele>305.84</ele>
        <time>2012-03-04T11:18:26Z</time>
      </trkpt>
      <trkpt lat="43.14249" lon="-0.53085">
        <ele>305.36</ele>
        <time>2012-03-04T11:18:31Z</time>
      </trkpt>
      <trkpt lat="43.14218" lon="-0.5308">
        <ele>304.88</ele>
        <time>2012-03-04T11:18:39Z</time>
      </trkpt>
      <trkpt lat="43.14206" lon="-0.53076">
        <ele>304.39</ele>
        <time>2012-03-04T11:18:42Z</time>
      </trkpt>
      <trkpt lat="43.14175" lon="-0.53062">
        <ele>304.39</ele>
        <time>2012-03-04T11:18:50Z</time>
      </trkpt>
      <trkpt lat="43.1415" lon="-0.5306">
        <ele>305.36</ele>
        <time>2012-03-04T11:18:57Z</time>
      </trkpt>
      <trkpt lat="43.14131" lon="-0.53057">
        <ele>306.8</ele>
        <time>2012-03-04T11:19:04Z</time>
      </trkpt>
      <trkpt lat="43.14103" lon="-0.5305">
        <ele>306.8</ele>
        <time>2012-03-04T11:19:13Z</time>
      </trkpt>
      <trkpt lat="43.14072" lon="-0.53044">
        <ele>306.8</ele>
        <time>2012-03-04T11:19:22Z</time>
      </trkpt>
      <trkpt lat="43.1405" lon="-0.53039">
        <ele>306.32</ele>
        <time>2012-03-04T11:19:28Z</time>
      </trkpt>
      <trkpt lat="43.14021" lon="-0.53029">
        <ele>305.36</ele>
        <time>2012-03-04T11:19:35Z</time>
      </trkpt>
      <trkpt lat="43.13996" lon="-0.53021">
        <ele>302.95</ele>
        <time>2012-03-04T11:19:39Z</time>
      </trkpt>
      <trkpt lat="43.1399" lon="-0.53021">
        <ele>302.47</ele>
        <time>2012-03-04T11:19:40Z</time>
      </trkpt>
      <trkpt lat="43.13984" lon="-0.53022">
        <ele>302.95</ele>
        <time>2012-03-04T11:19:41Z</time>
      </trkpt>
      <trkpt lat="43.13979" lon="-0.53024">
        <ele>302.95</ele>
        <time>2012-03-04T11:19:42Z</time>
      </trkpt>
      <trkpt lat="43.13974" lon="-0.53026">
        <ele>303.91</ele>
        <time>2012-03-04T11:19:43Z</time>
      </trkpt>
      <trkpt lat="43.13947" lon="-0.53034">
        <ele>302.47</ele>
        <time>2012-03-04T11:19:49Z</time>
      </trkpt>
      <trkpt lat="43.13942" lon="-0.53036">
        <ele>302.95</ele>
        <time>2012-03-04T11:19:50Z</time>
      </trkpt>
      <trkpt lat="43.13921" lon="-0.5305">
        <ele>304.39</ele>
        <time>2012-03-04T11:19:57Z</time>
      </trkpt>
      <trkpt lat="43.13908" lon="-0.53059">
        <ele>305.36</ele>
        <time>2012-03-04T11:20:02Z</time>
      </trkpt>
      <trkpt lat="43.13907" lon="-0.53062">
        <ele>305.84</ele>
        <time>2012-03-04T11:20:03Z</time>
      </trkpt>
      <trkpt lat="43.13896" lon="-0.53078">
        <ele>306.32</ele>
        <time>2012-03-04T11:20:09Z</time>
      </trkpt>
      <trkpt lat="43.13879" lon="-0.53092">
        <ele>306.8</ele>
        <time>2012-03-04T11:20:16Z</time>
      </trkpt>
      <trkpt lat="43.1387" lon="-0.53111">
        <ele>306.8</ele>
        <time>2012-03-04T11:20:22Z</time>
      </trkpt>
      <trkpt lat="43.13868" lon="-0.53121">
        <ele>306.8</ele>
        <time>2012-03-04T11:20:24Z</time>
      </trkpt>
      <trkpt lat="43.13866" lon="-0.53142">
        <ele>305.36</ele>
        <time>2012-03-04T11:20:27Z</time>
      </trkpt>
      <trkpt lat="43.13866" lon="-0.53164">
        <ele>303.91</ele>
        <time>2012-03-04T11:20:30Z</time>
      </trkpt>
      <trkpt lat="43.13869" lon="-0.53192">
        <ele>302.95</ele>
        <time>2012-03-04T11:20:34Z</time>
      </trkpt>
      <trkpt lat="43.13876" lon="-0.53228">
        <ele>301.99</ele>
        <time>2012-03-04T11:20:40Z</time>
      </trkpt>
      <trkpt lat="43.13879" lon="-0.53242">
        <ele>301.51</ele>
        <time>2012-03-04T11:20:42Z</time>
      </trkpt>
      <trkpt lat="43.13882" lon="-0.53249">
        <ele>301.03</ele>
        <time>2012-03-04T11:20:43Z</time>
      </trkpt>
      <trkpt lat="43.13899" lon="-0.53292">
        <ele>300.07</ele>
        <time>2012-03-04T11:20:50Z</time>
      </trkpt>
      <trkpt lat="43.13909" lon="-0.53316">
        <ele>298.63</ele>
        <time>2012-03-04T11:20:54Z</time>
      </trkpt>
      <trkpt lat="43.13912" lon="-0.5332">
        <ele>298.63</ele>
        <time>2012-03-04T11:20:55Z</time>
      </trkpt>
      <trkpt lat="43.13916" lon="-0.53323">
        <ele>298.63</ele>
        <time>2012-03-04T11:20:56Z</time>
      </trkpt>
      <trkpt lat="43.13933" lon="-0.53329">
        <ele>297.18</ele>
        <time>2012-03-04T11:21:01Z</time>
      </trkpt>
      <trkpt lat="43.13937" lon="-0.53329">
        <ele>296.7</ele>
        <time>2012-03-04T11:21:02Z</time>
      </trkpt>
      <trkpt lat="43.13941" lon="-0.53328">
        <ele>296.22</ele>
        <time>2012-03-04T11:21:03Z</time>
      </trkpt>
      <trkpt lat="43.13946" lon="-0.53327">
        <ele>296.22</ele>
        <time>2012-03-04T11:21:04Z</time>
      </trkpt>
      <trkpt lat="43.1395" lon="-0.53325">
        <ele>295.74</ele>
        <time>2012-03-04T11:21:05Z</time>
      </trkpt>
      <trkpt lat="43.13954" lon="-0.53323">
        <ele>295.74</ele>
        <time>2012-03-04T11:21:06Z</time>
      </trkpt>
      <trkpt lat="43.13958" lon="-0.53319">
        <ele>295.26</ele>
        <time>2012-03-04T11:21:07Z</time>
      </trkpt>
      <trkpt lat="43.13962" lon="-0.53315">
        <ele>294.78</ele>
        <time>2012-03-04T11:21:08Z</time>
      </trkpt>
      <trkpt lat="43.13966" lon="-0.5331">
        <ele>294.3</ele>
        <time>2012-03-04T11:21:09Z</time>
      </trkpt>
      <trkpt lat="43.13974" lon="-0.53301">
        <ele>292.38</ele>
        <time>2012-03-04T11:21:11Z</time>
      </trkpt>
      <trkpt lat="43.13978" lon="-0.53298">
        <ele>291.9</ele>
        <time>2012-03-04T11:21:12Z</time>
      </trkpt>
      <trkpt lat="43.13983" lon="-0.53294">
        <ele>291.9</ele>
        <time>2012-03-04T11:21:13Z</time>
      </trkpt>
      <trkpt lat="43.13987" lon="-0.53292">
        <ele>290.94</ele>
        <time>2012-03-04T11:21:14Z</time>
      </trkpt>
      <trkpt lat="43.13991" lon="-0.5329">
        <ele>291.42</ele>
        <time>2012-03-04T11:21:15Z</time>
      </trkpt>
      <trkpt lat="43.13994" lon="-0.5329">
        <ele>290.46</ele>
        <time>2012-03-04T11:21:16Z</time>
      </trkpt>
      <trkpt lat="43.13996" lon="-0.53291">
        <ele>290.46</ele>
        <time>2012-03-04T11:21:17Z</time>
      </trkpt>
      <trkpt lat="43.13998" lon="-0.53292">
        <ele>289.97</ele>
        <time>2012-03-04T11:21:18Z</time>
      </trkpt>
      <trkpt lat="43.14" lon="-0.53295">
        <ele>289.49</ele>
        <time>2012-03-04T11:21:19Z</time>
      </trkpt>
      <trkpt lat="43.14002" lon="-0.53299">
        <ele>289.01</ele>
        <time>2012-03-04T11:21:20Z</time>
      </trkpt>
      <trkpt lat="43.14005" lon="-0.53303">
        <ele>288.53</ele>
        <time>2012-03-04T11:21:21Z</time>
      </trkpt>
      <trkpt lat="43.14007" lon="-0.53307">
        <ele>288.05</ele>
        <time>2012-03-04T11:21:22Z</time>
      </trkpt>
      <trkpt lat="43.14009" lon="-0.53311">
        <ele>287.09</ele>
        <time>2012-03-04T11:21:23Z</time>
      </trkpt>
      <trkpt lat="43.14015" lon="-0.53319">
        <ele>287.57</ele>
        <time>2012-03-04T11:21:25Z</time>
      </trkpt>
      <trkpt lat="43.14017" lon="-0.53324">
        <ele>287.57</ele>
        <time>2012-03-04T11:21:26Z</time>
      </trkpt>
      <trkpt lat="43.14019" lon="-0.53327">
        <ele>287.57</ele>
        <time>2012-03-04T11:21:27Z</time>
      </trkpt>
      <trkpt lat="43.14021" lon="-0.53329">
        <ele>287.57</ele>
        <time>2012-03-04T11:21:28Z</time>
      </trkpt>
      <trkpt lat="43.14024" lon="-0.53331">
        <ele>288.05</ele>
        <time>2012-03-04T11:21:29Z</time>
      </trkpt>
      <trkpt lat="43.14026" lon="-0.53333">
        <ele>288.53</ele>
        <time>2012-03-04T11:21:30Z</time>
      </trkpt>
      <trkpt lat="43.14028" lon="-0.53335">
        <ele>289.01</ele>
        <time>2012-03-04T11:21:31Z</time>
      </trkpt>
      <trkpt lat="43.14036" lon="-0.53349">
        <ele>289.97</ele>
        <time>2012-03-04T11:21:37Z</time>
      </trkpt>
      <trkpt lat="43.14044" lon="-0.53366">
        <ele>291.9</ele>
        <time>2012-03-04T11:21:44Z</time>
      </trkpt>
      <trkpt lat="43.14054" lon="-0.5338">
        <ele>292.86</ele>
        <time>2012-03-04T11:21:49Z</time>
      </trkpt>
      <trkpt lat="43.14067" lon="-0.53397">
        <ele>293.82</ele>
        <time>2012-03-04T11:21:56Z</time>
      </trkpt>
      <trkpt lat="43.14073" lon="-0.53413">
        <ele>293.34</ele>
        <time>2012-03-04T11:22:02Z</time>
      </trkpt>
      <trkpt lat="43.14075" lon="-0.53417">
        <ele>293.82</ele>
        <time>2012-03-04T11:22:06Z</time>
      </trkpt>
      <trkpt lat="43.14077" lon="-0.53419">
        <ele>293.82</ele>
        <time>2012-03-04T11:22:07Z</time>
      </trkpt>
      <trkpt lat="43.14078" lon="-0.53421">
        <ele>293.34</ele>
        <time>2012-03-04T11:22:08Z</time>
      </trkpt>
      <trkpt lat="43.1408" lon="-0.53422">
        <ele>293.82</ele>
        <time>2012-03-04T11:22:09Z</time>
      </trkpt>
      <trkpt lat="43.14082" lon="-0.53423">
        <ele>294.3</ele>
        <time>2012-03-04T11:22:10Z</time>
      </trkpt>
      <trkpt lat="43.14084" lon="-0.53424">
        <ele>294.3</ele>
        <time>2012-03-04T11:22:11Z</time>
      </trkpt>
      <trkpt lat="43.14105" lon="-0.53426">
        <ele>292.38</ele>
        <time>2012-03-04T11:22:17Z</time>
      </trkpt>
      <trkpt lat="43.14128" lon="-0.53423">
        <ele>289.97</ele>
        <time>2012-03-04T11:22:23Z</time>
      </trkpt>
      <trkpt lat="43.14131" lon="-0.53421">
        <ele>289.49</ele>
        <time>2012-03-04T11:22:24Z</time>
      </trkpt>
      <trkpt lat="43.14135" lon="-0.53418">
        <ele>288.53</ele>
        <time>2012-03-04T11:22:25Z</time>
      </trkpt>
      <trkpt lat="43.14141" lon="-0.53412">
        <ele>287.57</ele>
        <time>2012-03-04T11:22:27Z</time>
      </trkpt>
      <trkpt lat="43.14147" lon="-0.53409">
        <ele>287.09</ele>
        <time>2012-03-04T11:22:31Z</time>
      </trkpt>
      <trkpt lat="43.14149" lon="-0.53412">
        <ele>286.61</ele>
        <time>2012-03-04T11:22:32Z</time>
      </trkpt>
      <trkpt lat="43.14151" lon="-0.53419">
        <ele>286.61</ele>
        <time>2012-03-04T11:22:35Z</time>
      </trkpt>
      <trkpt lat="43.14159" lon="-0.53434">
        <ele>287.09</ele>
        <time>2012-03-04T11:22:41Z</time>
      </trkpt>
      <trkpt lat="43.14176" lon="-0.53447">
        <ele>288.53</ele>
        <time>2012-03-04T11:22:49Z</time>
      </trkpt>
      <trkpt lat="43.14196" lon="-0.53459">
        <ele>289.97</ele>
        <time>2012-03-04T11:22:57Z</time>
      </trkpt>
      <trkpt lat="43.14201" lon="-0.53462">
        <ele>290.46</ele>
        <time>2012-03-04T11:23:00Z</time>
      </trkpt>
      <trkpt lat="43.14214" lon="-0.5347">
        <ele>292.38</ele>
        <time>2012-03-04T11:23:08Z</time>
      </trkpt>
      <trkpt lat="43.1422" lon="-0.53475">
        <ele>292.86</ele>
        <time>2012-03-04T11:23:13Z</time>
      </trkpt>
      <trkpt lat="43.14222" lon="-0.53482">
        <ele>294.3</ele>
        <time>2012-03-04T11:23:18Z</time>
      </trkpt>
      <trkpt lat="43.1422" lon="-0.53491">
        <ele>294.78</ele>
        <time>2012-03-04T11:23:23Z</time>
      </trkpt>
      <trkpt lat="43.14216" lon="-0.53503">
        <ele>296.7</ele>
        <time>2012-03-04T11:23:31Z</time>
      </trkpt>
      <trkpt lat="43.14213" lon="-0.53504">
        <ele>296.7</ele>
        <time>2012-03-04T11:23:33Z</time>
      </trkpt>
      <trkpt lat="43.1421" lon="-0.53518">
        <ele>298.15</ele>
        <time>2012-03-04T11:23:40Z</time>
      </trkpt>
      <trkpt lat="43.14211" lon="-0.53528">
        <ele>298.15</ele>
        <time>2012-03-04T11:23:44Z</time>
      </trkpt>
      <trkpt lat="43.14214" lon="-0.53551">
        <ele>299.59</ele>
        <time>2012-03-04T11:23:54Z</time>
      </trkpt>
      <trkpt lat="43.14217" lon="-0.5357">
        <ele>301.03</ele>
        <time>2012-03-04T11:24:03Z</time>
      </trkpt>
      <trkpt lat="43.14218" lon="-0.53589">
        <ele>301.99</ele>
        <time>2012-03-04T11:24:11Z</time>
      </trkpt>
      <trkpt lat="43.14219" lon="-0.53614">
        <ele>301.51</ele>
        <time>2012-03-04T11:24:18Z</time>
      </trkpt>
      <trkpt lat="43.14222" lon="-0.53649">
        <ele>301.03</ele>
        <time>2012-03-04T11:24:25Z</time>
      </trkpt>
      <trkpt lat="43.14221" lon="-0.53673">
        <ele>301.51</ele>
        <time>2012-03-04T11:24:31Z</time>
      </trkpt>
      <trkpt lat="43.14221" lon="-0.53677">
        <ele>301.51</ele>
        <time>2012-03-04T11:24:32Z</time>
      </trkpt>
      <trkpt lat="43.1422" lon="-0.53686">
        <ele>301.03</ele>
        <time>2012-03-04T11:24:38Z</time>
      </trkpt>
      <trkpt lat="43.14213" lon="-0.53713">
        <ele>302.95</ele>
        <time>2012-03-04T11:24:48Z</time>
      </trkpt>
      <trkpt lat="43.14206" lon="-0.5372">
        <ele>303.43</ele>
        <time>2012-03-04T11:24:55Z</time>
      </trkpt>
      <trkpt lat="43.14206" lon="-0.5372">
        <ele>303.43</ele>
        <time>2012-03-04T11:24:56Z</time>
      </trkpt>
      <trkpt lat="43.142" lon="-0.53711">
        <ele>302.95</ele>
        <time>2012-03-04T11:25:00Z</time>
      </trkpt>
      <trkpt lat="43.14182" lon="-0.53697">
        <ele>302.47</ele>
        <time>2012-03-04T11:25:05Z</time>
      </trkpt>
      <trkpt lat="43.14167" lon="-0.53696">
        <ele>301.99</ele>
        <time>2012-03-04T11:25:09Z</time>
      </trkpt>
      <trkpt lat="43.14144" lon="-0.537">
        <ele>301.51</ele>
        <time>2012-03-04T11:25:16Z</time>
      </trkpt>
      <trkpt lat="43.14128" lon="-0.53704">
        <ele>300.07</ele>
        <time>2012-03-04T11:25:20Z</time>
      </trkpt>
      <trkpt lat="43.14105" lon="-0.53706">
        <ele>300.55</ele>
        <time>2012-03-04T11:25:26Z</time>
      </trkpt>
      <trkpt lat="43.14098" lon="-0.53707">
        <ele>301.51</ele>
        <time>2012-03-04T11:25:29Z</time>
      </trkpt>
      <trkpt lat="43.14096" lon="-0.53705">
        <ele>301.51</ele>
        <time>2012-03-04T11:25:31Z</time>
      </trkpt>
      <trkpt lat="43.14087" lon="-0.53702">
        <ele>301.03</ele>
        <time>2012-03-04T11:25:37Z</time>
      </trkpt>
      <trkpt lat="43.1408" lon="-0.53703">
        <ele>300.55</ele>
        <time>2012-03-04T11:25:50Z</time>
      </trkpt>
      <trkpt lat="43.14078" lon="-0.53701">
        <ele>301.03</ele>
        <time>2012-03-04T11:25:56Z</time>
      </trkpt>
      <trkpt lat="43.14078" lon="-0.53701">
        <ele>300.55</ele>
        <time>2012-03-04T11:26:11Z</time>
      </trkpt>
      <trkpt lat="43.14078" lon="-0.53701">
        <ele>300.55</ele>
        <time>2012-03-04T11:26:14Z</time>
      </trkpt>
      <trkpt lat="43.14068" lon="-0.53691">
        <ele>300.55</ele>
        <time>2012-03-04T11:26:19Z</time>
      </trkpt>
      <trkpt lat="43.1406" lon="-0.53684">
        <ele>300.07</ele>
        <time>2012-03-04T11:26:23Z</time>
      </trkpt>
      <trkpt lat="43.14048" lon="-0.53685">
        <ele>300.55</ele>
        <time>2012-03-04T11:26:29Z</time>
      </trkpt>
      <trkpt lat="43.14053" lon="-0.53697">
        <ele>300.07</ele>
        <time>2012-03-04T11:26:33Z</time>
      </trkpt>
      <trkpt lat="43.14061" lon="-0.53717">
        <ele>300.07</ele>
        <time>2012-03-04T11:26:40Z</time>
      </trkpt>
      <trkpt lat="43.14069" lon="-0.53728">
        <ele>301.03</ele>
        <time>2012-03-04T11:26:46Z</time>
      </trkpt>
      <trkpt lat="43.14073" lon="-0.53739">
        <ele>302.95</ele>
        <time>2012-03-04T11:26:52Z</time>
      </trkpt>
      <trkpt lat="43.14072" lon="-0.53745">
        <ele>303.43</ele>
        <time>2012-03-04T11:26:54Z</time>
      </trkpt>
      <trkpt lat="43.1407" lon="-0.53764">
        <ele>302.47</ele>
        <time>2012-03-04T11:27:00Z</time>
      </trkpt>
      <trkpt lat="43.14068" lon="-0.53786">
        <ele>302.47</ele>
        <time>2012-03-04T11:27:08Z</time>
      </trkpt>
      <trkpt lat="43.14058" lon="-0.53804">
        <ele>301.03</ele>
        <time>2012-03-04T11:27:14Z</time>
      </trkpt>
      <trkpt lat="43.14055" lon="-0.53823">
        <ele>301.03</ele>
        <time>2012-03-04T11:27:20Z</time>
      </trkpt>
      <trkpt lat="43.14054" lon="-0.53827">
        <ele>301.03</ele>
        <time>2012-03-04T11:27:21Z</time>
      </trkpt>
      <trkpt lat="43.14052" lon="-0.53846">
        <ele>300.07</ele>
        <time>2012-03-04T11:27:26Z</time>
      </trkpt>
      <trkpt lat="43.14051" lon="-0.53853">
        <ele>300.07</ele>
        <time>2012-03-04T11:27:28Z</time>
      </trkpt>
      <trkpt lat="43.14046" lon="-0.53864">
        <ele>298.63</ele>
        <time>2012-03-04T11:27:32Z</time>
      </trkpt>
      <trkpt lat="43.14043" lon="-0.53873">
        <ele>299.11</ele>
        <time>2012-03-04T11:27:35Z</time>
      </trkpt>
      <trkpt lat="43.14029" lon="-0.53892">
        <ele>298.63</ele>
        <time>2012-03-04T11:27:42Z</time>
      </trkpt>
      <trkpt lat="43.14029" lon="-0.539">
        <ele>298.63</ele>
        <time>2012-03-04T11:27:45Z</time>
      </trkpt>
      <trkpt lat="43.14019" lon="-0.5392">
        <ele>296.7</ele>
        <time>2012-03-04T11:27:52Z</time>
      </trkpt>
      <trkpt lat="43.14016" lon="-0.53935">
        <ele>295.74</ele>
        <time>2012-03-04T11:27:57Z</time>
      </trkpt>
      <trkpt lat="43.14005" lon="-0.53956">
        <ele>294.3</ele>
        <time>2012-03-04T11:28:03Z</time>
      </trkpt>
      <trkpt lat="43.13995" lon="-0.53971">
        <ele>292.86</ele>
        <time>2012-03-04T11:28:07Z</time>
      </trkpt>
      <trkpt lat="43.13996" lon="-0.54001">
        <ele>291.42</ele>
        <time>2012-03-04T11:28:14Z</time>
      </trkpt>
      <trkpt lat="43.13998" lon="-0.54005">
        <ele>291.42</ele>
        <time>2012-03-04T11:28:15Z</time>
      </trkpt>
      <trkpt lat="43.14005" lon="-0.54024">
        <ele>289.01</ele>
        <time>2012-03-04T11:28:21Z</time>
      </trkpt>
      <trkpt lat="43.13999" lon="-0.54034">
        <ele>287.57</ele>
        <time>2012-03-04T11:28:27Z</time>
      </trkpt>
      <trkpt lat="43.13993" lon="-0.54037">
        <ele>286.13</ele>
        <time>2012-03-04T11:28:30Z</time>
      </trkpt>
      <trkpt lat="43.13989" lon="-0.5404">
        <ele>285.17</ele>
        <time>2012-03-04T11:28:32Z</time>
      </trkpt>
      <trkpt lat="43.13987" lon="-0.54053">
        <ele>284.21</ele>
        <time>2012-03-04T11:28:35Z</time>
      </trkpt>
      <trkpt lat="43.13983" lon="-0.54065">
        <ele>284.21</ele>
        <time>2012-03-04T11:28:40Z</time>
      </trkpt>
      <trkpt lat="43.13982" lon="-0.54074">
        <ele>285.17</ele>
        <time>2012-03-04T11:28:44Z</time>
      </trkpt>
      <trkpt lat="43.1398" lon="-0.54077">
        <ele>285.65</ele>
        <time>2012-03-04T11:28:46Z</time>
      </trkpt>
      <trkpt lat="43.13972" lon="-0.54089">
        <ele>287.09</ele>
        <time>2012-03-04T11:28:54Z</time>
      </trkpt>
      <trkpt lat="43.13966" lon="-0.54099">
        <ele>288.05</ele>
        <time>2012-03-04T11:29:01Z</time>
      </trkpt>
      <trkpt lat="43.13965" lon="-0.54101">
        <ele>288.05</ele>
        <time>2012-03-04T11:29:02Z</time>
      </trkpt>
      <trkpt lat="43.13965" lon="-0.54111">
        <ele>289.49</ele>
        <time>2012-03-04T11:29:09Z</time>
      </trkpt>
      <trkpt lat="43.13963" lon="-0.54117">
        <ele>289.97</ele>
        <time>2012-03-04T11:29:15Z</time>
      </trkpt>
      <trkpt lat="43.13966" lon="-0.54128">
        <ele>290.46</ele>
        <time>2012-03-04T11:29:20Z</time>
      </trkpt>
      <trkpt lat="43.13965" lon="-0.54133">
        <ele>290.94</ele>
        <time>2012-03-04T11:29:23Z</time>
      </trkpt>
      <trkpt lat="43.13964" lon="-0.54142">
        <ele>290.94</ele>
        <time>2012-03-04T11:29:27Z</time>
      </trkpt>
      <trkpt lat="43.13965" lon="-0.54156">
        <ele>289.97</ele>
        <time>2012-03-04T11:29:33Z</time>
      </trkpt>
      <trkpt lat="43.13952" lon="-0.5417">
        <ele>287.09</ele>
        <time>2012-03-04T11:29:38Z</time>
      </trkpt>
      <trkpt lat="43.13945" lon="-0.5418">
        <ele>286.13</ele>
        <time>2012-03-04T11:29:40Z</time>
      </trkpt>
      <trkpt lat="43.1393" lon="-0.54202">
        <ele>284.21</ele>
        <time>2012-03-04T11:29:44Z</time>
      </trkpt>
      <trkpt lat="43.13925" lon="-0.54222">
        <ele>280.84</ele>
        <time>2012-03-04T11:29:48Z</time>
      </trkpt>
      <trkpt lat="43.13925" lon="-0.54245">
        <ele>278.92</ele>
        <time>2012-03-04T11:29:53Z</time>
      </trkpt>
      <trkpt lat="43.13926" lon="-0.54247">
        <ele>278.44</ele>
        <time>2012-03-04T11:29:54Z</time>
      </trkpt>
      <trkpt lat="43.13932" lon="-0.54248">
        <ele>279.4</ele>
        <time>2012-03-04T11:29:58Z</time>
      </trkpt>
      <trkpt lat="43.13939" lon="-0.54248">
        <ele>282.28</ele>
        <time>2012-03-04T11:30:05Z</time>
      </trkpt>
      <trkpt lat="43.13948" lon="-0.54244">
        <ele>284.69</ele>
        <time>2012-03-04T11:30:13Z</time>
      </trkpt>
      <trkpt lat="43.13951" lon="-0.54244">
        <ele>285.17</ele>
        <time>2012-03-04T11:30:15Z</time>
      </trkpt>
      <trkpt lat="43.13966" lon="-0.54254">
        <ele>288.05</ele>
        <time>2012-03-04T11:30:25Z</time>
      </trkpt>
      <trkpt lat="43.13972" lon="-0.54261">
        <ele>289.97</ele>
        <time>2012-03-04T11:30:31Z</time>
      </trkpt>
      <trkpt lat="43.13978" lon="-0.5427">
        <ele>290.94</ele>
        <time>2012-03-04T11:30:38Z</time>
      </trkpt>
      <trkpt lat="43.13986" lon="-0.54277">
        <ele>292.86</ele>
        <time>2012-03-04T11:30:45Z</time>
      </trkpt>
      <trkpt lat="43.13992" lon="-0.54286">
        <ele>294.78</ele>
        <time>2012-03-04T11:30:53Z</time>
      </trkpt>
      <trkpt lat="43.13997" lon="-0.54296">
        <ele>296.22</ele>
        <time>2012-03-04T11:31:00Z</time>
      </trkpt>
      <trkpt lat="43.14" lon="-0.54307">
        <ele>298.15</ele>
        <time>2012-03-04T11:31:08Z</time>
      </trkpt>
      <trkpt lat="43.14001" lon="-0.54308">
        <ele>298.15</ele>
        <time>2012-03-04T11:31:09Z</time>
      </trkpt>
      <trkpt lat="43.14" lon="-0.54318">
        <ele>298.63</ele>
        <time>2012-03-04T11:31:14Z</time>
      </trkpt>
      <trkpt lat="43.14002" lon="-0.54328">
        <ele>299.59</ele>
        <time>2012-03-04T11:31:20Z</time>
      </trkpt>
      <trkpt lat="43.14006" lon="-0.54343">
        <ele>301.03</ele>
        <time>2012-03-04T11:31:28Z</time>
      </trkpt>
      <trkpt lat="43.14007" lon="-0.54345">
        <ele>301.03</ele>
        <time>2012-03-04T11:31:29Z</time>
      </trkpt>
      <trkpt lat="43.14007" lon="-0.54355">
        <ele>301.03</ele>
        <time>2012-03-04T11:31:34Z</time>
      </trkpt>
      <trkpt lat="43.14008" lon="-0.54362">
        <ele>301.51</ele>
        <time>2012-03-04T11:31:38Z</time>
      </trkpt>
      <trkpt lat="43.14004" lon="-0.54377">
        <ele>301.51</ele>
        <time>2012-03-04T11:31:46Z</time>
      </trkpt>
      <trkpt lat="43.14" lon="-0.54389">
        <ele>301.51</ele>
        <time>2012-03-04T11:31:51Z</time>
      </trkpt>
      <trkpt lat="43.13999" lon="-0.5441">
        <ele>301.03</ele>
        <time>2012-03-04T11:31:58Z</time>
      </trkpt>
      <trkpt lat="43.13993" lon="-0.54428">
        <ele>300.55</ele>
        <time>2012-03-04T11:32:04Z</time>
      </trkpt>
      <trkpt lat="43.13982" lon="-0.54445">
        <ele>300.07</ele>
        <time>2012-03-04T11:32:11Z</time>
      </trkpt>
      <trkpt lat="43.13968" lon="-0.54461">
        <ele>299.59</ele>
        <time>2012-03-04T11:32:18Z</time>
      </trkpt>
      <trkpt lat="43.13952" lon="-0.54475">
        <ele>298.63</ele>
        <time>2012-03-04T11:32:25Z</time>
      </trkpt>
      <trkpt lat="43.13948" lon="-0.54477">
        <ele>298.63</ele>
        <time>2012-03-04T11:32:26Z</time>
      </trkpt>
      <trkpt lat="43.1393" lon="-0.54492">
        <ele>298.63</ele>
        <time>2012-03-04T11:32:33Z</time>
      </trkpt>
      <trkpt lat="43.13912" lon="-0.54499">
        <ele>298.15</ele>
        <time>2012-03-04T11:32:39Z</time>
      </trkpt>
      <trkpt lat="43.13898" lon="-0.54505">
        <ele>298.15</ele>
        <time>2012-03-04T11:32:45Z</time>
      </trkpt>
      <trkpt lat="43.13889" lon="-0.54509">
        <ele>298.63</ele>
        <time>2012-03-04T11:32:49Z</time>
      </trkpt>
      <trkpt lat="43.13877" lon="-0.54517">
        <ele>298.63</ele>
        <time>2012-03-04T11:32:54Z</time>
      </trkpt>
      <trkpt lat="43.13852" lon="-0.54518">
        <ele>298.15</ele>
        <time>2012-03-04T11:33:02Z</time>
      </trkpt>
      <trkpt lat="43.13832" lon="-0.54531">
        <ele>295.26</ele>
        <time>2012-03-04T11:33:07Z</time>
      </trkpt>
      <trkpt lat="43.13817" lon="-0.54545">
        <ele>294.3</ele>
        <time>2012-03-04T11:33:12Z</time>
      </trkpt>
      <trkpt lat="43.13808" lon="-0.54552">
        <ele>293.82</ele>
        <time>2012-03-04T11:33:14Z</time>
      </trkpt>
      <trkpt lat="43.13799" lon="-0.54562">
        <ele>292.86</ele>
        <time>2012-03-04T11:33:16Z</time>
      </trkpt>
      <trkpt lat="43.13789" lon="-0.54575">
        <ele>291.42</ele>
        <time>2012-03-04T11:33:18Z</time>
      </trkpt>
      <trkpt lat="43.13781" lon="-0.54587">
        <ele>290.46</ele>
        <time>2012-03-04T11:33:20Z</time>
      </trkpt>
      <trkpt lat="43.13776" lon="-0.54602">
        <ele>289.97</ele>
        <time>2012-03-04T11:33:23Z</time>
      </trkpt>
      <trkpt lat="43.13766" lon="-0.54634">
        <ele>288.05</ele>
        <time>2012-03-04T11:33:30Z</time>
      </trkpt>
      <trkpt lat="43.13759" lon="-0.54663">
        <ele>286.61</ele>
        <time>2012-03-04T11:33:35Z</time>
      </trkpt>
      <trkpt lat="43.13761" lon="-0.54687">
        <ele>285.65</ele>
        <time>2012-03-04T11:33:40Z</time>
      </trkpt>
      <trkpt lat="43.13761" lon="-0.54703">
        <ele>284.69</ele>
        <time>2012-03-04T11:33:43Z</time>
      </trkpt>
      <trkpt lat="43.1377" lon="-0.54744">
        <ele>283.25</ele>
        <time>2012-03-04T11:33:49Z</time>
      </trkpt>
      <trkpt lat="43.13785" lon="-0.54759">
        <ele>282.28</ele>
        <time>2012-03-04T11:33:54Z</time>
      </trkpt>
      <trkpt lat="43.13786" lon="-0.54766">
        <ele>281.32</ele>
        <time>2012-03-04T11:33:56Z</time>
      </trkpt>
      <trkpt lat="43.13793" lon="-0.54791">
        <ele>279.88</ele>
        <time>2012-03-04T11:34:01Z</time>
      </trkpt>
      <trkpt lat="43.13807" lon="-0.54803">
        <ele>279.4</ele>
        <time>2012-03-04T11:34:07Z</time>
      </trkpt>
      <trkpt lat="43.1381" lon="-0.54802">
        <ele>279.88</ele>
        <time>2012-03-04T11:34:08Z</time>
      </trkpt>
      <trkpt lat="43.13828" lon="-0.54811">
        <ele>279.4</ele>
        <time>2012-03-04T11:34:14Z</time>
      </trkpt>
      <trkpt lat="43.13846" lon="-0.54818">
        <ele>279.88</ele>
        <time>2012-03-04T11:34:20Z</time>
      </trkpt>
      <trkpt lat="43.13854" lon="-0.54828">
        <ele>279.88</ele>
        <time>2012-03-04T11:34:23Z</time>
      </trkpt>
      <trkpt lat="43.13864" lon="-0.54834">
        <ele>278.92</ele>
        <time>2012-03-04T11:34:28Z</time>
      </trkpt>
      <trkpt lat="43.13874" lon="-0.54844">
        <ele>277.48</ele>
        <time>2012-03-04T11:34:31Z</time>
      </trkpt>
      <trkpt lat="43.13888" lon="-0.54854">
        <ele>277.96</ele>
        <time>2012-03-04T11:34:37Z</time>
      </trkpt>
      <trkpt lat="43.139" lon="-0.54862">
        <ele>277.96</ele>
        <time>2012-03-04T11:34:41Z</time>
      </trkpt>
      <trkpt lat="43.13912" lon="-0.5488">
        <ele>276.52</ele>
        <time>2012-03-04T11:34:46Z</time>
      </trkpt>
      <trkpt lat="43.13918" lon="-0.54893">
        <ele>276.04</ele>
        <time>2012-03-04T11:34:48Z</time>
      </trkpt>
      <trkpt lat="43.13939" lon="-0.54913">
        <ele>275.07</ele>
        <time>2012-03-04T11:34:54Z</time>
      </trkpt>
      <trkpt lat="43.13951" lon="-0.54907">
        <ele>274.59</ele>
        <time>2012-03-04T11:34:58Z</time>
      </trkpt>
      <trkpt lat="43.13968" lon="-0.5492">
        <ele>272.67</ele>
        <time>2012-03-04T11:35:03Z</time>
      </trkpt>
      <trkpt lat="43.13977" lon="-0.54934">
        <ele>270.75</ele>
        <time>2012-03-04T11:35:06Z</time>
      </trkpt>
      <trkpt lat="43.13984" lon="-0.54938">
        <ele>270.75</ele>
        <time>2012-03-04T11:35:08Z</time>
      </trkpt>
      <trkpt lat="43.13997" lon="-0.54946">
        <ele>269.31</ele>
        <time>2012-03-04T11:35:12Z</time>
      </trkpt>
      <trkpt lat="43.14009" lon="-0.5494">
        <ele>268.35</ele>
        <time>2012-03-04T11:35:17Z</time>
      </trkpt>
      <trkpt lat="43.14011" lon="-0.54933">
        <ele>268.35</ele>
        <time>2012-03-04T11:35:20Z</time>
      </trkpt>
      <trkpt lat="43.14014" lon="-0.54923">
        <ele>265.94</ele>
        <time>2012-03-04T11:35:25Z</time>
      </trkpt>
      <trkpt lat="43.14015" lon="-0.54923">
        <ele>265.94</ele>
        <time>2012-03-04T11:35:26Z</time>
      </trkpt>
      <trkpt lat="43.1402" lon="-0.54923">
        <ele>266.42</ele>
        <time>2012-03-04T11:35:32Z</time>
      </trkpt>
      <trkpt lat="43.14031" lon="-0.54925">
        <ele>268.35</ele>
        <time>2012-03-04T11:35:40Z</time>
      </trkpt>
      <trkpt lat="43.14036" lon="-0.54929">
        <ele>269.31</ele>
        <time>2012-03-04T11:35:45Z</time>
      </trkpt>
      <trkpt lat="43.14049" lon="-0.54936">
        <ele>268.83</ele>
        <time>2012-03-04T11:35:50Z</time>
      </trkpt>
      <trkpt lat="43.14064" lon="-0.54937">
        <ele>268.83</ele>
        <time>2012-03-04T11:35:55Z</time>
      </trkpt>
      <trkpt lat="43.14067" lon="-0.54938">
        <ele>268.35</ele>
        <time>2012-03-04T11:35:56Z</time>
      </trkpt>
      <trkpt lat="43.14077" lon="-0.5494">
        <ele>268.83</ele>
        <time>2012-03-04T11:36:00Z</time>
      </trkpt>
      <trkpt lat="43.14086" lon="-0.54939">
        <ele>268.83</ele>
        <time>2012-03-04T11:36:04Z</time>
      </trkpt>
      <trkpt lat="43.14095" lon="-0.5495">
        <ele>268.83</ele>
        <time>2012-03-04T11:36:08Z</time>
      </trkpt>
      <trkpt lat="43.14112" lon="-0.5497">
        <ele>267.86</ele>
        <time>2012-03-04T11:36:14Z</time>
      </trkpt>
      <trkpt lat="43.1412" lon="-0.54985">
        <ele>266.42</ele>
        <time>2012-03-04T11:36:18Z</time>
      </trkpt>
      <trkpt lat="43.14131" lon="-0.54997">
        <ele>266.9</ele>
        <time>2012-03-04T11:36:23Z</time>
      </trkpt>
      <trkpt lat="43.1414" lon="-0.55024">
        <ele>265.46</ele>
        <time>2012-03-04T11:36:30Z</time>
      </trkpt>
      <trkpt lat="43.14145" lon="-0.55033">
        <ele>265.94</ele>
        <time>2012-03-04T11:36:36Z</time>
      </trkpt>
      <trkpt lat="43.14145" lon="-0.55042">
        <ele>265.46</ele>
        <time>2012-03-04T11:36:40Z</time>
      </trkpt>
      <trkpt lat="43.14145" lon="-0.55067">
        <ele>264.98</ele>
        <time>2012-03-04T11:36:46Z</time>
      </trkpt>
      <trkpt lat="43.14144" lon="-0.55078">
        <ele>264.5</ele>
        <time>2012-03-04T11:36:51Z</time>
      </trkpt>
      <trkpt lat="43.14136" lon="-0.55104">
        <ele>264.02</ele>
        <time>2012-03-04T11:36:58Z</time>
      </trkpt>
      <trkpt lat="43.14129" lon="-0.55127">
        <ele>264.02</ele>
        <time>2012-03-04T11:37:05Z</time>
      </trkpt>
      <trkpt lat="43.14123" lon="-0.5514">
        <ele>264.5</ele>
        <time>2012-03-04T11:37:10Z</time>
      </trkpt>
      <trkpt lat="43.14122" lon="-0.55145">
        <ele>264.5</ele>
        <time>2012-03-04T11:37:12Z</time>
      </trkpt>
      <trkpt lat="43.1412" lon="-0.55162">
        <ele>264.98</ele>
        <time>2012-03-04T11:37:19Z</time>
      </trkpt>
      <trkpt lat="43.14119" lon="-0.55165">
        <ele>264.98</ele>
        <time>2012-03-04T11:37:20Z</time>
      </trkpt>
      <trkpt lat="43.14113" lon="-0.55188">
        <ele>267.38</ele>
        <time>2012-03-04T11:37:28Z</time>
      </trkpt>
      <trkpt lat="43.14112" lon="-0.55207">
        <ele>269.79</ele>
        <time>2012-03-04T11:37:36Z</time>
      </trkpt>
      <trkpt lat="43.1411" lon="-0.55212">
        <ele>269.79</ele>
        <time>2012-03-04T11:37:40Z</time>
      </trkpt>
      <trkpt lat="43.14106" lon="-0.55218">
        <ele>270.27</ele>
        <time>2012-03-04T11:37:44Z</time>
      </trkpt>
      <trkpt lat="43.14101" lon="-0.5523">
        <ele>270.75</ele>
        <time>2012-03-04T11:37:49Z</time>
      </trkpt>
      <trkpt lat="43.14088" lon="-0.55245">
        <ele>270.75</ele>
        <time>2012-03-04T11:37:57Z</time>
      </trkpt>
      <trkpt lat="43.1408" lon="-0.55259">
        <ele>271.71</ele>
        <time>2012-03-04T11:38:03Z</time>
      </trkpt>
      <trkpt lat="43.14076" lon="-0.55266">
        <ele>271.23</ele>
        <time>2012-03-04T11:38:06Z</time>
      </trkpt>
      <trkpt lat="43.14059" lon="-0.55274">
        <ele>269.31</ele>
        <time>2012-03-04T11:38:12Z</time>
      </trkpt>
      <trkpt lat="43.14043" lon="-0.55298">
        <ele>269.31</ele>
        <time>2012-03-04T11:38:18Z</time>
      </trkpt>
      <trkpt lat="43.14041" lon="-0.55304">
        <ele>269.31</ele>
        <time>2012-03-04T11:38:20Z</time>
      </trkpt>
      <trkpt lat="43.14042" lon="-0.55315">
        <ele>269.79</ele>
        <time>2012-03-04T11:38:24Z</time>
      </trkpt>
      <trkpt lat="43.14042" lon="-0.55325">
        <ele>269.79</ele>
        <time>2012-03-04T11:38:27Z</time>
      </trkpt>
      <trkpt lat="43.1404" lon="-0.55332">
        <ele>269.31</ele>
        <time>2012-03-04T11:38:30Z</time>
      </trkpt>
      <trkpt lat="43.14039" lon="-0.55347">
        <ele>269.31</ele>
        <time>2012-03-04T11:38:35Z</time>
      </trkpt>
      <trkpt lat="43.14042" lon="-0.55356">
        <ele>269.79</ele>
        <time>2012-03-04T11:38:39Z</time>
      </trkpt>
      <trkpt lat="43.1405" lon="-0.5538">
        <ele>269.79</ele>
        <time>2012-03-04T11:38:47Z</time>
      </trkpt>
      <trkpt lat="43.14059" lon="-0.55394">
        <ele>270.27</ele>
        <time>2012-03-04T11:38:53Z</time>
      </trkpt>
      <trkpt lat="43.1406" lon="-0.55395">
        <ele>270.27</ele>
        <time>2012-03-04T11:38:54Z</time>
      </trkpt>
      <trkpt lat="43.14062" lon="-0.55412">
        <ele>270.27</ele>
        <time>2012-03-04T11:38:59Z</time>
      </trkpt>
      <trkpt lat="43.14061" lon="-0.55434">
        <ele>268.83</ele>
        <time>2012-03-04T11:39:05Z</time>
      </trkpt>
      <trkpt lat="43.14066" lon="-0.55448">
        <ele>268.83</ele>
        <time>2012-03-04T11:39:11Z</time>
      </trkpt>
      <trkpt lat="43.14072" lon="-0.55463">
        <ele>269.31</ele>
        <time>2012-03-04T11:39:17Z</time>
      </trkpt>
      <trkpt lat="43.14078" lon="-0.55481">
        <ele>267.38</ele>
        <time>2012-03-04T11:39:24Z</time>
      </trkpt>
      <trkpt lat="43.1408" lon="-0.55483">
        <ele>267.86</ele>
        <time>2012-03-04T11:39:25Z</time>
      </trkpt>
      <trkpt lat="43.14087" lon="-0.55492">
        <ele>267.86</ele>
        <time>2012-03-04T11:39:30Z</time>
      </trkpt>
      <trkpt lat="43.14089" lon="-0.55494">
        <ele>268.83</ele>
        <time>2012-03-04T11:39:32Z</time>
      </trkpt>
      <trkpt lat="43.14097" lon="-0.55508">
        <ele>268.83</ele>
        <time>2012-03-04T11:39:39Z</time>
      </trkpt>
      <trkpt lat="43.14098" lon="-0.55511">
        <ele>267.86</ele>
        <time>2012-03-04T11:39:44Z</time>
      </trkpt>
      <trkpt lat="43.14099" lon="-0.55516">
        <ele>265.94</ele>
        <time>2012-03-04T11:39:49Z</time>
      </trkpt>
      <trkpt lat="43.14099" lon="-0.5552">
        <ele>264.98</ele>
        <time>2012-03-04T11:39:51Z</time>
      </trkpt>
      <trkpt lat="43.14099" lon="-0.55521">
        <ele>265.46</ele>
        <time>2012-03-04T11:39:53Z</time>
      </trkpt>
      <trkpt lat="43.14103" lon="-0.5553">
        <ele>264.5</ele>
        <time>2012-03-04T11:39:58Z</time>
      </trkpt>
      <trkpt lat="43.14113" lon="-0.55543">
        <ele>264.98</ele>
        <time>2012-03-04T11:40:04Z</time>
      </trkpt>
      <trkpt lat="43.14117" lon="-0.55548">
        <ele>264.98</ele>
        <time>2012-03-04T11:40:06Z</time>
      </trkpt>
      <trkpt lat="43.14133" lon="-0.55549">
        <ele>265.94</ele>
        <time>2012-03-04T11:40:14Z</time>
      </trkpt>
      <trkpt lat="43.14144" lon="-0.55541">
        <ele>266.9</ele>
        <time>2012-03-04T11:40:20Z</time>
      </trkpt>
      <trkpt lat="43.14151" lon="-0.55532">
        <ele>267.38</ele>
        <time>2012-03-04T11:40:25Z</time>
      </trkpt>
      <trkpt lat="43.14158" lon="-0.55516">
        <ele>267.86</ele>
        <time>2012-03-04T11:40:31Z</time>
      </trkpt>
      <trkpt lat="43.1417" lon="-0.55491">
        <ele>267.86</ele>
        <time>2012-03-04T11:40:39Z</time>
      </trkpt>
      <trkpt lat="43.1418" lon="-0.55475">
        <ele>268.83</ele>
        <time>2012-03-04T11:40:45Z</time>
      </trkpt>
      <trkpt lat="43.14187" lon="-0.5546">
        <ele>270.27</ele>
        <time>2012-03-04T11:40:52Z</time>
      </trkpt>
      <trkpt lat="43.14191" lon="-0.55444">
        <ele>270.75</ele>
        <time>2012-03-04T11:40:59Z</time>
      </trkpt>
      <trkpt lat="43.14191" lon="-0.55426">
        <ele>272.67</ele>
        <time>2012-03-04T11:41:07Z</time>
      </trkpt>
      <trkpt lat="43.1419" lon="-0.55422">
        <ele>273.63</ele>
        <time>2012-03-04T11:41:10Z</time>
      </trkpt>
      <trkpt lat="43.14193" lon="-0.55411">
        <ele>274.11</ele>
        <time>2012-03-04T11:41:17Z</time>
      </trkpt>
      <trkpt lat="43.14194" lon="-0.55405">
        <ele>275.07</ele>
        <time>2012-03-04T11:41:21Z</time>
      </trkpt>
      <trkpt lat="43.14205" lon="-0.55394">
        <ele>274.11</ele>
        <time>2012-03-04T11:41:28Z</time>
      </trkpt>
      <trkpt lat="43.14214" lon="-0.55384">
        <ele>274.11</ele>
        <time>2012-03-04T11:41:34Z</time>
      </trkpt>
      <trkpt lat="43.14221" lon="-0.55373">
        <ele>275.56</ele>
        <time>2012-03-04T11:41:41Z</time>
      </trkpt>
      <trkpt lat="43.14232" lon="-0.5536">
        <ele>276.04</ele>
        <time>2012-03-04T11:41:49Z</time>
      </trkpt>
      <trkpt lat="43.14243" lon="-0.55349">
        <ele>276.04</ele>
        <time>2012-03-04T11:41:56Z</time>
      </trkpt>
      <trkpt lat="43.14248" lon="-0.55344">
        <ele>276.52</ele>
        <time>2012-03-04T11:42:00Z</time>
      </trkpt>
      <trkpt lat="43.14251" lon="-0.55343">
        <ele>276.52</ele>
        <time>2012-03-04T11:42:02Z</time>
      </trkpt>
      <trkpt lat="43.14258" lon="-0.55334">
        <ele>276.52</ele>
        <time>2012-03-04T11:42:07Z</time>
      </trkpt>
      <trkpt lat="43.14265" lon="-0.55326">
        <ele>277</ele>
        <time>2012-03-04T11:42:15Z</time>
      </trkpt>
      <trkpt lat="43.14271" lon="-0.5532">
        <ele>277.96</ele>
        <time>2012-03-04T11:42:21Z</time>
      </trkpt>
      <trkpt lat="43.14277" lon="-0.55313">
        <ele>278.44</ele>
        <time>2012-03-04T11:42:28Z</time>
      </trkpt>
      <trkpt lat="43.14284" lon="-0.5531">
        <ele>278.92</ele>
        <time>2012-03-04T11:42:32Z</time>
      </trkpt>
      <trkpt lat="43.14289" lon="-0.5531">
        <ele>278.44</ele>
        <time>2012-03-04T11:42:35Z</time>
      </trkpt>
      <trkpt lat="43.14298" lon="-0.55302">
        <ele>279.88</ele>
        <time>2012-03-04T11:42:43Z</time>
      </trkpt>
      <trkpt lat="43.14303" lon="-0.55299">
        <ele>280.36</ele>
        <time>2012-03-04T11:42:47Z</time>
      </trkpt>
      <trkpt lat="43.14314" lon="-0.55286">
        <ele>279.4</ele>
        <time>2012-03-04T11:42:53Z</time>
      </trkpt>
      <trkpt lat="43.14335" lon="-0.55267">
        <ele>277.96</ele>
        <time>2012-03-04T11:43:02Z</time>
      </trkpt>
      <trkpt lat="43.14347" lon="-0.55265">
        <ele>275.56</ele>
        <time>2012-03-04T11:43:06Z</time>
      </trkpt>
      <trkpt lat="43.14352" lon="-0.55261">
        <ele>276.04</ele>
        <time>2012-03-04T11:43:09Z</time>
      </trkpt>
      <trkpt lat="43.14364" lon="-0.55256">
        <ele>275.07</ele>
        <time>2012-03-04T11:43:16Z</time>
      </trkpt>
      <trkpt lat="43.14372" lon="-0.55255">
        <ele>273.63</ele>
        <time>2012-03-04T11:43:19Z</time>
      </trkpt>
      <trkpt lat="43.14388" lon="-0.55251">
        <ele>274.11</ele>
        <time>2012-03-04T11:43:26Z</time>
      </trkpt>
      <trkpt lat="43.14399" lon="-0.55255">
        <ele>272.19</ele>
        <time>2012-03-04T11:43:31Z</time>
      </trkpt>
      <trkpt lat="43.14403" lon="-0.55253">
        <ele>273.15</ele>
        <time>2012-03-04T11:43:35Z</time>
      </trkpt>
      <trkpt lat="43.1441" lon="-0.55248">
        <ele>272.67</ele>
        <time>2012-03-04T11:43:41Z</time>
      </trkpt>
      <trkpt lat="43.14416" lon="-0.55245">
        <ele>272.19</ele>
        <time>2012-03-04T11:43:44Z</time>
      </trkpt>
      <trkpt lat="43.14421" lon="-0.55245">
        <ele>272.19</ele>
        <time>2012-03-04T11:43:47Z</time>
      </trkpt>
      <trkpt lat="43.14424" lon="-0.55236">
        <ele>270.75</ele>
        <time>2012-03-04T11:43:54Z</time>
      </trkpt>
      <trkpt lat="43.14427" lon="-0.55229">
        <ele>271.71</ele>
        <time>2012-03-04T11:43:59Z</time>
      </trkpt>
      <trkpt lat="43.14431" lon="-0.5522">
        <ele>273.15</ele>
        <time>2012-03-04T11:44:05Z</time>
      </trkpt>
      <trkpt lat="43.14434" lon="-0.55219">
        <ele>273.15</ele>
        <time>2012-03-04T11:44:08Z</time>
      </trkpt>
      <trkpt lat="43.14445" lon="-0.55221">
        <ele>274.11</ele>
        <time>2012-03-04T11:44:15Z</time>
      </trkpt>
      <trkpt lat="43.14447" lon="-0.55222">
        <ele>273.63</ele>
        <time>2012-03-04T11:44:16Z</time>
      </trkpt>
      <trkpt lat="43.14456" lon="-0.55237">
        <ele>271.71</ele>
        <time>2012-03-04T11:44:22Z</time>
      </trkpt>
      <trkpt lat="43.14459" lon="-0.55243">
        <ele>270.75</ele>
        <time>2012-03-04T11:44:25Z</time>
      </trkpt>
      <trkpt lat="43.14464" lon="-0.55246">
        <ele>270.75</ele>
        <time>2012-03-04T11:44:29Z</time>
      </trkpt>
      <trkpt lat="43.14466" lon="-0.55248">
        <ele>270.75</ele>
        <time>2012-03-04T11:44:31Z</time>
      </trkpt>
      <trkpt lat="43.1447" lon="-0.55248">
        <ele>270.75</ele>
        <time>2012-03-04T11:44:34Z</time>
      </trkpt>
      <trkpt lat="43.14486" lon="-0.55252">
        <ele>270.27</ele>
        <time>2012-03-04T11:44:41Z</time>
      </trkpt>
      <trkpt lat="43.14487" lon="-0.55252">
        <ele>270.75</ele>
        <time>2012-03-04T11:44:42Z</time>
      </trkpt>
      <trkpt lat="43.14496" lon="-0.55258">
        <ele>269.31</ele>
        <time>2012-03-04T11:44:46Z</time>
      </trkpt>
      <trkpt lat="43.14499" lon="-0.55259">
        <ele>268.35</ele>
        <time>2012-03-04T11:44:48Z</time>
      </trkpt>
      <trkpt lat="43.14509" lon="-0.55256">
        <ele>267.86</ele>
        <time>2012-03-04T11:44:53Z</time>
      </trkpt>
      <trkpt lat="43.14522" lon="-0.55247">
        <ele>267.38</ele>
        <time>2012-03-04T11:44:58Z</time>
      </trkpt>
      <trkpt lat="43.14528" lon="-0.55242">
        <ele>266.9</ele>
        <time>2012-03-04T11:45:01Z</time>
      </trkpt>
      <trkpt lat="43.14547" lon="-0.55247">
        <ele>267.38</ele>
        <time>2012-03-04T11:45:07Z</time>
      </trkpt>
      <trkpt lat="43.14567" lon="-0.55266">
        <ele>266.9</ele>
        <time>2012-03-04T11:45:14Z</time>
      </trkpt>
      <trkpt lat="43.14589" lon="-0.55287">
        <ele>267.38</ele>
        <time>2012-03-04T11:45:21Z</time>
      </trkpt>
      <trkpt lat="43.14603" lon="-0.55314">
        <ele>267.38</ele>
        <time>2012-03-04T11:45:27Z</time>
      </trkpt>
      <trkpt lat="43.14616" lon="-0.55351">
        <ele>266.42</ele>
        <time>2012-03-04T11:45:33Z</time>
      </trkpt>
      <trkpt lat="43.14619" lon="-0.55358">
        <ele>265.94</ele>
        <time>2012-03-04T11:45:34Z</time>
      </trkpt>
      <trkpt lat="43.14621" lon="-0.55365">
        <ele>265.94</ele>
        <time>2012-03-04T11:45:35Z</time>
      </trkpt>
      <trkpt lat="43.14622" lon="-0.55372">
        <ele>265.94</ele>
        <time>2012-03-04T11:45:36Z</time>
      </trkpt>
      <trkpt lat="43.14623" lon="-0.55379">
        <ele>265.94</ele>
        <time>2012-03-04T11:45:37Z</time>
      </trkpt>
      <trkpt lat="43.14623" lon="-0.55385">
        <ele>265.46</ele>
        <time>2012-03-04T11:45:38Z</time>
      </trkpt>
      <trkpt lat="43.14623" lon="-0.55391">
        <ele>265.46</ele>
        <time>2012-03-04T11:45:39Z</time>
      </trkpt>
      <trkpt lat="43.1462" lon="-0.55413">
        <ele>264.5</ele>
        <time>2012-03-04T11:45:42Z</time>
      </trkpt>
      <trkpt lat="43.1462" lon="-0.55429">
        <ele>264.5</ele>
        <time>2012-03-04T11:45:44Z</time>
      </trkpt>
      <trkpt lat="43.14621" lon="-0.55438">
        <ele>263.54</ele>
        <time>2012-03-04T11:45:45Z</time>
      </trkpt>
      <trkpt lat="43.14622" lon="-0.55446">
        <ele>264.02</ele>
        <time>2012-03-04T11:45:46Z</time>
      </trkpt>
      <trkpt lat="43.14629" lon="-0.55473">
        <ele>264.5</ele>
        <time>2012-03-04T11:45:50Z</time>
      </trkpt>
      <trkpt lat="43.14639" lon="-0.55498">
        <ele>265.94</ele>
        <time>2012-03-04T11:45:56Z</time>
      </trkpt>
      <trkpt lat="43.14646" lon="-0.55524">
        <ele>267.86</ele>
        <time>2012-03-04T11:46:03Z</time>
      </trkpt>
      <trkpt lat="43.1465" lon="-0.55549">
        <ele>270.27</ele>
        <time>2012-03-04T11:46:12Z</time>
      </trkpt>
      <trkpt lat="43.14655" lon="-0.5557">
        <ele>271.71</ele>
        <time>2012-03-04T11:46:20Z</time>
      </trkpt>
      <trkpt lat="43.14657" lon="-0.55593">
        <ele>272.67</ele>
        <time>2012-03-04T11:46:28Z</time>
      </trkpt>
      <trkpt lat="43.14658" lon="-0.55603">
        <ele>273.15</ele>
        <time>2012-03-04T11:46:32Z</time>
      </trkpt>
      <trkpt lat="43.14657" lon="-0.55605">
        <ele>272.67</ele>
        <time>2012-03-04T11:46:33Z</time>
      </trkpt>
      <trkpt lat="43.1465" lon="-0.55609">
        <ele>271.23</ele>
        <time>2012-03-04T11:46:36Z</time>
      </trkpt>
      <trkpt lat="43.14645" lon="-0.55612">
        <ele>270.27</ele>
        <time>2012-03-04T11:46:38Z</time>
      </trkpt>
      <trkpt lat="43.14635" lon="-0.55614">
        <ele>269.31</ele>
        <time>2012-03-04T11:46:42Z</time>
      </trkpt>
      <trkpt lat="43.14623" lon="-0.55619">
        <ele>264.98</ele>
        <time>2012-03-04T11:46:48Z</time>
      </trkpt>
      <trkpt lat="43.1462" lon="-0.55623">
        <ele>263.06</ele>
        <time>2012-03-04T11:46:51Z</time>
      </trkpt>
      <trkpt lat="43.1462" lon="-0.55628">
        <ele>263.06</ele>
        <time>2012-03-04T11:46:54Z</time>
      </trkpt>
      <trkpt lat="43.14621" lon="-0.55641">
        <ele>264.02</ele>
        <time>2012-03-04T11:47:00Z</time>
      </trkpt>
      <trkpt lat="43.14622" lon="-0.5565">
        <ele>264.98</ele>
        <time>2012-03-04T11:47:04Z</time>
      </trkpt>
      <trkpt lat="43.14621" lon="-0.55662">
        <ele>264.98</ele>
        <time>2012-03-04T11:47:09Z</time>
      </trkpt>
      <trkpt lat="43.14621" lon="-0.55682">
        <ele>264.98</ele>
        <time>2012-03-04T11:47:17Z</time>
      </trkpt>
      <trkpt lat="43.14619" lon="-0.55687">
        <ele>264.98</ele>
        <time>2012-03-04T11:47:19Z</time>
      </trkpt>
      <trkpt lat="43.14616" lon="-0.55704">
        <ele>264.98</ele>
        <time>2012-03-04T11:47:26Z</time>
      </trkpt>
      <trkpt lat="43.14617" lon="-0.55707">
        <ele>264.02</ele>
        <time>2012-03-04T11:47:27Z</time>
      </trkpt>
      <trkpt lat="43.14615" lon="-0.55729">
        <ele>263.54</ele>
        <time>2012-03-04T11:47:34Z</time>
      </trkpt>
      <trkpt lat="43.14616" lon="-0.55736">
        <ele>262.58</ele>
        <time>2012-03-04T11:47:40Z</time>
      </trkpt>
      <trkpt lat="43.14618" lon="-0.55744">
        <ele>263.54</ele>
        <time>2012-03-04T11:47:44Z</time>
      </trkpt>
      <trkpt lat="43.14616" lon="-0.55765">
        <ele>262.58</ele>
        <time>2012-03-04T11:47:50Z</time>
      </trkpt>
      <trkpt lat="43.14616" lon="-0.55768">
        <ele>262.1</ele>
        <time>2012-03-04T11:47:51Z</time>
      </trkpt>
      <trkpt lat="43.14615" lon="-0.55788">
        <ele>262.1</ele>
        <time>2012-03-04T11:47:57Z</time>
      </trkpt>
      <trkpt lat="43.14617" lon="-0.55794">
        <ele>263.06</ele>
        <time>2012-03-04T11:48:00Z</time>
      </trkpt>
      <trkpt lat="43.14617" lon="-0.55804">
        <ele>262.1</ele>
        <time>2012-03-04T11:48:04Z</time>
      </trkpt>
      <trkpt lat="43.14616" lon="-0.55827">
        <ele>263.54</ele>
        <time>2012-03-04T11:48:11Z</time>
      </trkpt>
      <trkpt lat="43.14621" lon="-0.55846">
        <ele>263.06</ele>
        <time>2012-03-04T11:48:18Z</time>
      </trkpt>
      <trkpt lat="43.14628" lon="-0.55869">
        <ele>262.1</ele>
        <time>2012-03-04T11:48:25Z</time>
      </trkpt>
      <trkpt lat="43.14634" lon="-0.55883">
        <ele>262.1</ele>
        <time>2012-03-04T11:48:30Z</time>
      </trkpt>
      <trkpt lat="43.1464" lon="-0.55892">
        <ele>262.58</ele>
        <time>2012-03-04T11:48:34Z</time>
      </trkpt>
      <trkpt lat="43.14652" lon="-0.55896">
        <ele>263.54</ele>
        <time>2012-03-04T11:48:42Z</time>
      </trkpt>
      <trkpt lat="43.14656" lon="-0.55903">
        <ele>263.54</ele>
        <time>2012-03-04T11:48:45Z</time>
      </trkpt>
      <trkpt lat="43.14669" lon="-0.55915">
        <ele>264.02</ele>
        <time>2012-03-04T11:48:52Z</time>
      </trkpt>
      <trkpt lat="43.1468" lon="-0.55933">
        <ele>261.62</ele>
        <time>2012-03-04T11:48:58Z</time>
      </trkpt>
      <trkpt lat="43.14684" lon="-0.55942">
        <ele>261.14</ele>
        <time>2012-03-04T11:49:03Z</time>
      </trkpt>
      <trkpt lat="43.14691" lon="-0.55951">
        <ele>260.65</ele>
        <time>2012-03-04T11:49:07Z</time>
      </trkpt>
      <trkpt lat="43.14695" lon="-0.55954">
        <ele>261.62</ele>
        <time>2012-03-04T11:49:09Z</time>
      </trkpt>
      <trkpt lat="43.14704" lon="-0.55958">
        <ele>262.58</ele>
        <time>2012-03-04T11:49:14Z</time>
      </trkpt>
      <trkpt lat="43.14712" lon="-0.55968">
        <ele>262.58</ele>
        <time>2012-03-04T11:49:19Z</time>
      </trkpt>
      <trkpt lat="43.14714" lon="-0.55968">
        <ele>262.58</ele>
        <time>2012-03-04T11:49:20Z</time>
      </trkpt>
      <trkpt lat="43.14728" lon="-0.55964">
        <ele>263.54</ele>
        <time>2012-03-04T11:49:26Z</time>
      </trkpt>
      <trkpt lat="43.14731" lon="-0.55965">
        <ele>263.54</ele>
        <time>2012-03-04T11:49:28Z</time>
      </trkpt>
      <trkpt lat="43.14737" lon="-0.55962">
        <ele>264.02</ele>
        <time>2012-03-04T11:49:31Z</time>
      </trkpt>
      <trkpt lat="43.14755" lon="-0.55968">
        <ele>264.02</ele>
        <time>2012-03-04T11:49:39Z</time>
      </trkpt>
      <trkpt lat="43.14763" lon="-0.55971">
        <ele>263.54</ele>
        <time>2012-03-04T11:49:44Z</time>
      </trkpt>
      <trkpt lat="43.1477" lon="-0.55968">
        <ele>264.02</ele>
        <time>2012-03-04T11:49:47Z</time>
      </trkpt>
      <trkpt lat="43.14772" lon="-0.55965">
        <ele>264.02</ele>
        <time>2012-03-04T11:49:49Z</time>
      </trkpt>
      <trkpt lat="43.14771" lon="-0.55956">
        <ele>264.98</ele>
        <time>2012-03-04T11:49:54Z</time>
      </trkpt>
      <trkpt lat="43.14774" lon="-0.55944">
        <ele>264.98</ele>
        <time>2012-03-04T11:49:58Z</time>
      </trkpt>
      <trkpt lat="43.14782" lon="-0.55924">
        <ele>265.94</ele>
        <time>2012-03-04T11:50:05Z</time>
      </trkpt>
      <trkpt lat="43.14799" lon="-0.55924">
        <ele>265.46</ele>
        <time>2012-03-04T11:50:11Z</time>
      </trkpt>
      <trkpt lat="43.14835" lon="-0.55936">
        <ele>265.46</ele>
        <time>2012-03-04T11:50:20Z</time>
      </trkpt>
      <trkpt lat="43.14848" lon="-0.55937">
        <ele>264.98</ele>
        <time>2012-03-04T11:50:23Z</time>
      </trkpt>
      <trkpt lat="43.14873" lon="-0.55932">
        <ele>264.98</ele>
        <time>2012-03-04T11:50:29Z</time>
      </trkpt>
      <trkpt lat="43.14903" lon="-0.55922">
        <ele>264.98</ele>
        <time>2012-03-04T11:50:36Z</time>
      </trkpt>
      <trkpt lat="43.14922" lon="-0.55914">
        <ele>264.98</ele>
        <time>2012-03-04T11:50:41Z</time>
      </trkpt>
      <trkpt lat="43.14947" lon="-0.55908">
        <ele>265.46</ele>
        <time>2012-03-04T11:50:47Z</time>
      </trkpt>
      <trkpt lat="43.14973" lon="-0.55904">
        <ele>264.98</ele>
        <time>2012-03-04T11:50:53Z</time>
      </trkpt>
      <trkpt lat="43.15012" lon="-0.55903">
        <ele>264.98</ele>
        <time>2012-03-04T11:51:02Z</time>
      </trkpt>
      <trkpt lat="43.15042" lon="-0.55905">
        <ele>264.98</ele>
        <time>2012-03-04T11:51:08Z</time>
      </trkpt>
      <trkpt lat="43.15047" lon="-0.55907">
        <ele>264.98</ele>
        <time>2012-03-04T11:51:09Z</time>
      </trkpt>
      <trkpt lat="43.15052" lon="-0.55908">
        <ele>264.98</ele>
        <time>2012-03-04T11:51:10Z</time>
      </trkpt>
      <trkpt lat="43.15078" lon="-0.55915">
        <ele>264.5</ele>
        <time>2012-03-04T11:51:15Z</time>
      </trkpt>
      <trkpt lat="43.15097" lon="-0.55926">
        <ele>264.02</ele>
        <time>2012-03-04T11:51:19Z</time>
      </trkpt>
      <trkpt lat="43.15103" lon="-0.55929">
        <ele>264.02</ele>
        <time>2012-03-04T11:51:20Z</time>
      </trkpt>
      <trkpt lat="43.15108" lon="-0.55933">
        <ele>263.54</ele>
        <time>2012-03-04T11:51:21Z</time>
      </trkpt>
      <trkpt lat="43.15141" lon="-0.55959">
        <ele>264.5</ele>
        <time>2012-03-04T11:51:28Z</time>
      </trkpt>
      <trkpt lat="43.15159" lon="-0.55972">
        <ele>264.5</ele>
        <time>2012-03-04T11:51:32Z</time>
      </trkpt>
      <trkpt lat="43.15195" lon="-0.56002">
        <ele>264.02</ele>
        <time>2012-03-04T11:51:40Z</time>
      </trkpt>
      <trkpt lat="43.152" lon="-0.56004">
        <ele>264.02</ele>
        <time>2012-03-04T11:51:41Z</time>
      </trkpt>
      <trkpt lat="43.15205" lon="-0.56006">
        <ele>263.54</ele>
        <time>2012-03-04T11:51:42Z</time>
      </trkpt>
      <trkpt lat="43.15215" lon="-0.5601">
        <ele>264.02</ele>
        <time>2012-03-04T11:51:44Z</time>
      </trkpt>
      <trkpt lat="43.1522" lon="-0.56013">
        <ele>264.02</ele>
        <time>2012-03-04T11:51:45Z</time>
      </trkpt>
      <trkpt lat="43.15224" lon="-0.56016">
        <ele>264.02</ele>
        <time>2012-03-04T11:51:46Z</time>
      </trkpt>
      <trkpt lat="43.15229" lon="-0.56018">
        <ele>264.02</ele>
        <time>2012-03-04T11:51:47Z</time>
      </trkpt>
      <trkpt lat="43.15234" lon="-0.5602">
        <ele>263.54</ele>
        <time>2012-03-04T11:51:48Z</time>
      </trkpt>
      <trkpt lat="43.15243" lon="-0.56023">
        <ele>263.54</ele>
        <time>2012-03-04T11:51:50Z</time>
      </trkpt>
      <trkpt lat="43.15247" lon="-0.56026">
        <ele>263.54</ele>
        <time>2012-03-04T11:51:51Z</time>
      </trkpt>
      <trkpt lat="43.15252" lon="-0.56029">
        <ele>263.54</ele>
        <time>2012-03-04T11:51:52Z</time>
      </trkpt>
      <trkpt lat="43.15265" lon="-0.56039">
        <ele>263.06</ele>
        <time>2012-03-04T11:51:55Z</time>
      </trkpt>
      <trkpt lat="43.15269" lon="-0.56043">
        <ele>263.54</ele>
        <time>2012-03-04T11:51:56Z</time>
      </trkpt>
      <trkpt lat="43.15287" lon="-0.5606">
        <ele>263.06</ele>
        <time>2012-03-04T11:52:00Z</time>
      </trkpt>
      <trkpt lat="43.15318" lon="-0.56087">
        <ele>262.58</ele>
        <time>2012-03-04T11:52:07Z</time>
      </trkpt>
      <trkpt lat="43.15335" lon="-0.56108">
        <ele>263.54</ele>
        <time>2012-03-04T11:52:12Z</time>
      </trkpt>
      <trkpt lat="43.15345" lon="-0.56122">
        <ele>263.54</ele>
        <time>2012-03-04T11:52:15Z</time>
      </trkpt>
      <trkpt lat="43.15349" lon="-0.56127">
        <ele>263.06</ele>
        <time>2012-03-04T11:52:16Z</time>
      </trkpt>
      <trkpt lat="43.15352" lon="-0.56132">
        <ele>263.06</ele>
        <time>2012-03-04T11:52:17Z</time>
      </trkpt>
      <trkpt lat="43.15376" lon="-0.56166">
        <ele>262.58</ele>
        <time>2012-03-04T11:52:23Z</time>
      </trkpt>
      <trkpt lat="43.15407" lon="-0.56204">
        <ele>262.58</ele>
        <time>2012-03-04T11:52:30Z</time>
      </trkpt>
      <trkpt lat="43.15432" lon="-0.56239">
        <ele>261.62</ele>
        <time>2012-03-04T11:52:36Z</time>
      </trkpt>
      <trkpt lat="43.1545" lon="-0.5626">
        <ele>262.1</ele>
        <time>2012-03-04T11:52:40Z</time>
      </trkpt>
      <trkpt lat="43.15478" lon="-0.56292">
        <ele>263.54</ele>
        <time>2012-03-04T11:52:47Z</time>
      </trkpt>
      <trkpt lat="43.15481" lon="-0.56296">
        <ele>264.02</ele>
        <time>2012-03-04T11:52:48Z</time>
      </trkpt>
      <trkpt lat="43.15485" lon="-0.56299">
        <ele>263.54</ele>
        <time>2012-03-04T11:52:49Z</time>
      </trkpt>
      <trkpt lat="43.15506" lon="-0.56324">
        <ele>263.06</ele>
        <time>2012-03-04T11:52:55Z</time>
      </trkpt>
      <trkpt lat="43.15509" lon="-0.56328">
        <ele>263.54</ele>
        <time>2012-03-04T11:52:56Z</time>
      </trkpt>
      <trkpt lat="43.15523" lon="-0.56345">
        <ele>262.58</ele>
        <time>2012-03-04T11:53:00Z</time>
      </trkpt>
      <trkpt lat="43.15527" lon="-0.56349">
        <ele>262.58</ele>
        <time>2012-03-04T11:53:01Z</time>
      </trkpt>
      <trkpt lat="43.15542" lon="-0.56369">
        <ele>262.58</ele>
        <time>2012-03-04T11:53:05Z</time>
      </trkpt>
      <trkpt lat="43.15547" lon="-0.56373">
        <ele>262.58</ele>
        <time>2012-03-04T11:53:06Z</time>
      </trkpt>
      <trkpt lat="43.15556" lon="-0.56382">
        <ele>262.1</ele>
        <time>2012-03-04T11:53:08Z</time>
      </trkpt>
      <trkpt lat="43.15561" lon="-0.56386">
        <ele>262.1</ele>
        <time>2012-03-04T11:53:09Z</time>
      </trkpt>
      <trkpt lat="43.15594" lon="-0.56416">
        <ele>261.14</ele>
        <time>2012-03-04T11:53:16Z</time>
      </trkpt>
      <trkpt lat="43.15598" lon="-0.56421">
        <ele>261.62</ele>
        <time>2012-03-04T11:53:17Z</time>
      </trkpt>
      <trkpt lat="43.15603" lon="-0.56426">
        <ele>261.14</ele>
        <time>2012-03-04T11:53:18Z</time>
      </trkpt>
      <trkpt lat="43.15627" lon="-0.56447">
        <ele>260.65</ele>
        <time>2012-03-04T11:53:23Z</time>
      </trkpt>
      <trkpt lat="43.15632" lon="-0.5645">
        <ele>260.65</ele>
        <time>2012-03-04T11:53:24Z</time>
      </trkpt>
      <trkpt lat="43.15638" lon="-0.56452">
        <ele>261.14</ele>
        <time>2012-03-04T11:53:25Z</time>
      </trkpt>
      <trkpt lat="43.15654" lon="-0.56453">
        <ele>260.17</ele>
        <time>2012-03-04T11:53:28Z</time>
      </trkpt>
      <trkpt lat="43.15659" lon="-0.56452">
        <ele>259.69</ele>
        <time>2012-03-04T11:53:29Z</time>
      </trkpt>
      <trkpt lat="43.15696" lon="-0.5644">
        <ele>259.69</ele>
        <time>2012-03-04T11:53:36Z</time>
      </trkpt>
      <trkpt lat="43.15719" lon="-0.56435">
        <ele>258.25</ele>
        <time>2012-03-04T11:53:40Z</time>
      </trkpt>
      <trkpt lat="43.15748" lon="-0.56434">
        <ele>258.25</ele>
        <time>2012-03-04T11:53:45Z</time>
      </trkpt>
      <trkpt lat="43.15754" lon="-0.56432">
        <ele>258.25</ele>
        <time>2012-03-04T11:53:46Z</time>
      </trkpt>
      <trkpt lat="43.15759" lon="-0.56429">
        <ele>257.77</ele>
        <time>2012-03-04T11:53:47Z</time>
      </trkpt>
      <trkpt lat="43.15797" lon="-0.56413">
        <ele>258.25</ele>
        <time>2012-03-04T11:53:54Z</time>
      </trkpt>
      <trkpt lat="43.15814" lon="-0.56411">
        <ele>258.25</ele>
        <time>2012-03-04T11:53:59Z</time>
      </trkpt>
      <trkpt lat="43.15816" lon="-0.56412">
        <ele>258.73</ele>
        <time>2012-03-04T11:54:00Z</time>
      </trkpt>
      <trkpt lat="43.1582" lon="-0.56425">
        <ele>257.29</ele>
        <time>2012-03-04T11:54:04Z</time>
      </trkpt>
      <trkpt lat="43.15825" lon="-0.56432">
        <ele>257.77</ele>
        <time>2012-03-04T11:54:06Z</time>
      </trkpt>
    </trkseg>
  </trk>
  <trk>
    <name><![CDATA[test ogeu_2]]></name>
    <trkseg>
      <trkpt lat="43.16624" lon="-0.55376">
        <ele>300.07</ele>
        <time>2012-03-04T08:49:30Z</time>
      </trkpt>
      <trkpt lat="43.1662" lon="-0.55311">
        <ele>300.07</ele>
        <time>2012-03-04T08:49:38Z</time>
      </trkpt>
      <trkpt lat="43.16608" lon="-0.55246">
        <ele>300.55</ele>
        <time>2012-03-04T08:49:46Z</time>
      </trkpt>
      <trkpt lat="43.16593" lon="-0.5517">
        <ele>301.51</ele>
        <time>2012-03-04T08:49:56Z</time>
      </trkpt>
      <trkpt lat="43.16589" lon="-0.5511">
        <ele>301.51</ele>
        <time>2012-03-04T08:50:04Z</time>
      </trkpt>
      <trkpt lat="43.16585" lon="-0.55048">
        <ele>301.51</ele>
        <time>2012-03-04T08:50:12Z</time>
      </trkpt>
      <trkpt lat="43.16584" lon="-0.55032">
        <ele>301.99</ele>
        <time>2012-03-04T08:50:14Z</time>
      </trkpt>
      <trkpt lat="43.16582" lon="-0.55025">
        <ele>301.99</ele>
        <time>2012-03-04T08:50:15Z</time>
      </trkpt>
      <trkpt lat="43.16579" lon="-0.55021">
        <ele>301.99</ele>
        <time>2012-03-04T08:50:16Z</time>
      </trkpt>
      <trkpt lat="43.16571" lon="-0.55022">
        <ele>301.99</ele>
        <time>2012-03-04T08:50:18Z</time>
      </trkpt>
      <trkpt lat="43.16567" lon="-0.55026">
        <ele>301.99</ele>
        <time>2012-03-04T08:50:19Z</time>
      </trkpt>
      <trkpt lat="43.16563" lon="-0.5503">
        <ele>301.99</ele>
        <time>2012-03-04T08:50:20Z</time>
      </trkpt>
      <trkpt lat="43.16542" lon="-0.55049">
        <ele>301.99</ele>
        <time>2012-03-04T08:50:25Z</time>
      </trkpt>
      <trkpt lat="43.16538" lon="-0.55053">
        <ele>302.47</ele>
        <time>2012-03-04T08:50:26Z</time>
      </trkpt>
      <trkpt lat="43.16525" lon="-0.55067">
        <ele>302.47</ele>
        <time>2012-03-04T08:50:29Z</time>
      </trkpt>
      <trkpt lat="43.16502" lon="-0.55089">
        <ele>300.55</ele>
        <time>2012-03-04T08:50:33Z</time>
      </trkpt>
      <trkpt lat="43.16478" lon="-0.55132">
        <ele>296.7</ele>
        <time>2012-03-04T08:50:38Z</time>
      </trkpt>
      <trkpt lat="43.1645" lon="-0.55153">
        <ele>294.3</ele>
        <time>2012-03-04T08:50:42Z</time>
      </trkpt>
      <trkpt lat="43.16426" lon="-0.55153">
        <ele>291.9</ele>
        <time>2012-03-04T08:50:46Z</time>
      </trkpt>
      <trkpt lat="43.16412" lon="-0.55154">
        <ele>289.49</ele>
        <time>2012-03-04T08:50:49Z</time>
      </trkpt>
      <trkpt lat="43.16409" lon="-0.55166">
        <ele>288.53</ele>
        <time>2012-03-04T08:50:51Z</time>
      </trkpt>
      <trkpt lat="43.16401" lon="-0.55188">
        <ele>288.05</ele>
        <time>2012-03-04T08:50:54Z</time>
      </trkpt>
      <trkpt lat="43.16389" lon="-0.55197">
        <ele>288.05</ele>
        <time>2012-03-04T08:50:56Z</time>
      </trkpt>
      <trkpt lat="43.16347" lon="-0.5523">
        <ele>289.01</ele>
        <time>2012-03-04T08:51:04Z</time>
      </trkpt>
      <trkpt lat="43.16333" lon="-0.55242">
        <ele>290.94</ele>
        <time>2012-03-04T08:51:08Z</time>
      </trkpt>
      <trkpt lat="43.16311" lon="-0.55263">
        <ele>292.86</ele>
        <time>2012-03-04T08:51:15Z</time>
      </trkpt>
      <trkpt lat="43.16292" lon="-0.55283">
        <ele>292.86</ele>
        <time>2012-03-04T08:51:21Z</time>
      </trkpt>
      <trkpt lat="43.16262" lon="-0.5529">
        <ele>291.42</ele>
        <time>2012-03-04T08:51:26Z</time>
      </trkpt>
      <trkpt lat="43.16255" lon="-0.55292">
        <ele>290.94</ele>
        <time>2012-03-04T08:51:27Z</time>
      </trkpt>
      <trkpt lat="43.16247" lon="-0.55295">
        <ele>290.46</ele>
        <time>2012-03-04T08:51:28Z</time>
      </trkpt>
      <trkpt lat="43.16239" lon="-0.553">
        <ele>289.97</ele>
        <time>2012-03-04T08:51:29Z</time>
      </trkpt>
      <trkpt lat="43.16217" lon="-0.55313">
        <ele>289.01</ele>
        <time>2012-03-04T08:51:32Z</time>
      </trkpt>
      <trkpt lat="43.1621" lon="-0.55314">
        <ele>288.05</ele>
        <time>2012-03-04T08:51:33Z</time>
      </trkpt>
      <trkpt lat="43.16202" lon="-0.55313">
        <ele>287.57</ele>
        <time>2012-03-04T08:51:34Z</time>
      </trkpt>
      <trkpt lat="43.16194" lon="-0.55308">
        <ele>287.57</ele>
        <time>2012-03-04T08:51:35Z</time>
      </trkpt>
      <trkpt lat="43.16187" lon="-0.55301">
        <ele>286.61</ele>
        <time>2012-03-04T08:51:36Z</time>
      </trkpt>
      <trkpt lat="43.1618" lon="-0.55294">
        <ele>286.13</ele>
        <time>2012-03-04T08:51:37Z</time>
      </trkpt>
      <trkpt lat="43.16173" lon="-0.55287">
        <ele>286.13</ele>
        <time>2012-03-04T08:51:38Z</time>
      </trkpt>
      <trkpt lat="43.1615" lon="-0.55268">
        <ele>284.21</ele>
        <time>2012-03-04T08:51:41Z</time>
      </trkpt>
      <trkpt lat="43.1611" lon="-0.55234">
        <ele>280.84</ele>
        <time>2012-03-04T08:51:46Z</time>
      </trkpt>
      <trkpt lat="43.16102" lon="-0.55226">
        <ele>280.36</ele>
        <time>2012-03-04T08:51:47Z</time>
      </trkpt>
      <trkpt lat="43.16051" lon="-0.55178">
        <ele>277.48</ele>
        <time>2012-03-04T08:51:54Z</time>
      </trkpt>
      <trkpt lat="43.16044" lon="-0.55173">
        <ele>277</ele>
        <time>2012-03-04T08:51:55Z</time>
      </trkpt>
      <trkpt lat="43.16036" lon="-0.55171">
        <ele>276.04</ele>
        <time>2012-03-04T08:51:56Z</time>
      </trkpt>
      <trkpt lat="43.16028" lon="-0.55172">
        <ele>275.56</ele>
        <time>2012-03-04T08:51:57Z</time>
      </trkpt>
      <trkpt lat="43.16015" lon="-0.55174">
        <ele>273.15</ele>
        <time>2012-03-04T08:51:59Z</time>
      </trkpt>
      <trkpt lat="43.16011" lon="-0.55172">
        <ele>272.19</ele>
        <time>2012-03-04T08:52:00Z</time>
      </trkpt>
      <trkpt lat="43.16007" lon="-0.55168">
        <ele>272.19</ele>
        <time>2012-03-04T08:52:01Z</time>
      </trkpt>
      <trkpt lat="43.16004" lon="-0.55162">
        <ele>271.71</ele>
        <time>2012-03-04T08:52:02Z</time>
      </trkpt>
      <trkpt lat="43.16001" lon="-0.55156">
        <ele>271.71</ele>
        <time>2012-03-04T08:52:03Z</time>
      </trkpt>
      <trkpt lat="43.15998" lon="-0.55151">
        <ele>271.71</ele>
        <time>2012-03-04T08:52:04Z</time>
      </trkpt>
      <trkpt lat="43.15993" lon="-0.55149">
        <ele>271.23</ele>
        <time>2012-03-04T08:52:05Z</time>
      </trkpt>
      <trkpt lat="43.15987" lon="-0.55149">
        <ele>271.23</ele>
        <time>2012-03-04T08:52:06Z</time>
      </trkpt>
      <trkpt lat="43.1598" lon="-0.55148">
        <ele>270.75</ele>
        <time>2012-03-04T08:52:07Z</time>
      </trkpt>
      <trkpt lat="43.15967" lon="-0.55148">
        <ele>270.75</ele>
        <time>2012-03-04T08:52:09Z</time>
      </trkpt>
      <trkpt lat="43.15961" lon="-0.55148">
        <ele>270.75</ele>
        <time>2012-03-04T08:52:10Z</time>
      </trkpt>
      <trkpt lat="43.15929" lon="-0.55151">
        <ele>269.31</ele>
        <time>2012-03-04T08:52:15Z</time>
      </trkpt>
      <trkpt lat="43.15923" lon="-0.5515">
        <ele>269.79</ele>
        <time>2012-03-04T08:52:16Z</time>
      </trkpt>
      <trkpt lat="43.15918" lon="-0.55148">
        <ele>269.31</ele>
        <time>2012-03-04T08:52:17Z</time>
      </trkpt>
      <trkpt lat="43.15914" lon="-0.55146">
        <ele>269.31</ele>
        <time>2012-03-04T08:52:18Z</time>
      </trkpt>
      <trkpt lat="43.15909" lon="-0.55143">
        <ele>269.31</ele>
        <time>2012-03-04T08:52:19Z</time>
      </trkpt>
      <trkpt lat="43.15887" lon="-0.55133">
        <ele>269.31</ele>
        <time>2012-03-04T08:52:24Z</time>
      </trkpt>
      <trkpt lat="43.15867" lon="-0.55119">
        <ele>270.27</ele>
        <time>2012-03-04T08:52:30Z</time>
      </trkpt>
      <trkpt lat="43.15855" lon="-0.55112">
        <ele>270.27</ele>
        <time>2012-03-04T08:52:33Z</time>
      </trkpt>
      <trkpt lat="43.15841" lon="-0.55101">
        <ele>271.23</ele>
        <time>2012-03-04T08:52:37Z</time>
      </trkpt>
      <trkpt lat="43.15831" lon="-0.55109">
        <ele>270.75</ele>
        <time>2012-03-04T08:52:41Z</time>
      </trkpt>
      <trkpt lat="43.15829" lon="-0.55111">
        <ele>270.75</ele>
        <time>2012-03-04T08:52:42Z</time>
      </trkpt>
      <trkpt lat="43.15823" lon="-0.5512">
        <ele>272.19</ele>
        <time>2012-03-04T08:52:47Z</time>
      </trkpt>
      <trkpt lat="43.15812" lon="-0.55131">
        <ele>274.59</ele>
        <time>2012-03-04T08:52:54Z</time>
      </trkpt>
      <trkpt lat="43.15804" lon="-0.5514">
        <ele>277</ele>
        <time>2012-03-04T08:53:00Z</time>
      </trkpt>
      <trkpt lat="43.15803" lon="-0.55142">
        <ele>277</ele>
        <time>2012-03-04T08:53:01Z</time>
      </trkpt>
      <trkpt lat="43.15799" lon="-0.5515">
        <ele>278.44</ele>
        <time>2012-03-04T08:53:07Z</time>
      </trkpt>
      <trkpt lat="43.15798" lon="-0.55155">
        <ele>278.92</ele>
        <time>2012-03-04T08:53:10Z</time>
      </trkpt>
      <trkpt lat="43.15798" lon="-0.5516">
        <ele>280.36</ele>
        <time>2012-03-04T08:53:13Z</time>
      </trkpt>
      <trkpt lat="43.15794" lon="-0.55174">
        <ele>281.8</ele>
        <time>2012-03-04T08:53:21Z</time>
      </trkpt>
      <trkpt lat="43.15784" lon="-0.5519">
        <ele>282.28</ele>
        <time>2012-03-04T08:53:28Z</time>
      </trkpt>
      <trkpt lat="43.15776" lon="-0.55191">
        <ele>282.77</ele>
        <time>2012-03-04T08:53:32Z</time>
      </trkpt>
      <trkpt lat="43.15757" lon="-0.55189">
        <ele>284.21</ele>
        <time>2012-03-04T08:53:40Z</time>
      </trkpt>
      <trkpt lat="43.15743" lon="-0.55193">
        <ele>285.17</ele>
        <time>2012-03-04T08:53:48Z</time>
      </trkpt>
      <trkpt lat="43.15734" lon="-0.55198">
        <ele>284.21</ele>
        <time>2012-03-04T08:53:53Z</time>
      </trkpt>
      <trkpt lat="43.15724" lon="-0.55204">
        <ele>283.73</ele>
        <time>2012-03-04T08:53:57Z</time>
      </trkpt>
      <trkpt lat="43.15708" lon="-0.55195">
        <ele>283.25</ele>
        <time>2012-03-04T08:54:03Z</time>
      </trkpt>
      <trkpt lat="43.15691" lon="-0.55202">
        <ele>281.8</ele>
        <time>2012-03-04T08:54:08Z</time>
      </trkpt>
      <trkpt lat="43.15672" lon="-0.55209">
        <ele>281.32</ele>
        <time>2012-03-04T08:54:14Z</time>
      </trkpt>
      <trkpt lat="43.1567" lon="-0.5521">
        <ele>281.8</ele>
        <time>2012-03-04T08:54:15Z</time>
      </trkpt>
      <trkpt lat="43.15656" lon="-0.55216">
        <ele>282.77</ele>
        <time>2012-03-04T08:54:21Z</time>
      </trkpt>
      <trkpt lat="43.15646" lon="-0.55216">
        <ele>284.21</ele>
        <time>2012-03-04T08:54:25Z</time>
      </trkpt>
      <trkpt lat="43.15635" lon="-0.5522">
        <ele>286.13</ele>
        <time>2012-03-04T08:54:32Z</time>
      </trkpt>
      <trkpt lat="43.15633" lon="-0.55221">
        <ele>285.65</ele>
        <time>2012-03-04T08:54:33Z</time>
      </trkpt>
      <trkpt lat="43.15613" lon="-0.5523">
        <ele>286.13</ele>
        <time>2012-03-04T08:54:40Z</time>
      </trkpt>
      <trkpt lat="43.15588" lon="-0.5524">
        <ele>285.65</ele>
        <time>2012-03-04T08:54:45Z</time>
      </trkpt>
      <trkpt lat="43.15553" lon="-0.55247">
        <ele>287.09</ele>
        <time>2012-03-04T08:54:53Z</time>
      </trkpt>
      <trkpt lat="43.15529" lon="-0.55252">
        <ele>288.05</ele>
        <time>2012-03-04T08:55:01Z</time>
      </trkpt>
      <trkpt lat="43.15509" lon="-0.55253">
        <ele>289.01</ele>
        <time>2012-03-04T08:55:07Z</time>
      </trkpt>
      <trkpt lat="43.15493" lon="-0.5526">
        <ele>289.49</ele>
        <time>2012-03-04T08:55:13Z</time>
      </trkpt>
      <trkpt lat="43.1547" lon="-0.55261">
        <ele>289.01</ele>
        <time>2012-03-04T08:55:20Z</time>
      </trkpt>
      <trkpt lat="43.15451" lon="-0.55264">
        <ele>290.94</ele>
        <time>2012-03-04T08:55:26Z</time>
      </trkpt>
      <trkpt lat="43.15437" lon="-0.55274">
        <ele>291.9</ele>
        <time>2012-03-04T08:55:32Z</time>
      </trkpt>
      <trkpt lat="43.15425" lon="-0.5528">
        <ele>293.82</ele>
        <time>2012-03-04T08:55:38Z</time>
      </trkpt>
      <trkpt lat="43.15404" lon="-0.55293">
        <ele>295.26</ele>
        <time>2012-03-04T08:55:47Z</time>
      </trkpt>
      <trkpt lat="43.15388" lon="-0.55302">
        <ele>296.22</ele>
        <time>2012-03-04T08:55:54Z</time>
      </trkpt>
      <trkpt lat="43.1536" lon="-0.55299">
        <ele>297.18</ele>
        <time>2012-03-04T08:56:00Z</time>
      </trkpt>
      <trkpt lat="43.15354" lon="-0.5528">
        <ele>298.63</ele>
        <time>2012-03-04T08:56:07Z</time>
      </trkpt>
      <trkpt lat="43.15357" lon="-0.55259">
        <ele>299.11</ele>
        <time>2012-03-04T08:56:13Z</time>
      </trkpt>
      <trkpt lat="43.15362" lon="-0.55234">
        <ele>298.15</ele>
        <time>2012-03-04T08:56:18Z</time>
      </trkpt>
      <trkpt lat="43.15379" lon="-0.55184">
        <ele>295.26</ele>
        <time>2012-03-04T08:56:26Z</time>
      </trkpt>
      <trkpt lat="43.15387" lon="-0.55153">
        <ele>292.86</ele>
        <time>2012-03-04T08:56:31Z</time>
      </trkpt>
      <trkpt lat="43.15392" lon="-0.55115">
        <ele>290.46</ele>
        <time>2012-03-04T08:56:37Z</time>
      </trkpt>
      <trkpt lat="43.15401" lon="-0.55084">
        <ele>289.49</ele>
        <time>2012-03-04T08:56:41Z</time>
      </trkpt>
      <trkpt lat="43.15394" lon="-0.55065">
        <ele>290.46</ele>
        <time>2012-03-04T08:56:46Z</time>
      </trkpt>
      <trkpt lat="43.15382" lon="-0.55048">
        <ele>291.42</ele>
        <time>2012-03-04T08:56:52Z</time>
      </trkpt>
      <trkpt lat="43.1538" lon="-0.55047">
        <ele>291.9</ele>
        <time>2012-03-04T08:56:53Z</time>
      </trkpt>
      <trkpt lat="43.15365" lon="-0.55038">
        <ele>293.34</ele>
        <time>2012-03-04T08:57:00Z</time>
      </trkpt>
      <trkpt lat="43.15352" lon="-0.55036">
        <ele>294.3</ele>
        <time>2012-03-04T08:57:05Z</time>
      </trkpt>
      <trkpt lat="43.15336" lon="-0.55018">
        <ele>294.78</ele>
        <time>2012-03-04T08:57:12Z</time>
      </trkpt>
      <trkpt lat="43.15334" lon="-0.55014">
        <ele>294.78</ele>
        <time>2012-03-04T08:57:13Z</time>
      </trkpt>
      <trkpt lat="43.15322" lon="-0.54995">
        <ele>293.34</ele>
        <time>2012-03-04T08:57:17Z</time>
      </trkpt>
      <trkpt lat="43.15313" lon="-0.5497">
        <ele>293.34</ele>
        <time>2012-03-04T08:57:22Z</time>
      </trkpt>
      <trkpt lat="43.15312" lon="-0.54939">
        <ele>294.78</ele>
        <time>2012-03-04T08:57:28Z</time>
      </trkpt>
      <trkpt lat="43.15317" lon="-0.54915">
        <ele>295.74</ele>
        <time>2012-03-04T08:57:34Z</time>
      </trkpt>
      <trkpt lat="43.15322" lon="-0.5491">
        <ele>295.74</ele>
        <time>2012-03-04T08:57:36Z</time>
      </trkpt>
      <trkpt lat="43.15335" lon="-0.54905">
        <ele>295.26</ele>
        <time>2012-03-04T08:57:39Z</time>
      </trkpt>
      <trkpt lat="43.15339" lon="-0.54901">
        <ele>294.78</ele>
        <time>2012-03-04T08:57:40Z</time>
      </trkpt>
      <trkpt lat="43.15342" lon="-0.54896">
        <ele>295.26</ele>
        <time>2012-03-04T08:57:41Z</time>
      </trkpt>
      <trkpt lat="43.15345" lon="-0.54891">
        <ele>295.26</ele>
        <time>2012-03-04T08:57:42Z</time>
      </trkpt>
      <trkpt lat="43.15348" lon="-0.54886">
        <ele>295.26</ele>
        <time>2012-03-04T08:57:43Z</time>
      </trkpt>
      <trkpt lat="43.15353" lon="-0.54875">
        <ele>295.26</ele>
        <time>2012-03-04T08:57:45Z</time>
      </trkpt>
      <trkpt lat="43.15359" lon="-0.54864">
        <ele>295.26</ele>
        <time>2012-03-04T08:57:47Z</time>
      </trkpt>
      <trkpt lat="43.15387" lon="-0.54826">
        <ele>293.34</ele>
        <time>2012-03-04T08:57:54Z</time>
      </trkpt>
      <trkpt lat="43.15407" lon="-0.54801">
        <ele>293.34</ele>
        <time>2012-03-04T08:57:59Z</time>
      </trkpt>
      <trkpt lat="43.15412" lon="-0.5479">
        <ele>293.34</ele>
        <time>2012-03-04T08:58:01Z</time>
      </trkpt>
      <trkpt lat="43.15419" lon="-0.54766">
        <ele>294.3</ele>
        <time>2012-03-04T08:58:07Z</time>
      </trkpt>
      <trkpt lat="43.15415" lon="-0.54752">
        <ele>295.26</ele>
        <time>2012-03-04T08:58:12Z</time>
      </trkpt>
      <trkpt lat="43.15404" lon="-0.54742">
        <ele>295.26</ele>
        <time>2012-03-04T08:58:17Z</time>
      </trkpt>
      <trkpt lat="43.15381" lon="-0.54732">
        <ele>296.7</ele>
        <time>2012-03-04T08:58:25Z</time>
      </trkpt>
      <trkpt lat="43.15369" lon="-0.54716">
        <ele>297.67</ele>
        <time>2012-03-04T08:58:31Z</time>
      </trkpt>
      <trkpt lat="43.1535" lon="-0.54689">
        <ele>298.15</ele>
        <time>2012-03-04T08:58:40Z</time>
      </trkpt>
      <trkpt lat="43.15325" lon="-0.54653">
        <ele>300.07</ele>
        <time>2012-03-04T08:58:51Z</time>
      </trkpt>
      <trkpt lat="43.15312" lon="-0.54624">
        <ele>301.03</ele>
        <time>2012-03-04T08:58:59Z</time>
      </trkpt>
      <trkpt lat="43.15303" lon="-0.54594">
        <ele>302.47</ele>
        <time>2012-03-04T08:59:07Z</time>
      </trkpt>
      <trkpt lat="43.15295" lon="-0.54573">
        <ele>302.95</ele>
        <time>2012-03-04T08:59:13Z</time>
      </trkpt>
      <trkpt lat="43.1528" lon="-0.5454">
        <ele>303.43</ele>
        <time>2012-03-04T08:59:22Z</time>
      </trkpt>
      <trkpt lat="43.15269" lon="-0.54512">
        <ele>303.43</ele>
        <time>2012-03-04T08:59:28Z</time>
      </trkpt>
      <trkpt lat="43.15261" lon="-0.54484">
        <ele>304.39</ele>
        <time>2012-03-04T08:59:34Z</time>
      </trkpt>
      <trkpt lat="43.15238" lon="-0.54465">
        <ele>303.91</ele>
        <time>2012-03-04T08:59:41Z</time>
      </trkpt>
      <trkpt lat="43.15235" lon="-0.54461">
        <ele>303.91</ele>
        <time>2012-03-04T08:59:42Z</time>
      </trkpt>
      <trkpt lat="43.15221" lon="-0.5445">
        <ele>302.47</ele>
        <time>2012-03-04T08:59:45Z</time>
      </trkpt>
      <trkpt lat="43.15215" lon="-0.54447">
        <ele>301.99</ele>
        <time>2012-03-04T08:59:46Z</time>
      </trkpt>
      <trkpt lat="43.15209" lon="-0.54443">
        <ele>301.51</ele>
        <time>2012-03-04T08:59:47Z</time>
      </trkpt>
      <trkpt lat="43.15198" lon="-0.54433">
        <ele>300.07</ele>
        <time>2012-03-04T08:59:49Z</time>
      </trkpt>
      <trkpt lat="43.15196" lon="-0.54427">
        <ele>301.03</ele>
        <time>2012-03-04T08:59:50Z</time>
      </trkpt>
      <trkpt lat="43.15194" lon="-0.54421">
        <ele>301.99</ele>
        <time>2012-03-04T08:59:51Z</time>
      </trkpt>
      <trkpt lat="43.15194" lon="-0.54416">
        <ele>302.47</ele>
        <time>2012-03-04T08:59:52Z</time>
      </trkpt>
      <trkpt lat="43.15194" lon="-0.54411">
        <ele>302.47</ele>
        <time>2012-03-04T08:59:53Z</time>
      </trkpt>
      <trkpt lat="43.15195" lon="-0.54408">
        <ele>302.47</ele>
        <time>2012-03-04T08:59:54Z</time>
      </trkpt>
      <trkpt lat="43.15195" lon="-0.54405">
        <ele>302.47</ele>
        <time>2012-03-04T08:59:55Z</time>
      </trkpt>
      <trkpt lat="43.15198" lon="-0.54381">
        <ele>304.88</ele>
        <time>2012-03-04T09:00:02Z</time>
      </trkpt>
      <trkpt lat="43.15203" lon="-0.54356">
        <ele>306.8</ele>
        <time>2012-03-04T09:00:10Z</time>
      </trkpt>
      <trkpt lat="43.15205" lon="-0.54336">
        <ele>308.72</ele>
        <time>2012-03-04T09:00:17Z</time>
      </trkpt>
      <trkpt lat="43.15207" lon="-0.54318">
        <ele>310.16</ele>
        <time>2012-03-04T09:00:24Z</time>
      </trkpt>
      <trkpt lat="43.15214" lon="-0.54299">
        <ele>311.6</ele>
        <time>2012-03-04T09:00:32Z</time>
      </trkpt>
      <trkpt lat="43.15223" lon="-0.54285">
        <ele>312.57</ele>
        <time>2012-03-04T09:00:39Z</time>
      </trkpt>
      <trkpt lat="43.15224" lon="-0.54283">
        <ele>312.57</ele>
        <time>2012-03-04T09:00:40Z</time>
      </trkpt>
      <trkpt lat="43.15225" lon="-0.54278">
        <ele>312.09</ele>
        <time>2012-03-04T09:00:42Z</time>
      </trkpt>
      <trkpt lat="43.15234" lon="-0.54257">
        <ele>312.09</ele>
        <time>2012-03-04T09:00:48Z</time>
      </trkpt>
      <trkpt lat="43.15232" lon="-0.54231">
        <ele>311.12</ele>
        <time>2012-03-04T09:00:53Z</time>
      </trkpt>
      <trkpt lat="43.15232" lon="-0.54225">
        <ele>311.12</ele>
        <time>2012-03-04T09:00:54Z</time>
      </trkpt>
      <trkpt lat="43.15229" lon="-0.54193">
        <ele>310.16</ele>
        <time>2012-03-04T09:00:59Z</time>
      </trkpt>
      <trkpt lat="43.15227" lon="-0.54168">
        <ele>309.2</ele>
        <time>2012-03-04T09:01:03Z</time>
      </trkpt>
      <trkpt lat="43.15228" lon="-0.54161">
        <ele>309.2</ele>
        <time>2012-03-04T09:01:04Z</time>
      </trkpt>
      <trkpt lat="43.1523" lon="-0.54141">
        <ele>310.64</ele>
        <time>2012-03-04T09:01:08Z</time>
      </trkpt>
      <trkpt lat="43.15225" lon="-0.54109">
        <ele>311.6</ele>
        <time>2012-03-04T09:01:15Z</time>
      </trkpt>
      <trkpt lat="43.1522" lon="-0.54069">
        <ele>313.53</ele>
        <time>2012-03-04T09:01:25Z</time>
      </trkpt>
      <trkpt lat="43.15216" lon="-0.54042">
        <ele>314.49</ele>
        <time>2012-03-04T09:01:32Z</time>
      </trkpt>
      <trkpt lat="43.15218" lon="-0.54016">
        <ele>316.41</ele>
        <time>2012-03-04T09:01:39Z</time>
      </trkpt>
      <trkpt lat="43.15212" lon="-0.53998">
        <ele>315.93</ele>
        <time>2012-03-04T09:01:44Z</time>
      </trkpt>
      <trkpt lat="43.15199" lon="-0.53962">
        <ele>314.01</ele>
        <time>2012-03-04T09:01:50Z</time>
      </trkpt>
      <trkpt lat="43.15196" lon="-0.53954">
        <ele>313.53</ele>
        <time>2012-03-04T09:01:51Z</time>
      </trkpt>
      <trkpt lat="43.15195" lon="-0.53946">
        <ele>313.05</ele>
        <time>2012-03-04T09:01:52Z</time>
      </trkpt>
      <trkpt lat="43.15197" lon="-0.53937">
        <ele>312.57</ele>
        <time>2012-03-04T09:01:53Z</time>
      </trkpt>
      <trkpt lat="43.15199" lon="-0.5393">
        <ele>312.57</ele>
        <time>2012-03-04T09:01:54Z</time>
      </trkpt>
      <trkpt lat="43.15203" lon="-0.53924">
        <ele>313.05</ele>
        <time>2012-03-04T09:01:55Z</time>
      </trkpt>
      <trkpt lat="43.15215" lon="-0.539">
        <ele>312.57</ele>
        <time>2012-03-04T09:01:59Z</time>
      </trkpt>
      <trkpt lat="43.15239" lon="-0.53864">
        <ele>310.16</ele>
        <time>2012-03-04T09:02:05Z</time>
      </trkpt>
      <trkpt lat="43.15242" lon="-0.53857">
        <ele>309.68</ele>
        <time>2012-03-04T09:02:06Z</time>
      </trkpt>
      <trkpt lat="43.15244" lon="-0.53851">
        <ele>309.68</ele>
        <time>2012-03-04T09:02:07Z</time>
      </trkpt>
      <trkpt lat="43.15245" lon="-0.53844">
        <ele>308.24</ele>
        <time>2012-03-04T09:02:08Z</time>
      </trkpt>
      <trkpt lat="43.15244" lon="-0.53837">
        <ele>307.76</ele>
        <time>2012-03-04T09:02:09Z</time>
      </trkpt>
      <trkpt lat="43.15242" lon="-0.53831">
        <ele>308.24</ele>
        <time>2012-03-04T09:02:10Z</time>
      </trkpt>
      <trkpt lat="43.1524" lon="-0.53825">
        <ele>307.76</ele>
        <time>2012-03-04T09:02:11Z</time>
      </trkpt>
      <trkpt lat="43.15237" lon="-0.53819">
        <ele>307.76</ele>
        <time>2012-03-04T09:02:12Z</time>
      </trkpt>
      <trkpt lat="43.15236" lon="-0.53813">
        <ele>307.28</ele>
        <time>2012-03-04T09:02:13Z</time>
      </trkpt>
      <trkpt lat="43.15234" lon="-0.53806">
        <ele>307.28</ele>
        <time>2012-03-04T09:02:14Z</time>
      </trkpt>
      <trkpt lat="43.15234" lon="-0.538">
        <ele>307.28</ele>
        <time>2012-03-04T09:02:15Z</time>
      </trkpt>
      <trkpt lat="43.15235" lon="-0.53793">
        <ele>308.24</ele>
        <time>2012-03-04T09:02:16Z</time>
      </trkpt>
      <trkpt lat="43.15234" lon="-0.53788">
        <ele>308.24</ele>
        <time>2012-03-04T09:02:17Z</time>
      </trkpt>
      <trkpt lat="43.15232" lon="-0.53783">
        <ele>308.24</ele>
        <time>2012-03-04T09:02:18Z</time>
      </trkpt>
      <trkpt lat="43.1523" lon="-0.53779">
        <ele>308.24</ele>
        <time>2012-03-04T09:02:19Z</time>
      </trkpt>
      <trkpt lat="43.15228" lon="-0.53776">
        <ele>308.72</ele>
        <time>2012-03-04T09:02:20Z</time>
      </trkpt>
      <trkpt lat="43.15225" lon="-0.53774">
        <ele>308.24</ele>
        <time>2012-03-04T09:02:21Z</time>
      </trkpt>
      <trkpt lat="43.15222" lon="-0.53771">
        <ele>308.72</ele>
        <time>2012-03-04T09:02:22Z</time>
      </trkpt>
      <trkpt lat="43.1522" lon="-0.53768">
        <ele>309.2</ele>
        <time>2012-03-04T09:02:23Z</time>
      </trkpt>
      <trkpt lat="43.15204" lon="-0.53736">
        <ele>310.64</ele>
        <time>2012-03-04T09:02:32Z</time>
      </trkpt>
      <trkpt lat="43.15188" lon="-0.53706">
        <ele>311.6</ele>
        <time>2012-03-04T09:02:41Z</time>
      </trkpt>
      <trkpt lat="43.15171" lon="-0.5368">
        <ele>313.53</ele>
        <time>2012-03-04T09:02:51Z</time>
      </trkpt>
      <trkpt lat="43.15159" lon="-0.53655">
        <ele>316.41</ele>
        <time>2012-03-04T09:03:00Z</time>
      </trkpt>
      <trkpt lat="43.15148" lon="-0.53633">
        <ele>318.33</ele>
        <time>2012-03-04T09:03:09Z</time>
      </trkpt>
      <trkpt lat="43.15139" lon="-0.53615">
        <ele>319.78</ele>
        <time>2012-03-04T09:03:17Z</time>
      </trkpt>
      <trkpt lat="43.1513" lon="-0.53594">
        <ele>322.18</ele>
        <time>2012-03-04T09:03:25Z</time>
      </trkpt>
      <trkpt lat="43.15121" lon="-0.53572">
        <ele>323.14</ele>
        <time>2012-03-04T09:03:33Z</time>
      </trkpt>
      <trkpt lat="43.15111" lon="-0.53546">
        <ele>324.58</ele>
        <time>2012-03-04T09:03:41Z</time>
      </trkpt>
      <trkpt lat="43.15112" lon="-0.53521">
        <ele>324.58</ele>
        <time>2012-03-04T09:03:47Z</time>
      </trkpt>
      <trkpt lat="43.15117" lon="-0.53495">
        <ele>324.58</ele>
        <time>2012-03-04T09:03:53Z</time>
      </trkpt>
      <trkpt lat="43.15125" lon="-0.53483">
        <ele>324.58</ele>
        <time>2012-03-04T09:03:56Z</time>
      </trkpt>
      <trkpt lat="43.15154" lon="-0.53449">
        <ele>322.18</ele>
        <time>2012-03-04T09:04:03Z</time>
      </trkpt>
      <trkpt lat="43.15158" lon="-0.53442">
        <ele>322.18</ele>
        <time>2012-03-04T09:04:04Z</time>
      </trkpt>
      <trkpt lat="43.15162" lon="-0.53436">
        <ele>321.7</ele>
        <time>2012-03-04T09:04:05Z</time>
      </trkpt>
      <trkpt lat="43.15171" lon="-0.53424">
        <ele>321.7</ele>
        <time>2012-03-04T09:04:07Z</time>
      </trkpt>
      <trkpt lat="43.15176" lon="-0.53419">
        <ele>321.7</ele>
        <time>2012-03-04T09:04:08Z</time>
      </trkpt>
      <trkpt lat="43.15206" lon="-0.53392">
        <ele>322.66</ele>
        <time>2012-03-04T09:04:15Z</time>
      </trkpt>
      <trkpt lat="43.1524" lon="-0.53359">
        <ele>324.58</ele>
        <time>2012-03-04T09:04:25Z</time>
      </trkpt>
      <trkpt lat="43.15256" lon="-0.53341">
        <ele>325.06</ele>
        <time>2012-03-04T09:04:30Z</time>
      </trkpt>
      <trkpt lat="43.1526" lon="-0.53338">
        <ele>326.02</ele>
        <time>2012-03-04T09:04:31Z</time>
      </trkpt>
      <trkpt lat="43.15269" lon="-0.53333">
        <ele>326.02</ele>
        <time>2012-03-04T09:04:33Z</time>
      </trkpt>
      <trkpt lat="43.15273" lon="-0.53332">
        <ele>326.02</ele>
        <time>2012-03-04T09:04:34Z</time>
      </trkpt>
      <trkpt lat="43.15277" lon="-0.53331">
        <ele>326.5</ele>
        <time>2012-03-04T09:04:35Z</time>
      </trkpt>
      <trkpt lat="43.15281" lon="-0.5333">
        <ele>326.5</ele>
        <time>2012-03-04T09:04:36Z</time>
      </trkpt>
      <trkpt lat="43.15286" lon="-0.53329">
        <ele>326.5</ele>
        <time>2012-03-04T09:04:37Z</time>
      </trkpt>
      <trkpt lat="43.1529" lon="-0.53329">
        <ele>326.5</ele>
        <time>2012-03-04T09:04:38Z</time>
      </trkpt>
      <trkpt lat="43.15326" lon="-0.53321">
        <ele>326.99</ele>
        <time>2012-03-04T09:04:46Z</time>
      </trkpt>
      <trkpt lat="43.15339" lon="-0.53316">
        <ele>327.47</ele>
        <time>2012-03-04T09:04:49Z</time>
      </trkpt>
      <trkpt lat="43.15343" lon="-0.53313">
        <ele>327.47</ele>
        <time>2012-03-04T09:04:50Z</time>
      </trkpt>
      <trkpt lat="43.15346" lon="-0.53309">
        <ele>327.47</ele>
        <time>2012-03-04T09:04:51Z</time>
      </trkpt>
      <trkpt lat="43.15353" lon="-0.53301">
        <ele>327.47</ele>
        <time>2012-03-04T09:04:53Z</time>
      </trkpt>
      <trkpt lat="43.15355" lon="-0.53296">
        <ele>326.99</ele>
        <time>2012-03-04T09:04:54Z</time>
      </trkpt>
      <trkpt lat="43.15355" lon="-0.53292">
        <ele>326.99</ele>
        <time>2012-03-04T09:04:55Z</time>
      </trkpt>
      <trkpt lat="43.15353" lon="-0.53287">
        <ele>326.99</ele>
        <time>2012-03-04T09:04:56Z</time>
      </trkpt>
      <trkpt lat="43.1535" lon="-0.53282">
        <ele>326.99</ele>
        <time>2012-03-04T09:04:57Z</time>
      </trkpt>
      <trkpt lat="43.15347" lon="-0.53278">
        <ele>326.99</ele>
        <time>2012-03-04T09:04:58Z</time>
      </trkpt>
      <trkpt lat="43.15317" lon="-0.53237">
        <ele>326.5</ele>
        <time>2012-03-04T09:05:06Z</time>
      </trkpt>
      <trkpt lat="43.15298" lon="-0.53205">
        <ele>325.54</ele>
        <time>2012-03-04T09:05:11Z</time>
      </trkpt>
      <trkpt lat="43.15295" lon="-0.53198">
        <ele>325.54</ele>
        <time>2012-03-04T09:05:12Z</time>
      </trkpt>
      <trkpt lat="43.15294" lon="-0.5319">
        <ele>325.06</ele>
        <time>2012-03-04T09:05:13Z</time>
      </trkpt>
      <trkpt lat="43.15293" lon="-0.53183">
        <ele>325.06</ele>
        <time>2012-03-04T09:05:14Z</time>
      </trkpt>
      <trkpt lat="43.15293" lon="-0.53175">
        <ele>325.54</ele>
        <time>2012-03-04T09:05:15Z</time>
      </trkpt>
      <trkpt lat="43.15294" lon="-0.53167">
        <ele>325.54</ele>
        <time>2012-03-04T09:05:16Z</time>
      </trkpt>
      <trkpt lat="43.15296" lon="-0.53103">
        <ele>324.58</ele>
        <time>2012-03-04T09:05:24Z</time>
      </trkpt>
      <trkpt lat="43.15298" lon="-0.53052">
        <ele>325.06</ele>
        <time>2012-03-04T09:05:30Z</time>
      </trkpt>
      <trkpt lat="43.15297" lon="-0.53043">
        <ele>325.06</ele>
        <time>2012-03-04T09:05:31Z</time>
      </trkpt>
      <trkpt lat="43.15296" lon="-0.53035">
        <ele>325.06</ele>
        <time>2012-03-04T09:05:32Z</time>
      </trkpt>
      <trkpt lat="43.15286" lon="-0.52978">
        <ele>324.1</ele>
        <time>2012-03-04T09:05:38Z</time>
      </trkpt>
      <trkpt lat="43.15285" lon="-0.52969">
        <ele>323.62</ele>
        <time>2012-03-04T09:05:39Z</time>
      </trkpt>
      <trkpt lat="43.15284" lon="-0.5295">
        <ele>323.62</ele>
        <time>2012-03-04T09:05:41Z</time>
      </trkpt>
      <trkpt lat="43.15285" lon="-0.52941">
        <ele>323.14</ele>
        <time>2012-03-04T09:05:42Z</time>
      </trkpt>
      <trkpt lat="43.15289" lon="-0.52934">
        <ele>322.66</ele>
        <time>2012-03-04T09:05:43Z</time>
      </trkpt>
      <trkpt lat="43.15294" lon="-0.52926">
        <ele>321.7</ele>
        <time>2012-03-04T09:05:44Z</time>
      </trkpt>
      <trkpt lat="43.15299" lon="-0.52919">
        <ele>321.22</ele>
        <time>2012-03-04T09:05:45Z</time>
      </trkpt>
      <trkpt lat="43.15306" lon="-0.5291">
        <ele>321.22</ele>
        <time>2012-03-04T09:05:46Z</time>
      </trkpt>
      <trkpt lat="43.15311" lon="-0.52901">
        <ele>320.74</ele>
        <time>2012-03-04T09:05:47Z</time>
      </trkpt>
      <trkpt lat="43.15317" lon="-0.5289">
        <ele>318.81</ele>
        <time>2012-03-04T09:05:48Z</time>
      </trkpt>
      <trkpt lat="43.15321" lon="-0.52878">
        <ele>317.85</ele>
        <time>2012-03-04T09:05:49Z</time>
      </trkpt>
      <trkpt lat="43.15325" lon="-0.52865">
        <ele>316.89</ele>
        <time>2012-03-04T09:05:50Z</time>
      </trkpt>
      <trkpt lat="43.15327" lon="-0.52851">
        <ele>315.93</ele>
        <time>2012-03-04T09:05:51Z</time>
      </trkpt>
      <trkpt lat="43.15328" lon="-0.52838">
        <ele>314.49</ele>
        <time>2012-03-04T09:05:52Z</time>
      </trkpt>
      <trkpt lat="43.15327" lon="-0.52825">
        <ele>313.05</ele>
        <time>2012-03-04T09:05:53Z</time>
      </trkpt>
      <trkpt lat="43.15327" lon="-0.52812">
        <ele>312.09</ele>
        <time>2012-03-04T09:05:54Z</time>
      </trkpt>
      <trkpt lat="43.15325" lon="-0.52788">
        <ele>308.72</ele>
        <time>2012-03-04T09:05:56Z</time>
      </trkpt>
      <trkpt lat="43.15324" lon="-0.5277">
        <ele>307.28</ele>
        <time>2012-03-04T09:05:58Z</time>
      </trkpt>
      <trkpt lat="43.15321" lon="-0.52764">
        <ele>306.32</ele>
        <time>2012-03-04T09:05:59Z</time>
      </trkpt>
      <trkpt lat="43.15317" lon="-0.5276">
        <ele>305.84</ele>
        <time>2012-03-04T09:06:00Z</time>
      </trkpt>
      <trkpt lat="43.15313" lon="-0.52758">
        <ele>305.84</ele>
        <time>2012-03-04T09:06:01Z</time>
      </trkpt>
      <trkpt lat="43.15309" lon="-0.52757">
        <ele>305.36</ele>
        <time>2012-03-04T09:06:02Z</time>
      </trkpt>
      <trkpt lat="43.15306" lon="-0.52756">
        <ele>305.84</ele>
        <time>2012-03-04T09:06:03Z</time>
      </trkpt>
      <trkpt lat="43.15303" lon="-0.52755">
        <ele>305.36</ele>
        <time>2012-03-04T09:06:04Z</time>
      </trkpt>
      <trkpt lat="43.153" lon="-0.52753">
        <ele>305.36</ele>
        <time>2012-03-04T09:06:05Z</time>
      </trkpt>
      <trkpt lat="43.15297" lon="-0.52751">
        <ele>305.84</ele>
        <time>2012-03-04T09:06:06Z</time>
      </trkpt>
      <trkpt lat="43.15289" lon="-0.52744">
        <ele>304.39</ele>
        <time>2012-03-04T09:06:11Z</time>
      </trkpt>
      <trkpt lat="43.15286" lon="-0.5274">
        <ele>303.91</ele>
        <time>2012-03-04T09:06:17Z</time>
      </trkpt>
      <trkpt lat="43.15284" lon="-0.52738">
        <ele>303.91</ele>
        <time>2012-03-04T09:06:25Z</time>
      </trkpt>
      <trkpt lat="43.15284" lon="-0.52737">
        <ele>304.39</ele>
        <time>2012-03-04T09:06:32Z</time>
      </trkpt>
      <trkpt lat="43.15284" lon="-0.52736">
        <ele>304.39</ele>
        <time>2012-03-04T09:06:33Z</time>
      </trkpt>
      <trkpt lat="43.15283" lon="-0.52733">
        <ele>304.88</ele>
        <time>2012-03-04T09:06:38Z</time>
      </trkpt>
      <trkpt lat="43.15282" lon="-0.52733">
        <ele>304.39</ele>
        <time>2012-03-04T09:06:40Z</time>
      </trkpt>
      <trkpt lat="43.15283" lon="-0.5273">
        <ele>304.88</ele>
        <time>2012-03-04T09:06:42Z</time>
      </trkpt>
      <trkpt lat="43.15284" lon="-0.52724">
        <ele>305.84</ele>
        <time>2012-03-04T09:06:47Z</time>
      </trkpt>
      <trkpt lat="43.15285" lon="-0.52722">
        <ele>305.84</ele>
        <time>2012-03-04T09:06:48Z</time>
      </trkpt>
      <trkpt lat="43.15284" lon="-0.5272">
        <ele>305.84</ele>
        <time>2012-03-04T09:06:49Z</time>
      </trkpt>
      <trkpt lat="43.15277" lon="-0.52701">
        <ele>307.28</ele>
        <time>2012-03-04T09:06:56Z</time>
      </trkpt>
      <trkpt lat="43.15273" lon="-0.52692">
        <ele>307.28</ele>
        <time>2012-03-04T09:06:59Z</time>
      </trkpt>
      <trkpt lat="43.15268" lon="-0.52688">
        <ele>307.76</ele>
        <time>2012-03-04T09:07:02Z</time>
      </trkpt>
      <trkpt lat="43.15254" lon="-0.52678">
        <ele>309.2</ele>
        <time>2012-03-04T09:07:10Z</time>
      </trkpt>
      <trkpt lat="43.15249" lon="-0.5267">
        <ele>311.12</ele>
        <time>2012-03-04T09:07:16Z</time>
      </trkpt>
      <trkpt lat="43.15245" lon="-0.52668">
        <ele>312.57</ele>
        <time>2012-03-04T09:07:20Z</time>
      </trkpt>
      <trkpt lat="43.15234" lon="-0.52656">
        <ele>314.01</ele>
        <time>2012-03-04T09:07:28Z</time>
      </trkpt>
      <trkpt lat="43.15227" lon="-0.52649">
        <ele>315.45</ele>
        <time>2012-03-04T09:07:34Z</time>
      </trkpt>
      <trkpt lat="43.15215" lon="-0.52641">
        <ele>316.89</ele>
        <time>2012-03-04T09:07:40Z</time>
      </trkpt>
      <trkpt lat="43.15207" lon="-0.52635">
        <ele>317.85</ele>
        <time>2012-03-04T09:07:44Z</time>
      </trkpt>
      <trkpt lat="43.15196" lon="-0.52626">
        <ele>319.78</ele>
        <time>2012-03-04T09:07:50Z</time>
      </trkpt>
      <trkpt lat="43.1519" lon="-0.52612">
        <ele>320.74</ele>
        <time>2012-03-04T09:07:56Z</time>
      </trkpt>
      <trkpt lat="43.15186" lon="-0.52597">
        <ele>322.18</ele>
        <time>2012-03-04T09:08:02Z</time>
      </trkpt>
      <trkpt lat="43.15184" lon="-0.52591">
        <ele>322.66</ele>
        <time>2012-03-04T09:08:05Z</time>
      </trkpt>
      <trkpt lat="43.15174" lon="-0.52578">
        <ele>324.1</ele>
        <time>2012-03-04T09:08:13Z</time>
      </trkpt>
      <trkpt lat="43.15164" lon="-0.52569">
        <ele>324.58</ele>
        <time>2012-03-04T09:08:19Z</time>
      </trkpt>
      <trkpt lat="43.15161" lon="-0.52568">
        <ele>325.06</ele>
        <time>2012-03-04T09:08:20Z</time>
      </trkpt>
      <trkpt lat="43.15149" lon="-0.52563">
        <ele>324.1</ele>
        <time>2012-03-04T09:08:24Z</time>
      </trkpt>
      <trkpt lat="43.15137" lon="-0.52547">
        <ele>323.62</ele>
        <time>2012-03-04T09:08:28Z</time>
      </trkpt>
      <trkpt lat="43.15135" lon="-0.52543">
        <ele>323.62</ele>
        <time>2012-03-04T09:08:29Z</time>
      </trkpt>
      <trkpt lat="43.15118" lon="-0.52521">
        <ele>324.58</ele>
        <time>2012-03-04T09:08:36Z</time>
      </trkpt>
      <trkpt lat="43.15098" lon="-0.52504">
        <ele>326.5</ele>
        <time>2012-03-04T09:08:43Z</time>
      </trkpt>
      <trkpt lat="43.15088" lon="-0.52479">
        <ele>327.47</ele>
        <time>2012-03-04T09:08:50Z</time>
      </trkpt>
      <trkpt lat="43.1508" lon="-0.52473">
        <ele>327.47</ele>
        <time>2012-03-04T09:08:54Z</time>
      </trkpt>
      <trkpt lat="43.15071" lon="-0.52465">
        <ele>327.95</ele>
        <time>2012-03-04T09:08:57Z</time>
      </trkpt>
      <trkpt lat="43.15068" lon="-0.52439">
        <ele>328.91</ele>
        <time>2012-03-04T09:09:03Z</time>
      </trkpt>
      <trkpt lat="43.15055" lon="-0.52418">
        <ele>329.87</ele>
        <time>2012-03-04T09:09:09Z</time>
      </trkpt>
      <trkpt lat="43.15043" lon="-0.52395">
        <ele>331.31</ele>
        <time>2012-03-04T09:09:15Z</time>
      </trkpt>
      <trkpt lat="43.15043" lon="-0.52375">
        <ele>331.31</ele>
        <time>2012-03-04T09:09:19Z</time>
      </trkpt>
      <trkpt lat="43.15035" lon="-0.52355">
        <ele>331.79</ele>
        <time>2012-03-04T09:09:24Z</time>
      </trkpt>
      <trkpt lat="43.15015" lon="-0.52324">
        <ele>332.75</ele>
        <time>2012-03-04T09:09:32Z</time>
      </trkpt>
      <trkpt lat="43.14997" lon="-0.52302">
        <ele>333.23</ele>
        <time>2012-03-04T09:09:38Z</time>
      </trkpt>
      <trkpt lat="43.14981" lon="-0.52287">
        <ele>333.71</ele>
        <time>2012-03-04T09:09:44Z</time>
      </trkpt>
      <trkpt lat="43.14966" lon="-0.52272">
        <ele>334.2</ele>
        <time>2012-03-04T09:09:50Z</time>
      </trkpt>
      <trkpt lat="43.1495" lon="-0.52257">
        <ele>334.2</ele>
        <time>2012-03-04T09:09:56Z</time>
      </trkpt>
      <trkpt lat="43.14945" lon="-0.52251">
        <ele>334.68</ele>
        <time>2012-03-04T09:09:58Z</time>
      </trkpt>
      <trkpt lat="43.14928" lon="-0.52239">
        <ele>336.12</ele>
        <time>2012-03-04T09:10:05Z</time>
      </trkpt>
      <trkpt lat="43.14909" lon="-0.52225">
        <ele>337.56</ele>
        <time>2012-03-04T09:10:12Z</time>
      </trkpt>
      <trkpt lat="43.14896" lon="-0.52211">
        <ele>338.52</ele>
        <time>2012-03-04T09:10:18Z</time>
      </trkpt>
      <trkpt lat="43.14885" lon="-0.5219">
        <ele>338.52</ele>
        <time>2012-03-04T09:10:24Z</time>
      </trkpt>
      <trkpt lat="43.1488" lon="-0.52178">
        <ele>338.52</ele>
        <time>2012-03-04T09:10:27Z</time>
      </trkpt>
      <trkpt lat="43.14874" lon="-0.52148">
        <ele>338.52</ele>
        <time>2012-03-04T09:10:33Z</time>
      </trkpt>
      <trkpt lat="43.14865" lon="-0.52124">
        <ele>339</ele>
        <time>2012-03-04T09:10:38Z</time>
      </trkpt>
      <trkpt lat="43.1485" lon="-0.52106">
        <ele>339.48</ele>
        <time>2012-03-04T09:10:44Z</time>
      </trkpt>
      <trkpt lat="43.14833" lon="-0.52089">
        <ele>340.44</ele>
        <time>2012-03-04T09:10:51Z</time>
      </trkpt>
      <trkpt lat="43.14828" lon="-0.52086">
        <ele>340.92</ele>
        <time>2012-03-04T09:10:53Z</time>
      </trkpt>
      <trkpt lat="43.14814" lon="-0.52072">
        <ele>341.89</ele>
        <time>2012-03-04T09:10:59Z</time>
      </trkpt>
      <trkpt lat="43.14799" lon="-0.52054">
        <ele>342.37</ele>
        <time>2012-03-04T09:11:06Z</time>
      </trkpt>
      <trkpt lat="43.14783" lon="-0.5203">
        <ele>343.33</ele>
        <time>2012-03-04T09:11:13Z</time>
      </trkpt>
      <trkpt lat="43.14765" lon="-0.52008">
        <ele>344.77</ele>
        <time>2012-03-04T09:11:20Z</time>
      </trkpt>
      <trkpt lat="43.14748" lon="-0.51991">
        <ele>345.25</ele>
        <time>2012-03-04T09:11:27Z</time>
      </trkpt>
      <trkpt lat="43.14746" lon="-0.51988">
        <ele>346.21</ele>
        <time>2012-03-04T09:11:28Z</time>
      </trkpt>
      <trkpt lat="43.14737" lon="-0.51987">
        <ele>346.21</ele>
        <time>2012-03-04T09:11:32Z</time>
      </trkpt>
      <trkpt lat="43.14723" lon="-0.51992">
        <ele>346.21</ele>
        <time>2012-03-04T09:11:39Z</time>
      </trkpt>
      <trkpt lat="43.14711" lon="-0.51975">
        <ele>346.21</ele>
        <time>2012-03-04T09:11:44Z</time>
      </trkpt>
      <trkpt lat="43.14708" lon="-0.51971">
        <ele>345.73</ele>
        <time>2012-03-04T09:11:45Z</time>
      </trkpt>
      <trkpt lat="43.14667" lon="-0.51936">
        <ele>345.73</ele>
        <time>2012-03-04T09:11:53Z</time>
      </trkpt>
      <trkpt lat="43.14641" lon="-0.51912">
        <ele>345.25</ele>
        <time>2012-03-04T09:11:59Z</time>
      </trkpt>
      <trkpt lat="43.1462" lon="-0.51896">
        <ele>344.77</ele>
        <time>2012-03-04T09:12:04Z</time>
      </trkpt>
      <trkpt lat="43.14584" lon="-0.5188">
        <ele>345.25</ele>
        <time>2012-03-04T09:12:12Z</time>
      </trkpt>
      <trkpt lat="43.1458" lon="-0.51879">
        <ele>345.25</ele>
        <time>2012-03-04T09:12:13Z</time>
      </trkpt>
      <trkpt lat="43.14548" lon="-0.51862">
        <ele>346.21</ele>
        <time>2012-03-04T09:12:21Z</time>
      </trkpt>
      <trkpt lat="43.14545" lon="-0.51859">
        <ele>346.21</ele>
        <time>2012-03-04T09:12:22Z</time>
      </trkpt>
      <trkpt lat="43.14541" lon="-0.51856">
        <ele>346.69</ele>
        <time>2012-03-04T09:12:23Z</time>
      </trkpt>
      <trkpt lat="43.14517" lon="-0.5182">
        <ele>347.65</ele>
        <time>2012-03-04T09:12:32Z</time>
      </trkpt>
      <trkpt lat="43.14499" lon="-0.51779">
        <ele>348.62</ele>
        <time>2012-03-04T09:12:40Z</time>
      </trkpt>
      <trkpt lat="43.14481" lon="-0.51734">
        <ele>349.1</ele>
        <time>2012-03-04T09:12:48Z</time>
      </trkpt>
      <trkpt lat="43.14458" lon="-0.51685">
        <ele>348.62</ele>
        <time>2012-03-04T09:12:56Z</time>
      </trkpt>
      <trkpt lat="43.14438" lon="-0.51644">
        <ele>349.1</ele>
        <time>2012-03-04T09:13:04Z</time>
      </trkpt>
      <trkpt lat="43.14437" lon="-0.51643">
        <ele>348.62</ele>
        <time>2012-03-04T09:13:10Z</time>
      </trkpt>
      <trkpt lat="43.14438" lon="-0.51642">
        <ele>347.65</ele>
        <time>2012-03-04T09:13:20Z</time>
      </trkpt>
      <trkpt lat="43.14438" lon="-0.51642">
        <ele>348.62</ele>
        <time>2012-03-04T09:13:30Z</time>
      </trkpt>
      <trkpt lat="43.14437" lon="-0.51639">
        <ele>348.62</ele>
        <time>2012-03-04T09:13:36Z</time>
      </trkpt>
      <trkpt lat="43.14435" lon="-0.51638">
        <ele>349.1</ele>
        <time>2012-03-04T09:13:37Z</time>
      </trkpt>
      <trkpt lat="43.14434" lon="-0.51637">
        <ele>349.1</ele>
        <time>2012-03-04T09:13:38Z</time>
      </trkpt>
      <trkpt lat="43.14432" lon="-0.51635">
        <ele>349.1</ele>
        <time>2012-03-04T09:13:39Z</time>
      </trkpt>
      <trkpt lat="43.1443" lon="-0.51632">
        <ele>349.58</ele>
        <time>2012-03-04T09:13:40Z</time>
      </trkpt>
      <trkpt lat="43.14428" lon="-0.51628">
        <ele>349.58</ele>
        <time>2012-03-04T09:13:41Z</time>
      </trkpt>
      <trkpt lat="43.14426" lon="-0.51624">
        <ele>350.06</ele>
        <time>2012-03-04T09:13:42Z</time>
      </trkpt>
      <trkpt lat="43.14424" lon="-0.5162">
        <ele>350.06</ele>
        <time>2012-03-04T09:13:43Z</time>
      </trkpt>
      <trkpt lat="43.1442" lon="-0.51616">
        <ele>350.06</ele>
        <time>2012-03-04T09:13:44Z</time>
      </trkpt>
      <trkpt lat="43.14391" lon="-0.51577">
        <ele>350.54</ele>
        <time>2012-03-04T09:13:52Z</time>
      </trkpt>
      <trkpt lat="43.14359" lon="-0.51531">
        <ele>351.02</ele>
        <time>2012-03-04T09:14:00Z</time>
      </trkpt>
      <trkpt lat="43.14331" lon="-0.51478">
        <ele>350.54</ele>
        <time>2012-03-04T09:14:08Z</time>
      </trkpt>
      <trkpt lat="43.14312" lon="-0.51423">
        <ele>350.54</ele>
        <time>2012-03-04T09:14:15Z</time>
      </trkpt>
      <trkpt lat="43.14291" lon="-0.51358">
        <ele>350.54</ele>
        <time>2012-03-04T09:14:23Z</time>
      </trkpt>
      <trkpt lat="43.14277" lon="-0.5129">
        <ele>351.5</ele>
        <time>2012-03-04T09:14:31Z</time>
      </trkpt>
      <trkpt lat="43.14272" lon="-0.5122">
        <ele>351.02</ele>
        <time>2012-03-04T09:14:39Z</time>
      </trkpt>
      <trkpt lat="43.14272" lon="-0.51204">
        <ele>351.5</ele>
        <time>2012-03-04T09:14:41Z</time>
      </trkpt>
      <trkpt lat="43.14273" lon="-0.51196">
        <ele>351.5</ele>
        <time>2012-03-04T09:14:42Z</time>
      </trkpt>
      <trkpt lat="43.14275" lon="-0.51189">
        <ele>351.98</ele>
        <time>2012-03-04T09:14:43Z</time>
      </trkpt>
      <trkpt lat="43.14277" lon="-0.51181">
        <ele>351.98</ele>
        <time>2012-03-04T09:14:44Z</time>
      </trkpt>
      <trkpt lat="43.14279" lon="-0.51175">
        <ele>352.46</ele>
        <time>2012-03-04T09:14:45Z</time>
      </trkpt>
      <trkpt lat="43.14282" lon="-0.51169">
        <ele>352.46</ele>
        <time>2012-03-04T09:14:46Z</time>
      </trkpt>
      <trkpt lat="43.14303" lon="-0.51134">
        <ele>352.46</ele>
        <time>2012-03-04T09:14:52Z</time>
      </trkpt>
      <trkpt lat="43.14325" lon="-0.5109">
        <ele>351.5</ele>
        <time>2012-03-04T09:14:58Z</time>
      </trkpt>
      <trkpt lat="43.14348" lon="-0.51047">
        <ele>351.5</ele>
        <time>2012-03-04T09:15:04Z</time>
      </trkpt>
      <trkpt lat="43.1436" lon="-0.51024">
        <ele>350.54</ele>
        <time>2012-03-04T09:15:07Z</time>
      </trkpt>
      <trkpt lat="43.14362" lon="-0.51017">
        <ele>350.06</ele>
        <time>2012-03-04T09:15:08Z</time>
      </trkpt>
    </trkseg>
  </trk>
  <trk>
    <name><![CDATA[test ogeu_3]]></name>
    <trkseg>
      <trkpt lat="43.15837" lon="-0.56425">
        <ele>256.4</ele>
      </trkpt>
      <trkpt lat="43.15859" lon="-0.56417">
        <ele>257.1</ele>
      </trkpt>
      <trkpt lat="43.15879" lon="-0.56415">
        <ele>259.5</ele>
      </trkpt>
      <trkpt lat="43.15896" lon="-0.56422">
        <ele>258.3</ele>
      </trkpt>
      <trkpt lat="43.15924" lon="-0.56436">
        <ele>262.5</ele>
      </trkpt>
      <trkpt lat="43.15949" lon="-0.56443">
        <ele>264.5</ele>
      </trkpt>
      <trkpt lat="43.15973" lon="-0.56444">
        <ele>266</ele>
      </trkpt>
      <trkpt lat="43.16009" lon="-0.56441">
        <ele>273.1</ele>
      </trkpt>
      <trkpt lat="43.16039" lon="-0.56425">
        <ele>275.1</ele>
      </trkpt>
      <trkpt lat="43.16064" lon="-0.56405">
        <ele>274</ele>
      </trkpt>
      <trkpt lat="43.16128" lon="-0.56347">
        <ele>280.7</ele>
      </trkpt>
      <trkpt lat="43.16201" lon="-0.56205">
        <ele>284.5</ele>
      </trkpt>
      <trkpt lat="43.16248" lon="-0.56111">
        <ele>288.1</ele>
      </trkpt>
      <trkpt lat="43.16279" lon="-0.56025">
        <ele>291</ele>
      </trkpt>
      <trkpt lat="43.16321" lon="-0.55867">
        <ele>292.5</ele>
      </trkpt>
      <trkpt lat="43.1637" lon="-0.55677">
        <ele>295.3</ele>
      </trkpt>
      <trkpt lat="43.16402" lon="-0.55532">
        <ele>296.7</ele>
      </trkpt>
      <trkpt lat="43.16419" lon="-0.5543">
        <ele>297.6</ele>
      </trkpt>
      <trkpt lat="43.16426" lon="-0.55409">
        <ele>296.9</ele>
      </trkpt>
      <trkpt lat="43.1644" lon="-0.5541">
        <ele>296.9</ele>
      </trkpt>
      <trkpt lat="43.16489" lon="-0.55442">
        <ele>298.7</ele>
      </trkpt>
      <trkpt lat="43.16569" lon="-0.55405">
        <ele>299</ele>
      </trkpt>
      <trkpt lat="43.16623" lon="-0.55373">
        <ele>301.2</ele>
      </trkpt>
    </trkseg>
  </trk>
</gpx>